Wetterdaten: Freitag, 18.11.2016
Datum Zeit Temp. A. Feuchte A. Luftdruck Regen Wind Richtung Richtung Sonnenschein ET UV Solar Taupunkt Windchill Windben Empfang
18.11.2016 00:00 4,7 C 98 % 1011,5 hPa 0,0 l/m 1,0 km/h (0 Bft) N-NW 331 0 min 0,000 mm 0,0 UV-I 0 W/m 4,4 C 4,7 C 3,2 km/h (1 Bft) 100,00 %
18.11.2016 00:02 4,7 C 98 % 1011,5 hPa 0,0 l/m 0,1 km/h (0 Bft) N-NW 331 0 min 0,000 mm 0,0 UV-I 0 W/m 4,4 C 4,7 C 1,6 km/h (1 Bft) 100,00 %
18.11.2016 00:04 4,6 C 98 % 1011,4 hPa 0,0 l/m 1,4 km/h (1 Bft) N-NW 330 0 min 0,000 mm 0,0 UV-I 0 W/m 4,3 C 4,6 C 3,2 km/h (1 Bft) 100,00 %
18.11.2016 00:06 4,6 C 98 % 1011,4 hPa 0,0 l/m 1,6 km/h (1 Bft) N-NW 331 0 min 0,000 mm 0,0 UV-I 0 W/m 4,3 C 4,6 C 3,2 km/h (1 Bft) 100,00 %
18.11.2016 00:08 4,6 C 98 % 1011,3 hPa 0,0 l/m 1,7 km/h (1 Bft) N-NW 331 0 min 0,000 mm 0,0 UV-I 0 W/m 4,3 C 4,6 C 3,2 km/h (1 Bft) 98,00 %
18.11.2016 00:10 4,5 C 98 % 1011,4 hPa 0,0 l/m 0,2 km/h (0 Bft) N-NW 330 0 min 0,000 mm 0,0 UV-I 0 W/m 4,2 C 4,5 C 1,6 km/h (1 Bft) 100,00 %
18.11.2016 00:12 4,5 C 98 % 1011,4 hPa 0,0 l/m 0,0 km/h (0 Bft) N-NW 331 0 min 0,000 mm 0,0 UV-I 0 W/m 4,2 C 4,5 C 0,0 km/h (0 Bft) 100,00 %
18.11.2016 00:14 4,5 C 98 % 1011,3 hPa 0,0 l/m 0,0 km/h (0 Bft) N-NW 331 0 min 0,000 mm 0,0 UV-I 0 W/m 4,2 C 4,5 C 0,0 km/h (0 Bft) 100,00 %
18.11.2016 00:16 4,4 C 98 % 1011,4 hPa 0,0 l/m 1,1 km/h (1 Bft) N-NW 331 0 min 0,000 mm 0,0 UV-I 0 W/m 4,1 C 4,4 C 3,2 km/h (1 Bft) 97,56 %
18.11.2016 00:18 4,4 C 98 % 1011,4 hPa 0,0 l/m 2,5 km/h (1 Bft) N-NW 342 0 min 0,000 mm 0,0 UV-I 0 W/m 4,1 C 4,4 C 3,2 km/h (1 Bft) 100,00 %
18.11.2016 00:20 4,4 C 98 % 1011,4 hPa 0,0 l/m 0,3 km/h (0 Bft) N-NW 342 0 min 0,000 mm 0,0 UV-I 0 W/m 4,1 C 4,4 C 1,6 km/h (1 Bft) 100,00 %
18.11.2016 00:22 4,3 C 98 % 1011,4 hPa 0,0 l/m 0,8 km/h (0 Bft) N-NW 342 0 min 0,000 mm 0,0 UV-I 0 W/m 4,0 C 4,3 C 3,2 km/h (1 Bft) 97,87 %
18.11.2016 00:24 4,3 C 98 % 1011,4 hPa 0,0 l/m 1,5 km/h (1 Bft) N-NW 348 0 min 0,000 mm 0,0 UV-I 0 W/m 4,0 C 4,3 C 3,2 km/h (1 Bft) 100,00 %
18.11.2016 00:26 4,3 C 98 % 1011,5 hPa 0,0 l/m 1,3 km/h (1 Bft) N-NW 348 0 min 0,000 mm 0,0 UV-I 0 W/m 4,0 C 4,3 C 3,2 km/h (1 Bft) 98,21 %
18.11.2016 00:28 4,2 C 98 % 1011,5 hPa 0,0 l/m 0,7 km/h (0 Bft) N-NW 348 0 min 0,000 mm 0,0 UV-I 0 W/m 3,9 C 4,2 C 3,2 km/h (1 Bft) 98,00 %
18.11.2016 00:30 4,1 C 98 % 1011,5 hPa 0,0 l/m 0,1 km/h (0 Bft) N-NW 347 0 min 0,000 mm 0,0 UV-I 0 W/m 3,8 C 4,1 C 1,6 km/h (1 Bft) 97,87 %
18.11.2016 00:32 4,0 C 98 % 1011,5 hPa 0,0 l/m 0,2 km/h (0 Bft) N-NW 348 0 min 0,000 mm 0,0 UV-I 0 W/m 3,7 C 4,0 C 1,6 km/h (1 Bft) 100,00 %
18.11.2016 00:34 3,9 C 98 % 1011,5 hPa 0,0 l/m 0,0 km/h (0 Bft) N-NW 348 0 min 0,000 mm 0,0 UV-I 0 W/m 3,6 C 3,9 C 1,6 km/h (1 Bft) 100,00 %
18.11.2016 00:36 3,8 C 98 % 1011,4 hPa 0,0 l/m 0,7 km/h (0 Bft) N-NW 347 0 min 0,000 mm 0,0 UV-I 0 W/m 3,5 C 3,8 C 1,6 km/h (1 Bft) 100,00 %
18.11.2016 00:38 3,8 C 98 % 1011,3 hPa 0,0 l/m 0,8 km/h (0 Bft) N-NW 348 0 min 0,000 mm 0,0 UV-I 0 W/m 3,5 C 3,8 C 1,6 km/h (1 Bft) 100,00 %
18.11.2016 00:40 3,8 C 98 % 1011,2 hPa 0,0 l/m 2,0 km/h (1 Bft) N-NW 348 0 min 0,000 mm 0,0 UV-I 0 W/m 3,5 C 3,8 C 3,2 km/h (1 Bft) 97,56 %
18.11.2016 00:42 3,7 C 98 % 1011,1 hPa 0,0 l/m 2,4 km/h (1 Bft) N-NW 348 0 min 0,000 mm 0,0 UV-I 0 W/m 3,4 C 3,7 C 3,2 km/h (1 Bft) 95,83 %
18.11.2016 00:44 3,7 C 98 % 1011,1 hPa 0,0 l/m 1,4 km/h (1 Bft) N-NW 348 0 min 0,000 mm 0,0 UV-I 0 W/m 3,4 C 3,7 C 3,2 km/h (1 Bft) 95,74 %
18.11.2016 00:46 3,7 C 98 % 1011,1 hPa 0,0 l/m 0,9 km/h (0 Bft) N-NW 348 0 min 0,000 mm 0,0 UV-I 0 W/m 3,4 C 3,7 C 1,6 km/h (1 Bft) 98,00 %
18.11.2016 00:48 3,7 C 98 % 1011,0 hPa 0,0 l/m 0,2 km/h (0 Bft) N-NW 347 0 min 0,000 mm 0,0 UV-I 0 W/m 3,4 C 3,7 C 1,6 km/h (1 Bft) 97,22 %
18.11.2016 00:50 3,6 C 98 % 1011,1 hPa 0,0 l/m 3,0 km/h (1 Bft) N-NW 348 0 min 0,000 mm 0,0 UV-I 0 W/m 3,3 C 3,6 C 4,8 km/h (1 Bft) 98,04 %
18.11.2016 00:52 3,7 C 98 % 1011,0 hPa 0,0 l/m 1,8 km/h (1 Bft) N-NW 348 0 min 0,000 mm 0,0 UV-I 0 W/m 3,4 C 3,7 C 3,2 km/h (1 Bft) 98,21 %
18.11.2016 00:54 3,6 C 98 % 1011,0 hPa 0,0 l/m 0,3 km/h (0 Bft) N-NW 348 0 min 0,000 mm 0,0 UV-I 0 W/m 3,3 C 3,6 C 1,6 km/h (1 Bft) 97,37 %
18.11.2016 00:56 3,6 C 98 % 1011,0 hPa 0,0 l/m 0,9 km/h (0 Bft) N-NW 348 0 min 0,000 mm 0,0 UV-I 0 W/m 3,3 C 3,6 C 3,2 km/h (1 Bft) 97,87 %
18.11.2016 00:58 3,5 C 98 % 1010,9 hPa 0,0 l/m 1,2 km/h (1 Bft) N-NW 348 0 min 0,000 mm 0,0 UV-I 0 W/m 3,2 C 3,5 C 3,2 km/h (1 Bft) 97,87 %
18.11.2016 01:00 3,4 C 98 % 1010,9 hPa 0,0 l/m 1,0 km/h (0 Bft) N-NW 348 0 min 0,000 mm 0,0 UV-I 0 W/m 3,1 C 3,4 C 1,6 km/h (1 Bft) 96,00 %
18.11.2016 01:02 3,3 C 98 % 1010,9 hPa 0,0 l/m 1,7 km/h (1 Bft) N-NW 348 0 min 0,000 mm 0,0 UV-I 0 W/m 3,0 C 3,3 C 3,2 km/h (1 Bft) 96,00 %
18.11.2016 01:04 3,2 C 98 % 1010,9 hPa 0,0 l/m 0,3 km/h (0 Bft) N-NW 348 0 min 0,000 mm 0,0 UV-I 0 W/m 2,9 C 3,2 C 1,6 km/h (1 Bft) 97,56 %
18.11.2016 01:06 3,2 C 98 % 1010,9 hPa 0,0 l/m 1,4 km/h (1 Bft) N-NW 348 0 min 0,000 mm 0,0 UV-I 0 W/m 2,9 C 3,2 C 3,2 km/h (1 Bft) 96,00 %
18.11.2016 01:08 3,1 C 98 % 1010,9 hPa 0,0 l/m 0,8 km/h (0 Bft) N-NW 348 0 min 0,000 mm 0,0 UV-I 0 W/m 2,8 C 3,1 C 1,6 km/h (1 Bft) 97,56 %
18.11.2016 01:10 3,1 C 98 % 1010,9 hPa 0,0 l/m 0,0 km/h (0 Bft) N-NW 348 0 min 0,000 mm 0,0 UV-I 0 W/m 2,8 C 3,1 C 0,0 km/h (0 Bft) 97,87 %
18.11.2016 01:12 3,1 C 98 % 1010,8 hPa 0,0 l/m 0,0 km/h (0 Bft) N-NW 348 0 min 0,000 mm 0,0 UV-I 0 W/m 2,8 C 3,1 C 0,0 km/h (0 Bft) 97,87 %
18.11.2016 01:14 3,0 C 98 % 1010,9 hPa 0,0 l/m 0,0 km/h (0 Bft) N-NW 348 0 min 0,000 mm 0,0 UV-I 0 W/m 2,7 C 3,0 C 0,0 km/h (0 Bft) 95,74 %
18.11.2016 01:16 3,0 C 98 % 1010,8 hPa 0,0 l/m 0,0 km/h (0 Bft) N-NW 348 0 min 0,000 mm 0,0 UV-I 0 W/m 2,7 C 3,0 C 0,0 km/h (0 Bft) 100,00 %
18.11.2016 01:18 3,0 C 98 % 1010,8 hPa 0,0 l/m 0,0 km/h (0 Bft) N-NW 348 0 min 0,000 mm 0,0 UV-I 0 W/m 2,7 C 3,0 C 0,0 km/h (0 Bft) 97,87 %
18.11.2016 01:20 2,9 C 98 % 1010,7 hPa 0,0 l/m 0,0 km/h (0 Bft) N-NW 348 0 min 0,000 mm 0,0 UV-I 0 W/m 2,6 C 2,9 C 0,0 km/h (0 Bft) 98,11 %
18.11.2016 01:22 2,9 C 98 % 1010,8 hPa 0,0 l/m 0,0 km/h (0 Bft) N-NW 348 0 min 0,000 mm 0,0 UV-I 0 W/m 2,6 C 2,9 C 0,0 km/h (0 Bft) 100,00 %
18.11.2016 01:24 2,9 C 98 % 1010,8 hPa 0,0 l/m 0,0 km/h (0 Bft) N-NW 348 0 min 0,000 mm 0,0 UV-I 0 W/m 2,6 C 2,9 C 0,0 km/h (0 Bft) 97,87 %
18.11.2016 01:26 2,8 C 98 % 1010,8 hPa 0,0 l/m 0,0 km/h (0 Bft) N-NW 348 0 min 0,000 mm 0,0 UV-I 0 W/m 2,5 C 2,8 C 0,0 km/h (0 Bft) 97,87 %
18.11.2016 01:28 2,8 C 98 % 1010,8 hPa 0,0 l/m 0,0 km/h (0 Bft) N-NW 348 0 min 0,000 mm 0,0 UV-I 0 W/m 2,5 C 2,8 C 0,0 km/h (0 Bft) 97,87 %
18.11.2016 01:30 2,9 C 98 % 1010,7 hPa 0,0 l/m 0,0 km/h (0 Bft) N-NW 348 0 min 0,000 mm 0,0 UV-I 0 W/m 2,6 C 2,9 C 0,0 km/h (0 Bft) 100,00 %
18.11.2016 01:32 2,9 C 98 % 1010,8 hPa 0,0 l/m 0,0 km/h (0 Bft) N-NW 348 0 min 0,000 mm 0,0 UV-I 0 W/m 2,6 C 2,9 C 0,0 km/h (0 Bft) 100,00 %
18.11.2016 01:34 2,9 C 98 % 1010,8 hPa 0,0 l/m 0,5 km/h (0 Bft) N-NW 348 0 min 0,000 mm 0,0 UV-I 0 W/m 2,6 C 2,9 C 1,6 km/h (1 Bft) 100,00 %
18.11.2016 01:36 2,9 C 98 % 1010,8 hPa 0,0 l/m 0,0 km/h (0 Bft) N-NW 348 0 min 0,000 mm 0,0 UV-I 0 W/m 2,6 C 2,9 C 0,0 km/h (0 Bft) 96,00 %
18.11.2016 01:38 2,9 C 98 % 1010,8 hPa 0,0 l/m 0,0 km/h (0 Bft) N-NW 348 0 min 0,000 mm 0,0 UV-I 0 W/m 2,6 C 2,9 C 0,0 km/h (0 Bft) 97,37 %
18.11.2016 01:40 2,9 C 98 % 1010,7 hPa 0,0 l/m 0,0 km/h (0 Bft) N-NW 348 0 min 0,000 mm 0,0 UV-I 0 W/m 2,6 C 2,9 C 0,0 km/h (0 Bft) 97,87 %
18.11.2016 01:42 2,9 C 98 % 1010,7 hPa 0,0 l/m 0,0 km/h (0 Bft) N-NW 348 0 min 0,000 mm 0,0 UV-I 0 W/m 2,6 C 2,9 C 0,0 km/h (0 Bft) 100,00 %
18.11.2016 01:44 2,9 C 98 % 1010,7 hPa 0,0 l/m 0,0 km/h (0 Bft) N-NW 348 0 min 0,000 mm 0,0 UV-I 0 W/m 2,6 C 2,9 C 0,0 km/h (0 Bft) 100,00 %
18.11.2016 01:46 2,9 C 98 % 1010,6 hPa 0,0 l/m 0,0 km/h (0 Bft) N-NW 348 0 min 0,000 mm 0,0 UV-I 0 W/m 2,6 C 2,9 C 0,0 km/h (0 Bft) 100,00 %
18.11.2016 01:48 2,9 C 98 % 1010,6 hPa 0,0 l/m 0,0 km/h (0 Bft) N-NW 348 0 min 0,000 mm 0,0 UV-I 0 W/m 2,6 C 2,9 C 0,0 km/h (0 Bft) 98,00 %
18.11.2016 01:50 2,9 C 98 % 1010,6 hPa 0,0 l/m 0,0 km/h (0 Bft) N-NW 348 0 min 0,000 mm 0,0 UV-I 0 W/m 2,6 C 2,9 C 0,0 km/h (0 Bft) 100,00 %
18.11.2016 01:52 2,9 C 98 % 1010,6 hPa 0,0 l/m 0,0 km/h (0 Bft) N-NW 348 0 min 0,000 mm 0,0 UV-I 0 W/m 2,6 C 2,9 C 0,0 km/h (0 Bft) 100,00 %
18.11.2016 01:54 2,9 C 98 % 1010,5 hPa 0,0 l/m 0,0 km/h (0 Bft) N-NW 348 0 min 0,000 mm 0,0 UV-I 0 W/m 2,6 C 2,9 C 0,0 km/h (0 Bft) 100,00 %
18.11.2016 01:56 2,9 C 98 % 1010,5 hPa 0,0 l/m 0,0 km/h (0 Bft) N-NW 348 0 min 0,000 mm 0,0 UV-I 0 W/m 2,6 C 2,9 C 0,0 km/h (0 Bft) 100,00 %
18.11.2016 01:58 2,9 C 98 % 1010,5 hPa 0,0 l/m 0,0 km/h (0 Bft) N-NW 348 0 min 0,000 mm 0,0 UV-I 0 W/m 2,6 C 2,9 C 0,0 km/h (0 Bft) 100,00 %
18.11.2016 02:00 2,9 C 98 % 1010,5 hPa 0,0 l/m 0,0 km/h (0 Bft) N-NW 348 0 min 0,000 mm 0,0 UV-I 0 W/m 2,6 C 2,9 C 0,0 km/h (0 Bft) 100,00 %
18.11.2016 02:02 2,9 C 98 % 1010,5 hPa 0,0 l/m 0,0 km/h (0 Bft) N-NW 348 0 min 0,000 mm 0,0 UV-I 0 W/m 2,6 C 2,9 C 0,0 km/h (0 Bft) 95,74 %
18.11.2016 02:04 2,9 C 98 % 1010,4 hPa 0,0 l/m 0,0 km/h (0 Bft) N-NW 348 0 min 0,000 mm 0,0 UV-I 0 W/m 2,6 C 2,9 C 0,0 km/h (0 Bft) 100,00 %
18.11.2016 02:06 2,9 C 98 % 1010,3 hPa 0,0 l/m 0,0 km/h (0 Bft) N-NW 348 0 min 0,000 mm 0,0 UV-I 0 W/m 2,6 C 2,9 C 0,0 km/h (0 Bft) 100,00 %
18.11.2016 02:08 3,0 C 98 % 1010,4 hPa 0,0 l/m 0,0 km/h (0 Bft) N-NW 348 0 min 0,000 mm 0,0 UV-I 0 W/m 2,7 C 3,0 C 0,0 km/h (0 Bft) 100,00 %
18.11.2016 02:10 3,0 C 99 % 1010,3 hPa 0,0 l/m 0,0 km/h (0 Bft) N-NW 348 0 min 0,000 mm 0,0 UV-I 0 W/m 2,9 C 3,0 C 0,0 km/h (0 Bft) 97,87 %
18.11.2016 02:12 3,0 C 99 % 1010,3 hPa 0,0 l/m 0,0 km/h (0 Bft) N-NW 348 0 min 0,000 mm 0,0 UV-I 0 W/m 2,9 C 3,0 C 0,0 km/h (0 Bft) 97,87 %
18.11.2016 02:14 3,0 C 99 % 1010,3 hPa 0,0 l/m 0,0 km/h (0 Bft) N-NW 348 0 min 0,000 mm 0,0 UV-I 0 W/m 2,9 C 3,0 C 0,0 km/h (0 Bft) 100,00 %
18.11.2016 02:16 3,0 C 99 % 1010,3 hPa 0,0 l/m 0,0 km/h (0 Bft) N-NW 348 0 min 0,000 mm 0,0 UV-I 0 W/m 2,9 C 3,0 C 0,0 km/h (0 Bft) 100,00 %
18.11.2016 02:18 3,0 C 99 % 1010,3 hPa 0,0 l/m 0,2 km/h (0 Bft) N-NW 348 0 min 0,000 mm 0,0 UV-I 0 W/m 2,9 C 3,0 C 1,6 km/h (1 Bft) 100,00 %
18.11.2016 02:20 3,0 C 99 % 1010,4 hPa 0,0 l/m 0,2 km/h (0 Bft) N-NW 348 0 min 0,000 mm 0,0 UV-I 0 W/m 2,9 C 3,0 C 1,6 km/h (1 Bft) 100,00 %
18.11.2016 02:22 3,0 C 99 % 1010,4 hPa 0,0 l/m 0,2 km/h (0 Bft) N-NW 348 0 min 0,000 mm 0,0 UV-I 0 W/m 2,9 C 3,0 C 1,6 km/h (1 Bft) 97,87 %
18.11.2016 02:24 3,1 C 99 % 1010,4 hPa 0,0 l/m 0,3 km/h (0 Bft) N-NW 348 0 min 0,000 mm 0,0 UV-I 0 W/m 3,0 C 3,1 C 1,6 km/h (1 Bft) 100,00 %
18.11.2016 02:26 3,0 C 99 % 1010,3 hPa 0,0 l/m 0,7 km/h (0 Bft) N-NW 348 0 min 0,000 mm 0,0 UV-I 0 W/m 2,9 C 3,0 C 3,2 km/h (1 Bft) 100,00 %
18.11.2016 02:28 3,1 C 99 % 1010,3 hPa 0,0 l/m 1,3 km/h (1 Bft) N-NW 348 0 min 0,000 mm 0,0 UV-I 0 W/m 3,0 C 3,1 C 3,2 km/h (1 Bft) 97,56 %
18.11.2016 02:30 3,0 C 99 % 1010,3 hPa 0,0 l/m 1,4 km/h (1 Bft) N-NW 348 0 min 0,000 mm 0,0 UV-I 0 W/m 2,9 C 3,0 C 3,2 km/h (1 Bft) 100,00 %
18.11.2016 02:32 3,0 C 99 % 1010,3 hPa 0,0 l/m 1,4 km/h (1 Bft) N-NW 348 0 min 0,000 mm 0,0 UV-I 0 W/m 2,9 C 3,0 C 3,2 km/h (1 Bft) 100,00 %
18.11.2016 02:34 3,0 C 99 % 1010,3 hPa 0,0 l/m 1,1 km/h (1 Bft) N-NW 348 0 min 0,000 mm 0,0 UV-I 0 W/m 2,9 C 3,0 C 3,2 km/h (1 Bft) 100,00 %
18.11.2016 02:36 3,0 C 99 % 1010,3 hPa 0,0 l/m 0,1 km/h (0 Bft) N-NW 348 0 min 0,000 mm 0,0 UV-I 0 W/m 2,9 C 3,0 C 1,6 km/h (1 Bft) 100,00 %
18.11.2016 02:38 3,0 C 99 % 1010,4 hPa 0,0 l/m 0,0 km/h (0 Bft) N-NW 348 0 min 0,000 mm 0,0 UV-I 0 W/m 2,9 C 3,0 C 0,0 km/h (0 Bft) 100,00 %
18.11.2016 02:40 3,0 C 99 % 1010,3 hPa 0,0 l/m 0,0 km/h (0 Bft) N-NW 348 0 min 0,000 mm 0,0 UV-I 0 W/m 2,9 C 3,0 C 0,0 km/h (0 Bft) 97,96 %
18.11.2016 02:42 3,0 C 99 % 1010,3 hPa 0,0 l/m 0,0 km/h (0 Bft) N-NW 348 0 min 0,000 mm 0,0 UV-I 0 W/m 2,9 C 3,0 C 0,0 km/h (0 Bft) 100,00 %
18.11.2016 02:44 3,0 C 99 % 1010,3 hPa 0,0 l/m 0,0 km/h (0 Bft) N-NW 348 0 min 0,000 mm 0,0 UV-I 0 W/m 2,9 C 3,0 C 0,0 km/h (0 Bft) 95,83 %
18.11.2016 02:46 3,0 C 99 % 1010,3 hPa 0,0 l/m 0,1 km/h (0 Bft) N-NW 348 0 min 0,000 mm 0,0 UV-I 0 W/m 2,9 C 3,0 C 1,6 km/h (1 Bft) 98,00 %
18.11.2016 02:48 3,0 C 99 % 1010,3 hPa 0,0 l/m 0,2 km/h (0 Bft) N-NW 348 0 min 0,000 mm 0,0 UV-I 0 W/m 2,9 C 3,0 C 1,6 km/h (1 Bft) 97,87 %
18.11.2016 02:50 3,0 C 99 % 1010,3 hPa 0,0 l/m 0,0 km/h (0 Bft) N-NW 348 0 min 0,000 mm 0,0 UV-I 0 W/m 2,9 C 3,0 C 1,6 km/h (1 Bft) 97,87 %
18.11.2016 02:52 3,0 C 99 % 1010,3 hPa 0,0 l/m 0,0 km/h (0 Bft) N-NW 348 0 min 0,000 mm 0,0 UV-I 0 W/m 2,9 C 3,0 C 1,6 km/h (1 Bft) 95,12 %
18.11.2016 02:54 3,0 C 99 % 1010,3 hPa 0,0 l/m 0,0 km/h (0 Bft) N-NW 348 0 min 0,000 mm 0,0 UV-I 0 W/m 2,9 C 3,0 C 0,0 km/h (0 Bft) 98,00 %
18.11.2016 02:56 2,9 C 99 % 1010,3 hPa 0,0 l/m 0,0 km/h (0 Bft) N-NW 348 0 min 0,000 mm 0,0 UV-I 0 W/m 2,8 C 2,9 C 0,0 km/h (0 Bft) 97,87 %
18.11.2016 02:58 2,9 C 99 % 1010,3 hPa 0,0 l/m 0,0 km/h (0 Bft) N-NW 348 0 min 0,000 mm 0,0 UV-I 0 W/m 2,8 C 2,9 C 0,0 km/h (0 Bft) 97,37 %
18.11.2016 03:00 2,9 C 99 % 1010,3 hPa 0,0 l/m 0,0 km/h (0 Bft) N-NW 348 0 min 0,000 mm 0,0 UV-I 0 W/m 2,8 C 2,9 C 0,0 km/h (0 Bft) 98,00 %
18.11.2016 03:02 2,9 C 99 % 1010,3 hPa 0,0 l/m 0,0 km/h (0 Bft) N-NW 348 0 min 0,000 mm 0,0 UV-I 0 W/m 2,8 C 2,9 C 0,0 km/h (0 Bft) 95,74 %
18.11.2016 03:04 2,9 C 99 % 1010,3 hPa 0,0 l/m 0,0 km/h (0 Bft) N-NW 348 0 min 0,000 mm 0,0 UV-I 0 W/m 2,8 C 2,9 C 0,0 km/h (0 Bft) 97,92 %
18.11.2016 03:06 2,9 C 99 % 1010,3 hPa 0,0 l/m 0,0 km/h (0 Bft) N-NW 348 0 min 0,000 mm 0,0 UV-I 0 W/m 2,8 C 2,9 C 0,0 km/h (0 Bft) 97,87 %
18.11.2016 03:08 2,9 C 99 % 1010,3 hPa 0,0 l/m 0,0 km/h (0 Bft) N-NW 348 0 min 0,000 mm 0,0 UV-I 0 W/m 2,8 C 2,9 C 0,0 km/h (0 Bft) 96,00 %
18.11.2016 03:10 2,9 C 99 % 1010,3 hPa 0,0 l/m 1,2 km/h (1 Bft) N-NW 348 0 min 0,000 mm 0,0 UV-I 0 W/m 2,8 C 2,9 C 3,2 km/h (1 Bft) 97,87 %
18.11.2016 03:12 2,9 C 99 % 1010,3 hPa 0,0 l/m 1,7 km/h (1 Bft) N-NW 348 0 min 0,000 mm 0,0 UV-I 0 W/m 2,8 C 2,9 C 3,2 km/h (1 Bft) 98,00 %
18.11.2016 03:14 2,9 C 99 % 1010,3 hPa 0,0 l/m 0,6 km/h (0 Bft) N-NW 348 0 min 0,000 mm 0,0 UV-I 0 W/m 2,8 C 2,9 C 3,2 km/h (1 Bft) 97,37 %
18.11.2016 03:16 3,0 C 99 % 1010,3 hPa 0,0 l/m 1,6 km/h (1 Bft) N-NW 348 0 min 0,000 mm 0,0 UV-I 0 W/m 2,9 C 3,0 C 3,2 km/h (1 Bft) 97,87 %
18.11.2016 03:18 3,0 C 99 % 1010,3 hPa 0,0 l/m 2,6 km/h (1 Bft) N-NW 346 0 min 0,000 mm 0,0 UV-I 0 W/m 2,9 C 3,0 C 3,2 km/h (1 Bft) 97,87 %
18.11.2016 03:20 3,0 C 99 % 1010,3 hPa 0,0 l/m 2,9 km/h (1 Bft) N-NW 346 0 min 0,000 mm 0,0 UV-I 0 W/m 2,9 C 3,0 C 4,8 km/h (1 Bft) 100,00 %
18.11.2016 03:22 2,9 C 99 % 1010,2 hPa 0,0 l/m 4,3 km/h (1 Bft) W-NW 283 0 min 0,000 mm 0,0 UV-I 0 W/m 2,8 C 2,9 C 6,4 km/h (2 Bft) 97,87 %
18.11.2016 03:24 3,0 C 99 % 1010,2 hPa 0,0 l/m 2,8 km/h (1 Bft) W-NW 283 0 min 0,000 mm 0,0 UV-I 0 W/m 2,9 C 3,0 C 4,8 km/h (1 Bft) 100,00 %
18.11.2016 03:26 2,9 C 99 % 1010,1 hPa 0,0 l/m 3,1 km/h (1 Bft) W-NW 283 0 min 0,000 mm 0,0 UV-I 0 W/m 2,8 C 2,9 C 4,8 km/h (1 Bft) 100,00 %
18.11.2016 03:28 2,9 C 99 % 1010,2 hPa 0,0 l/m 3,0 km/h (1 Bft) W-NW 283 0 min 0,000 mm 0,0 UV-I 0 W/m 2,8 C 2,9 C 4,8 km/h (1 Bft) 100,00 %
18.11.2016 03:30 2,9 C 99 % 1010,2 hPa 0,0 l/m 2,6 km/h (1 Bft) W-NW 283 0 min 0,000 mm 0,0 UV-I 0 W/m 2,8 C 2,9 C 4,8 km/h (1 Bft) 98,11 %
18.11.2016 03:32 2,8 C 99 % 1010,2 hPa 0,0 l/m 1,8 km/h (1 Bft) W-NW 283 0 min 0,000 mm 0,0 UV-I 0 W/m 2,7 C 2,8 C 3,2 km/h (1 Bft) 97,87 %
18.11.2016 03:34 2,8 C 99 % 1010,2 hPa 0,0 l/m 2,8 km/h (1 Bft) W-NW 282 0 min 0,000 mm 0,0 UV-I 0 W/m 2,7 C 2,8 C 4,8 km/h (1 Bft) 97,56 %
18.11.2016 03:36 2,8 C 99 % 1010,2 hPa 0,0 l/m 3,4 km/h (1 Bft) W 279 0 min 0,000 mm 0,0 UV-I 0 W/m 2,7 C 2,8 C 4,8 km/h (1 Bft) 100,00 %
18.11.2016 03:38 2,8 C 99 % 1010,2 hPa 0,0 l/m 4,6 km/h (1 Bft) S-SW 205 0 min 0,000 mm 0,0 UV-I 0 W/m 2,7 C 2,8 C 6,4 km/h (2 Bft) 100,00 %
18.11.2016 03:40 2,8 C 99 % 1010,2 hPa 0,0 l/m 2,6 km/h (1 Bft) S-SW 208 0 min 0,000 mm 0,0 UV-I 0 W/m 2,7 C 2,8 C 4,8 km/h (1 Bft) 97,87 %
18.11.2016 03:42 2,8 C 99 % 1010,2 hPa 0,2 l/m 2,9 km/h (1 Bft) S-SW 210 0 min 0,000 mm 0,0 UV-I 0 W/m 2,7 C 2,8 C 4,8 km/h (1 Bft) 100,00 %
18.11.2016 03:44 2,8 C 99 % 1010,2 hPa 0,0 l/m 3,0 km/h (1 Bft) SW 223 0 min 0,000 mm 0,0 UV-I 0 W/m 2,7 C 2,8 C 4,8 km/h (1 Bft) 100,00 %
18.11.2016 03:46 2,8 C 99 % 1010,2 hPa 0,0 l/m 3,3 km/h (1 Bft) SW 224 0 min 0,000 mm 0,0 UV-I 0 W/m 2,7 C 2,8 C 4,8 km/h (1 Bft) 100,00 %
18.11.2016 03:48 2,8 C 99 % 1010,2 hPa 0,0 l/m 1,9 km/h (1 Bft) SW 224 0 min 0,000 mm 0,0 UV-I 0 W/m 2,7 C 2,8 C 3,2 km/h (1 Bft) 100,00 %
18.11.2016 03:50 2,8 C 99 % 1010,2 hPa 0,0 l/m 4,3 km/h (1 Bft) SW 221 0 min 0,000 mm 0,0 UV-I 0 W/m 2,7 C 2,8 C 6,4 km/h (2 Bft) 100,00 %
18.11.2016 03:52 2,8 C 99 % 1010,2 hPa 0,0 l/m 2,9 km/h (1 Bft) SW 219 0 min 0,000 mm 0,0 UV-I 0 W/m 2,7 C 2,8 C 6,4 km/h (2 Bft) 100,00 %
18.11.2016 03:54 2,8 C 99 % 1010,2 hPa 0,0 l/m 2,6 km/h (1 Bft) SW 219 0 min 0,000 mm 0,0 UV-I 0 W/m 2,7 C 2,8 C 4,8 km/h (1 Bft) 100,00 %
18.11.2016 03:56 2,8 C 99 % 1010,2 hPa 0,0 l/m 3,0 km/h (1 Bft) SW 219 0 min 0,000 mm 0,0 UV-I 0 W/m 2,7 C 2,8 C 4,8 km/h (1 Bft) 100,00 %
18.11.2016 03:58 2,8 C 99 % 1010,2 hPa 0,0 l/m 3,8 km/h (1 Bft) SW 219 0 min 0,000 mm 0,0 UV-I 0 W/m 2,7 C 2,8 C 6,4 km/h (2 Bft) 97,73 %
18.11.2016 04:00 2,8 C 99 % 1010,2 hPa 0,0 l/m 3,1 km/h (1 Bft) SW 219 0 min 0,000 mm 0,0 UV-I 0 W/m 2,7 C 2,8 C 4,8 km/h (1 Bft) 100,00 %
18.11.2016 04:02 2,8 C 99 % 1010,1 hPa 0,0 l/m 1,5 km/h (1 Bft) SW 219 0 min 0,000 mm 0,0 UV-I 0 W/m 2,7 C 2,8 C 3,2 km/h (1 Bft) 100,00 %
18.11.2016 04:04 2,8 C 99 % 1010,1 hPa 0,0 l/m 2,6 km/h (1 Bft) SW 219 0 min 0,000 mm 0,0 UV-I 0 W/m 2,7 C 2,8 C 4,8 km/h (1 Bft) 100,00 %
18.11.2016 04:06 2,8 C 99 % 1010,1 hPa 0,0 l/m 2,7 km/h (1 Bft) SW 219 0 min 0,000 mm 0,0 UV-I 0 W/m 2,7 C 2,8 C 4,8 km/h (1 Bft) 100,00 %
18.11.2016 04:08 2,8 C 99 % 1010,2 hPa 0,0 l/m 0,6 km/h (0 Bft) SW 219 0 min 0,000 mm 0,0 UV-I 0 W/m 2,7 C 2,8 C 3,2 km/h (1 Bft) 98,00 %
18.11.2016 04:10 2,8 C 99 % 1010,2 hPa 0,0 l/m 1,9 km/h (1 Bft) SW 219 0 min 0,000 mm 0,0 UV-I 0 W/m 2,7 C 2,8 C 4,8 km/h (1 Bft) 100,00 %
18.11.2016 04:12 2,8 C 99 % 1010,2 hPa 0,0 l/m 1,6 km/h (1 Bft) SW 215 0 min 0,000 mm 0,0 UV-I 0 W/m 2,7 C 2,8 C 3,2 km/h (1 Bft) 100,00 %
18.11.2016 04:14 2,8 C 99 % 1010,2 hPa 0,0 l/m 1,5 km/h (1 Bft) SW 215 0 min 0,000 mm 0,0 UV-I 0 W/m 2,7 C 2,8 C 3,2 km/h (1 Bft) 100,00 %
18.11.2016 04:16 2,8 C 99 % 1010,1 hPa 0,0 l/m 1,1 km/h (1 Bft) SW 215 0 min 0,000 mm 0,0 UV-I 0 W/m 2,7 C 2,8 C 3,2 km/h (1 Bft) 94,74 %
18.11.2016 04:18 2,8 C 99 % 1010,1 hPa 0,0 l/m 2,0 km/h (1 Bft) SW 215 0 min 0,000 mm 0,0 UV-I 0 W/m 2,7 C 2,8 C 3,2 km/h (1 Bft) 100,00 %
18.11.2016 04:20 2,8 C 99 % 1010,1 hPa 0,0 l/m 2,4 km/h (1 Bft) SW 215 0 min 0,000 mm 0,0 UV-I 0 W/m 2,7 C 2,8 C 4,8 km/h (1 Bft) 100,00 %
18.11.2016 04:22 2,8 C 99 % 1010,1 hPa 0,0 l/m 4,6 km/h (1 Bft) SW 215 0 min 0,000 mm 0,0 UV-I 0 W/m 2,7 C 2,8 C 6,4 km/h (2 Bft) 100,00 %
18.11.2016 04:24 2,8 C 99 % 1010,1 hPa 0,0 l/m 4,5 km/h (1 Bft) S-SW 212 0 min 0,000 mm 0,0 UV-I 0 W/m 2,7 C 2,8 C 6,4 km/h (2 Bft) 100,00 %
18.11.2016 04:26 2,8 C 99 % 1010,1 hPa 0,0 l/m 0,9 km/h (0 Bft) S-SW 212 0 min 0,000 mm 0,0 UV-I 0 W/m 2,7 C 2,8 C 3,2 km/h (1 Bft) 98,00 %
18.11.2016 04:28 2,8 C 99 % 1010,2 hPa 0,0 l/m 0,2 km/h (0 Bft) S-SW 212 0 min 0,000 mm 0,0 UV-I 0 W/m 2,7 C 2,8 C 1,6 km/h (1 Bft) 100,00 %
18.11.2016 04:30 2,8 C 99 % 1010,2 hPa 0,0 l/m 0,1 km/h (0 Bft) S-SW 212 0 min 0,000 mm 0,0 UV-I 0 W/m 2,7 C 2,8 C 1,6 km/h (1 Bft) 100,00 %
18.11.2016 04:32 2,8 C 99 % 1010,2 hPa 0,0 l/m 0,1 km/h (0 Bft) S-SW 212 0 min 0,000 mm 0,0 UV-I 0 W/m 2,7 C 2,8 C 1,6 km/h (1 Bft) 100,00 %
18.11.2016 04:34 2,8 C 99 % 1010,2 hPa 0,0 l/m 0,0 km/h (0 Bft) S-SW 212 0 min 0,000 mm 0,0 UV-I 0 W/m 2,7 C 2,8 C 0,0 km/h (0 Bft) 98,00 %
18.11.2016 04:36 2,8 C 99 % 1010,2 hPa 0,0 l/m 0,0 km/h (0 Bft) S-SW 212 0 min 0,000 mm 0,0 UV-I 0 W/m 2,7 C 2,8 C 0,0 km/h (0 Bft) 100,00 %
18.11.2016 04:38 2,8 C 99 % 1010,1 hPa 0,0 l/m 0,6 km/h (0 Bft) S-SW 212 0 min 0,000 mm 0,0 UV-I 0 W/m 2,7 C 2,8 C 3,2 km/h (1 Bft) 100,00 %
18.11.2016 04:40 2,8 C 99 % 1010,1 hPa 0,0 l/m 1,3 km/h (1 Bft) S-SW 212 0 min 0,000 mm 0,0 UV-I 0 W/m 2,7 C 2,8 C 3,2 km/h (1 Bft) 100,00 %
18.11.2016 04:42 2,8 C 99 % 1010,3 hPa 0,0 l/m 1,8 km/h (1 Bft) S-SW 212 0 min 0,000 mm 0,0 UV-I 0 W/m 2,7 C 2,8 C 4,8 km/h (1 Bft) 100,00 %
18.11.2016 04:44 2,8 C 99 % 1010,2 hPa 0,0 l/m 3,7 km/h (1 Bft) S-SW 212 0 min 0,000 mm 0,0 UV-I 0 W/m 2,7 C 2,8 C 4,8 km/h (1 Bft) 100,00 %
18.11.2016 04:46 2,8 C 99 % 1010,3 hPa 0,0 l/m 3,1 km/h (1 Bft) S-SW 212 0 min 0,000 mm 0,0 UV-I 0 W/m 2,7 C 2,8 C 4,8 km/h (1 Bft) 100,00 %
18.11.2016 04:48 2,9 C 99 % 1010,3 hPa 0,0 l/m 2,4 km/h (1 Bft) S-SW 212 0 min 0,000 mm 0,0 UV-I 0 W/m 2,8 C 2,9 C 4,8 km/h (1 Bft) 97,87 %
18.11.2016 04:50 2,9 C 99 % 1010,4 hPa 0,0 l/m 2,4 km/h (1 Bft) S-SW 212 0 min 0,000 mm 0,0 UV-I 0 W/m 2,8 C 2,9 C 4,8 km/h (1 Bft) 97,14 %
18.11.2016 04:52 2,9 C 99 % 1010,3 hPa 0,0 l/m 3,0 km/h (1 Bft) S-SW 211 0 min 0,000 mm 0,0 UV-I 0 W/m 2,8 C 2,9 C 6,4 km/h (2 Bft) 96,43 %
18.11.2016 04:54 2,9 C 99 % 1010,4 hPa 0,0 l/m 3,2 km/h (1 Bft) S-SW 204 0 min 0,000 mm 0,0 UV-I 0 W/m 2,8 C 2,9 C 6,4 km/h (2 Bft) 95,74 %
18.11.2016 04:56 2,9 C 99 % 1010,5 hPa 0,0 l/m 2,5 km/h (1 Bft) S-SW 203 0 min 0,000 mm 0,0 UV-I 0 W/m 2,8 C 2,9 C 6,4 km/h (2 Bft) 97,87 %
18.11.2016 04:58 2,9 C 99 % 1010,5 hPa 0,0 l/m 1,3 km/h (1 Bft) S-SW 203 0 min 0,000 mm 0,0 UV-I 0 W/m 2,8 C 2,9 C 3,2 km/h (1 Bft) 95,12 %
18.11.2016 05:00 2,9 C 99 % 1010,5 hPa 0,0 l/m 1,8 km/h (1 Bft) S-SW 200 0 min 0,000 mm 0,0 UV-I 0 W/m 2,8 C 2,9 C 4,8 km/h (1 Bft) 94,34 %
18.11.2016 05:02 2,9 C 99 % 1010,5 hPa 0,0 l/m 1,8 km/h (1 Bft) S-SW 200 0 min 0,000 mm 0,0 UV-I 0 W/m 2,8 C 2,9 C 3,2 km/h (1 Bft) 100,00 %
18.11.2016 05:04 2,9 C 99 % 1010,5 hPa 0,0 l/m 2,2 km/h (1 Bft) S-SW 197 0 min 0,000 mm 0,0 UV-I 0 W/m 2,8 C 2,9 C 4,8 km/h (1 Bft) 92,45 %
18.11.2016 05:06 2,8 C 99 % 1010,5 hPa 0,0 l/m 1,5 km/h (1 Bft) S-SW 197 0 min 0,000 mm 0,0 UV-I 0 W/m 2,7 C 2,8 C 3,2 km/h (1 Bft) 94,74 %
18.11.2016 05:08 2,8 C 99 % 1010,4 hPa 0,0 l/m 2,7 km/h (1 Bft) S-SW 197 0 min 0,000 mm 0,0 UV-I 0 W/m 2,7 C 2,8 C 3,2 km/h (1 Bft) 98,00 %
18.11.2016 05:10 2,8 C 99 % 1010,4 hPa 0,0 l/m 1,9 km/h (1 Bft) S-SW 197 0 min 0,000 mm 0,0 UV-I 0 W/m 2,7 C 2,8 C 3,2 km/h (1 Bft) 97,87 %
18.11.2016 05:12 2,8 C 99 % 1010,4 hPa 0,0 l/m 1,5 km/h (1 Bft) S-SW 197 0 min 0,000 mm 0,0 UV-I 0 W/m 2,7 C 2,8 C 3,2 km/h (1 Bft) 98,00 %
18.11.2016 05:14 2,8 C 99 % 1010,5 hPa 0,0 l/m 2,5 km/h (1 Bft) S-SW 197 0 min 0,000 mm 0,0 UV-I 0 W/m 2,7 C 2,8 C 4,8 km/h (1 Bft) 95,12 %
18.11.2016 05:16 2,8 C 99 % 1010,5 hPa 0,0 l/m 3,2 km/h (1 Bft) S-SW 197 0 min 0,000 mm 0,0 UV-I 0 W/m 2,7 C 2,8 C 4,8 km/h (1 Bft) 98,00 %
18.11.2016 05:18 2,8 C 99 % 1010,5 hPa 0,0 l/m 2,9 km/h (1 Bft) S-SW 197 0 min 0,000 mm 0,0 UV-I 0 W/m 2,7 C 2,8 C 4,8 km/h (1 Bft) 97,62 %
18.11.2016 05:20 2,8 C 99 % 1010,6 hPa 0,0 l/m 1,0 km/h (0 Bft) S-SW 197 0 min 0,000 mm 0,0 UV-I 0 W/m 2,7 C 2,8 C 3,2 km/h (1 Bft) 96,23 %
18.11.2016 05:22 2,8 C 99 % 1010,5 hPa 0,0 l/m 0,5 km/h (0 Bft) S-SW 197 0 min 0,000 mm 0,0 UV-I 0 W/m 2,7 C 2,8 C 1,6 km/h (1 Bft) 97,87 %
18.11.2016 05:24 2,8 C 99 % 1010,4 hPa 0,0 l/m 1,3 km/h (1 Bft) S-SW 197 0 min 0,000 mm 0,0 UV-I 0 W/m 2,7 C 2,8 C 3,2 km/h (1 Bft) 100,00 %
18.11.2016 05:26 2,7 C 99 % 1010,5 hPa 0,0 l/m 1,4 km/h (1 Bft) S-SW 197 0 min 0,000 mm 0,0 UV-I 0 W/m 2,6 C 2,7 C 3,2 km/h (1 Bft) 100,00 %
18.11.2016 05:28 2,7 C 99 % 1010,4 hPa 0,0 l/m 0,9 km/h (0 Bft) S-SW 197 0 min 0,000 mm 0,0 UV-I 0 W/m 2,6 C 2,7 C 1,6 km/h (1 Bft) 98,00 %
18.11.2016 05:30 2,6 C 99 % 1010,5 hPa 0,0 l/m 2,1 km/h (1 Bft) S-SW 197 0 min 0,000 mm 0,0 UV-I 0 W/m 2,5 C 2,6 C 4,8 km/h (1 Bft) 100,00 %
18.11.2016 05:32 2,6 C 99 % 1010,5 hPa 0,0 l/m 2,9 km/h (1 Bft) S-SW 197 0 min 0,000 mm 0,0 UV-I 0 W/m 2,5 C 2,6 C 4,8 km/h (1 Bft) 97,37 %
18.11.2016 05:34 2,6 C 99 % 1010,5 hPa 0,0 l/m 2,1 km/h (1 Bft) S-SW 197 0 min 0,000 mm 0,0 UV-I 0 W/m 2,5 C 2,6 C 4,8 km/h (1 Bft) 100,00 %
18.11.2016 05:36 2,6 C 99 % 1010,5 hPa 0,0 l/m 0,2 km/h (0 Bft) S-SW 197 0 min 0,000 mm 0,0 UV-I 0 W/m 2,5 C 2,6 C 1,6 km/h (1 Bft) 100,00 %
18.11.2016 05:38 2,6 C 99 % 1010,5 hPa 0,0 l/m 0,2 km/h (0 Bft) S-SW 197 0 min 0,000 mm 0,0 UV-I 0 W/m 2,5 C 2,6 C 1,6 km/h (1 Bft) 100,00 %
18.11.2016 05:40 2,6 C 99 % 1010,4 hPa 0,0 l/m 0,7 km/h (0 Bft) S-SW 197 0 min 0,000 mm 0,0 UV-I 0 W/m 2,5 C 2,6 C 3,2 km/h (1 Bft) 100,00 %
18.11.2016 05:42 2,6 C 99 % 1010,4 hPa 0,0 l/m 0,6 km/h (0 Bft) S-SW 197 0 min 0,000 mm 0,0 UV-I 0 W/m 2,5 C 2,6 C 3,2 km/h (1 Bft) 98,15 %
18.11.2016 05:44 2,5 C 99 % 1010,4 hPa 0,0 l/m 1,6 km/h (1 Bft) S-SW 196 0 min 0,000 mm 0,0 UV-I 0 W/m 2,4 C 2,5 C 3,2 km/h (1 Bft) 100,00 %
18.11.2016 05:46 2,4 C 99 % 1010,4 hPa 0,0 l/m 4,8 km/h (1 Bft) S-SO 152 0 min 0,000 mm 0,0 UV-I 0 W/m 2,3 C 2,4 C 8,0 km/h (2 Bft) 97,56 %
18.11.2016 05:48 2,4 C 99 % 1010,4 hPa 0,0 l/m 4,4 km/h (1 Bft) S-SO 150 0 min 0,000 mm 0,0 UV-I 0 W/m 2,3 C 2,4 C 6,4 km/h (2 Bft) 98,00 %
18.11.2016 05:50 2,4 C 99 % 1010,4 hPa 0,0 l/m 2,7 km/h (1 Bft) SO 146 0 min 0,000 mm 0,0 UV-I 0 W/m 2,3 C 2,4 C 6,4 km/h (2 Bft) 100,00 %
18.11.2016 05:52 2,3 C 99 % 1010,4 hPa 0,0 l/m 1,8 km/h (1 Bft) SO 146 0 min 0,000 mm 0,0 UV-I 0 W/m 2,2 C 2,3 C 3,2 km/h (1 Bft) 100,00 %
18.11.2016 05:54 2,3 C 99 % 1010,4 hPa 0,0 l/m 1,7 km/h (1 Bft) SO 146 0 min 0,000 mm 0,0 UV-I 0 W/m 2,2 C 2,3 C 3,2 km/h (1 Bft) 98,00 %
18.11.2016 05:56 2,3 C 99 % 1010,4 hPa 0,0 l/m 3,1 km/h (1 Bft) SO 146 0 min 0,000 mm 0,0 UV-I 0 W/m 2,2 C 2,3 C 4,8 km/h (1 Bft) 100,00 %
18.11.2016 05:58 2,2 C 99 % 1010,3 hPa 0,0 l/m 3,8 km/h (1 Bft) SO 146 0 min 0,000 mm 0,0 UV-I 0 W/m 2,1 C 2,2 C 4,8 km/h (1 Bft) 100,00 %
18.11.2016 06:00 2,2 C 99 % 1010,3 hPa 0,0 l/m 2,8 km/h (1 Bft) SO 146 0 min 0,000 mm 0,0 UV-I 0 W/m 2,1 C 2,2 C 4,8 km/h (1 Bft) 100,00 %
18.11.2016 06:02 2,2 C 99 % 1010,3 hPa 0,0 l/m 3,3 km/h (1 Bft) SO 146 0 min 0,000 mm 0,0 UV-I 0 W/m 2,1 C 2,2 C 4,8 km/h (1 Bft) 100,00 %
18.11.2016 06:04 2,2 C 99 % 1010,3 hPa 0,0 l/m 3,2 km/h (1 Bft) SO 145 0 min 0,000 mm 0,0 UV-I 0 W/m 2,1 C 2,2 C 6,4 km/h (2 Bft) 100,00 %
18.11.2016 06:06 2,2 C 99 % 1010,3 hPa 0,0 l/m 0,8 km/h (0 Bft) SO 145 0 min 0,000 mm 0,0 UV-I 0 W/m 2,1 C 2,2 C 3,2 km/h (1 Bft) 97,87 %
18.11.2016 06:08 2,1 C 99 % 1010,3 hPa 0,0 l/m 1,2 km/h (1 Bft) SO 145 0 min 0,000 mm 0,0 UV-I 0 W/m 2,0 C 2,1 C 3,2 km/h (1 Bft) 100,00 %
18.11.2016 06:10 2,0 C 99 % 1010,2 hPa 0,0 l/m 2,9 km/h (1 Bft) SO 144 0 min 0,000 mm 0,0 UV-I 0 W/m 1,9 C 2,0 C 4,8 km/h (1 Bft) 100,00 %
18.11.2016 06:12 2,0 C 99 % 1010,2 hPa 0,0 l/m 3,0 km/h (1 Bft) SO 144 0 min 0,000 mm 0,0 UV-I 0 W/m 1,9 C 2,0 C 4,8 km/h (1 Bft) 98,00 %
18.11.2016 06:14 2,0 C 99 % 1010,2 hPa 0,0 l/m 1,9 km/h (1 Bft) SO 144 0 min 0,000 mm 0,0 UV-I 0 W/m 1,9 C 2,0 C 4,8 km/h (1 Bft) 100,00 %
18.11.2016 06:16 1,9 C 99 % 1010,3 hPa 0,0 l/m 1,2 km/h (1 Bft) SO 144 0 min 0,000 mm 0,0 UV-I 0 W/m 1,8 C 1,9 C 3,2 km/h (1 Bft) 100,00 %
18.11.2016 06:18 1,9 C 99 % 1010,3 hPa 0,0 l/m 3,8 km/h (1 Bft) SO 133 0 min 0,000 mm 0,0 UV-I 0 W/m 1,8 C 1,9 C 4,8 km/h (1 Bft) 100,00 %
18.11.2016 06:20 1,9 C 99 % 1010,3 hPa 0,0 l/m 2,5 km/h (1 Bft) SO 133 0 min 0,000 mm 0,0 UV-I 0 W/m 1,8 C 1,9 C 4,8 km/h (1 Bft) 100,00 %
18.11.2016 06:22 1,9 C 99 % 1010,3 hPa 0,0 l/m 4,1 km/h (1 Bft) O 84 0 min 0,000 mm 0,0 UV-I 0 W/m 1,8 C 1,9 C 6,4 km/h (2 Bft) 100,00 %
18.11.2016 06:24 1,9 C 99 % 1010,3 hPa 0,0 l/m 3,2 km/h (1 Bft) O 85 0 min 0,000 mm 0,0 UV-I 0 W/m 1,8 C 1,9 C 6,4 km/h (2 Bft) 97,87 %
18.11.2016 06:26 1,9 C 99 % 1010,3 hPa 0,0 l/m 1,6 km/h (1 Bft) O 85 0 min 0,000 mm 0,0 UV-I 0 W/m 1,8 C 1,9 C 4,8 km/h (1 Bft) 97,87 %
18.11.2016 06:28 1,9 C 99 % 1010,3 hPa 0,0 l/m 0,5 km/h (0 Bft) O 85 0 min 0,000 mm 0,0 UV-I 0 W/m 1,8 C 1,9 C 1,6 km/h (1 Bft) 100,00 %
18.11.2016 06:30 1,9 C 99 % 1010,2 hPa 0,0 l/m 0,7 km/h (0 Bft) O 85 0 min 0,000 mm 0,0 UV-I 0 W/m 1,8 C 1,9 C 3,2 km/h (1 Bft) 100,00 %
18.11.2016 06:32 1,9 C 99 % 1010,2 hPa 0,0 l/m 3,1 km/h (1 Bft) O-NO 62 0 min 0,000 mm 0,0 UV-I 0 W/m 1,8 C 1,9 C 6,4 km/h (2 Bft) 98,00 %
18.11.2016 06:34 1,9 C 99 % 1010,3 hPa 0,0 l/m 5,2 km/h (1 Bft) O 81 0 min 0,000 mm 0,0 UV-I 0 W/m 1,8 C 1,9 C 8,0 km/h (2 Bft) 100,00 %
18.11.2016 06:36 2,0 C 99 % 1010,3 hPa 0,0 l/m 6,4 km/h (2 Bft) O-NO 72 0 min 0,000 mm 0,0 UV-I 0 W/m 1,9 C 2,0 C 11,3 km/h (2 Bft) 100,00 %
18.11.2016 06:38 2,0 C 99 % 1010,3 hPa 0,0 l/m 4,2 km/h (1 Bft) O-NO 65 0 min 0,000 mm 0,0 UV-I 0 W/m 1,9 C 2,0 C 6,4 km/h (2 Bft) 100,00 %
18.11.2016 06:40 2,1 C 99 % 1010,3 hPa 0,0 l/m 5,7 km/h (1 Bft) O-NO 68 0 min 0,000 mm 0,0 UV-I 0 W/m 2,0 C 2,1 C 8,0 km/h (2 Bft) 100,00 %
18.11.2016 06:42 2,1 C 99 % 1010,3 hPa 0,0 l/m 7,0 km/h (2 Bft) O-NO 76 0 min 0,000 mm 0,0 UV-I 0 W/m 2,0 C 1,5 C 11,3 km/h (2 Bft) 100,00 %
18.11.2016 06:44 2,1 C 99 % 1010,3 hPa 0,0 l/m 7,8 km/h (2 Bft) O-NO 64 0 min 0,000 mm 0,0 UV-I 0 W/m 2,0 C 0,7 C 11,3 km/h (2 Bft) 100,00 %
18.11.2016 06:46 2,1 C 99 % 1010,3 hPa 0,0 l/m 10,5 km/h (2 Bft) O-NO 70 0 min 0,000 mm 0,0 UV-I 0 W/m 2,0 C -1,5 C 16,1 km/h (3 Bft) 100,00 %
18.11.2016 06:48 2,2 C 99 % 1010,2 hPa 0,0 l/m 9,7 km/h (2 Bft) NO 51 0 min 0,000 mm 0,0 UV-I 0 W/m 2,1 C -0,8 C 14,5 km/h (3 Bft) 100,00 %
18.11.2016 06:50 2,2 C 99 % 1010,3 hPa 0,0 l/m 10,0 km/h (2 Bft) NO 55 0 min 0,000 mm 0,0 UV-I 0 W/m 2,1 C -1,0 C 14,5 km/h (3 Bft) 92,45 %
18.11.2016 06:52 2,2 C 99 % 1010,2 hPa 0,0 l/m 7,6 km/h (2 Bft) NO 53 0 min 0,000 mm 0,0 UV-I 0 W/m 2,1 C 1,0 C 11,3 km/h (2 Bft) 97,37 %
18.11.2016 06:54 2,3 C 99 % 1010,3 hPa 0,0 l/m 9,8 km/h (2 Bft) N-NO 33 0 min 0,000 mm 0,0 UV-I 0 W/m 2,2 C -0,8 C 14,5 km/h (3 Bft) 96,43 %
18.11.2016 06:56 2,3 C 99 % 1010,3 hPa 0,0 l/m 9,0 km/h (2 Bft) N 11 0 min 0,000 mm 0,0 UV-I 0 W/m 2,2 C -0,1 C 14,5 km/h (3 Bft) 97,56 %
18.11.2016 06:58 2,3 C 99 % 1010,3 hPa 0,0 l/m 7,9 km/h (2 Bft) NO 40 0 min 0,000 mm 0,0 UV-I 0 W/m 2,2 C 0,9 C 14,5 km/h (3 Bft) 98,00 %
18.11.2016 07:00 2,3 C 99 % 1010,3 hPa 0,0 l/m 9,4 km/h (2 Bft) NO 49 0 min 0,000 mm 0,0 UV-I 0 W/m 2,2 C -0,4 C 12,9 km/h (3 Bft) 94,74 %
18.11.2016 07:02 2,3 C 99 % 1010,2 hPa 0,0 l/m 10,2 km/h (2 Bft) NO 39 0 min 0,000 mm 0,0 UV-I 0 W/m 2,2 C -1,1 C 16,1 km/h (3 Bft) 97,56 %
18.11.2016 07:04 2,4 C 99 % 1010,2 hPa 0,0 l/m 8,5 km/h (2 Bft) NO 46 0 min 0,000 mm 0,0 UV-I 0 W/m 2,3 C 0,4 C 12,9 km/h (3 Bft) 98,15 %
18.11.2016 07:06 2,4 C 99 % 1010,2 hPa 0,0 l/m 9,4 km/h (2 Bft) O-NO 61 0 min 0,000 mm 0,0 UV-I 5 W/m 2,3 C -0,3 C 12,9 km/h (3 Bft) 96,00 %
18.11.2016 07:08 2,4 C 99 % 1010,2 hPa 0,0 l/m 10,1 km/h (2 Bft) NO 55 0 min 0,000 mm 0,0 UV-I 5 W/m 2,3 C -0,9 C 14,5 km/h (3 Bft) 98,00 %
18.11.2016 07:10 2,4 C 99 % 1010,3 hPa 0,0 l/m 9,9 km/h (2 Bft) NO 49 0 min 0,000 mm 0,0 UV-I 5 W/m 2,3 C -0,7 C 14,5 km/h (3 Bft) 97,56 %
18.11.2016 07:12 2,4 C 99 % 1010,3 hPa 0,0 l/m 10,1 km/h (2 Bft) O-NO 59 0 min 0,000 mm 0,0 UV-I 5 W/m 2,3 C -0,9 C 14,5 km/h (3 Bft) 98,11 %
18.11.2016 07:14 2,4 C 99 % 1010,3 hPa 0,0 l/m 6,5 km/h (2 Bft) O-NO 61 0 min 0,000 mm 0,0 UV-I 5 W/m 2,3 C 2,3 C 8,0 km/h (2 Bft) 97,56 %
18.11.2016 07:16 2,4 C 99 % 1010,3 hPa 0,0 l/m 6,8 km/h (2 Bft) NO 35 0 min 0,000 mm 0,0 UV-I 5 W/m 2,3 C 2,0 C 9,7 km/h (2 Bft) 97,62 %
18.11.2016 07:18 2,5 C 99 % 1010,2 hPa 0,0 l/m 10,1 km/h (2 Bft) O-NO 63 0 min 0,000 mm 0,0 UV-I 6 W/m 2,4 C -0,8 C 14,5 km/h (3 Bft) 94,55 %
18.11.2016 07:20 2,5 C 99 % 1010,2 hPa 0,0 l/m 8,5 km/h (2 Bft) O-NO 63 0 min 0,000 mm 0,0 UV-I 7 W/m 2,4 C 0,5 C 14,5 km/h (3 Bft) 95,74 %
18.11.2016 07:22 2,5 C 99 % 1010,1 hPa 0,0 l/m 8,7 km/h (2 Bft) O-NO 63 0 min 0,000 mm 0,0 UV-I 7 W/m 2,4 C 0,4 C 14,5 km/h (3 Bft) 95,83 %
18.11.2016 07:24 2,6 C 99 % 1010,2 hPa 0,0 l/m 9,0 km/h (2 Bft) NO 53 0 min 0,000 mm 0,0 UV-I 9 W/m 2,5 C 0,2 C 12,9 km/h (3 Bft) 97,37 %
18.11.2016 07:26 2,6 C 99 % 1010,2 hPa 0,0 l/m 8,4 km/h (2 Bft) O-NO 63 0 min 0,000 mm 0,0 UV-I 9 W/m 2,5 C 0,7 C 16,1 km/h (3 Bft) 96,43 %
18.11.2016 07:28 2,7 C 99 % 1010,2 hPa 0,0 l/m 7,3 km/h (2 Bft) O-NO 64 0 min 0,000 mm 0,0 UV-I 9 W/m 2,6 C 1,8 C 9,7 km/h (2 Bft) 100,00 %
18.11.2016 07:30 2,7 C 99 % 1010,2 hPa 0,0 l/m 9,3 km/h (2 Bft) O-NO 65 0 min 0,000 mm 0,0 UV-I 9 W/m 2,6 C 0,1 C 14,5 km/h (3 Bft) 100,00 %
18.11.2016 07:32 2,8 C 99 % 1010,1 hPa 0,0 l/m 10,6 km/h (2 Bft) NO 44 0 min 0,000 mm 0,0 UV-I 9 W/m 2,7 C -0,8 C 16,1 km/h (3 Bft) 100,00 %
18.11.2016 07:34 2,8 C 99 % 1010,2 hPa 0,0 l/m 8,4 km/h (2 Bft) O-NO 63 0 min 0,000 mm 0,0 UV-I 9 W/m 2,7 C 0,9 C 9,7 km/h (2 Bft) 97,87 %
18.11.2016 07:36 2,8 C 99 % 1010,2 hPa 0,0 l/m 10,2 km/h (2 Bft) NO 53 0 min 0,000 mm 0,0 UV-I 10 W/m 2,7 C -0,5 C 14,5 km/h (3 Bft) 100,00 %
18.11.2016 07:38 2,9 C 99 % 1010,2 hPa 0,0 l/m 11,6 km/h (2 Bft) NO 46 0 min 0,000 mm 0,0 UV-I 11 W/m 2,8 C -1,4 C 16,1 km/h (3 Bft) 100,00 %
18.11.2016 07:40 3,0 C 99 % 1010,3 hPa 0,0 l/m 8,3 km/h (2 Bft) O-NO 65 0 min 0,000 mm 0,0 UV-I 12 W/m 2,9 C 1,2 C 16,1 km/h (3 Bft) 100,00 %
18.11.2016 07:42 3,1 C 99 % 1010,3 hPa 0,0 l/m 9,0 km/h (2 Bft) O-NO 61 0 min 0,000 mm 0,0 UV-I 13 W/m 3,0 C 0,8 C 14,5 km/h (3 Bft) 100,00 %
18.11.2016 07:44 3,1 C 99 % 1010,3 hPa 0,0 l/m 11,5 km/h (2 Bft) NO 51 0 min 0,000 mm 0,0 UV-I 15 W/m 3,0 C -1,1 C 17,7 km/h (3 Bft) 100,00 %
18.11.2016 07:46 3,1 C 99 % 1010,2 hPa 0,0 l/m 12,3 km/h (3 Bft) NO 49 0 min 0,000 mm 0,0 UV-I 14 W/m 3,0 C -1,6 C 17,7 km/h (3 Bft) 100,00 %
18.11.2016 07:48 3,2 C 99 % 1010,2 hPa 0,0 l/m 13,1 km/h (3 Bft) NO 50 0 min 0,000 mm 0,0 UV-I 14 W/m 3,1 C -2,0 C 17,7 km/h (3 Bft) 100,00 %
18.11.2016 07:50 3,2 C 99 % 1010,2 hPa 0,0 l/m 10,9 km/h (2 Bft) NO 47 0 min 0,000 mm 0,0 UV-I 13 W/m 3,1 C -0,6 C 17,7 km/h (3 Bft) 100,00 %
18.11.2016 07:52 3,2 C 99 % 1010,2 hPa 0,0 l/m 11,8 km/h (2 Bft) O 94 0 min 0,000 mm 0,0 UV-I 15 W/m 3,1 C -1,2 C 16,1 km/h (3 Bft) 100,00 %
18.11.2016 07:54 3,3 C 99 % 1010,2 hPa 0,0 l/m 9,0 km/h (2 Bft) O-NO 68 0 min 0,000 mm 0,0 UV-I 14 W/m 3,2 C 1,0 C 12,9 km/h (3 Bft) 100,00 %
18.11.2016 07:56 3,3 C 99 % 1010,2 hPa 0,0 l/m 11,2 km/h (2 Bft) O-NO 76 0 min 0,000 mm 0,0 UV-I 15 W/m 3,2 C -0,7 C 16,1 km/h (3 Bft) 100,00 %
18.11.2016 07:58 3,3 C 99 % 1010,1 hPa 0,0 l/m 12,3 km/h (3 Bft) NO 49 0 min 0,000 mm 0,0 UV-I 16 W/m 3,2 C -1,4 C 16,1 km/h (3 Bft) 98,11 %
18.11.2016 08:00 3,3 C 99 % 1010,1 hPa 0,0 l/m 15,1 km/h (3 Bft) O-NO 65 0 min 0,000 mm 0,0 UV-I 18 W/m 3,2 C -3,0 C 19,3 km/h (3 Bft) 97,73 %
18.11.2016 08:02 3,4 C 99 % 1010,0 hPa 0,0 l/m 15,2 km/h (3 Bft) O-NO 71 0 min 0,000 mm 0,0 UV-I 17 W/m 3,3 C -3,0 C 19,3 km/h (3 Bft) 100,00 %
18.11.2016 08:04 3,4 C 99 % 1010,0 hPa 0,0 l/m 15,3 km/h (3 Bft) NO 56 0 min 0,000 mm 0,0 UV-I 21 W/m 3,3 C -3,0 C 19,3 km/h (3 Bft) 100,00 %
18.11.2016 08:06 3,4 C 99 % 1009,9 hPa 0,0 l/m 14,0 km/h (3 Bft) O 80 0 min 0,000 mm 0,0 UV-I 28 W/m 3,3 C -2,3 C 17,7 km/h (3 Bft) 100,00 %
18.11.2016 08:08 3,4 C 99 % 1009,7 hPa 0,0 l/m 19,3 km/h (3 Bft) O-NO 71 0 min 0,000 mm 0,0 UV-I 29 W/m 3,3 C -4,9 C 29,0 km/h (5 Bft) 100,00 %
18.11.2016 08:10 3,5 C 99 % 1009,7 hPa 0,0 l/m 18,8 km/h (3 Bft) O 81 0 min 0,000 mm 0,0 UV-I 33 W/m 3,4 C -4,6 C 25,7 km/h (4 Bft) 97,56 %
18.11.2016 08:12 3,6 C 99 % 1009,6 hPa 0,0 l/m 19,4 km/h (3 Bft) O-NO 71 0 min 0,000 mm 0,0 UV-I 27 W/m 3,5 C -4,7 C 25,7 km/h (4 Bft) 95,12 %
18.11.2016 08:14 3,6 C 99 % 1009,5 hPa 0,0 l/m 20,3 km/h (4 Bft) O-NO 69 0 min 0,000 mm 0,0 UV-I 25 W/m 3,5 C -5,1 C 25,7 km/h (4 Bft) 100,00 %
18.11.2016 08:16 3,6 C 99 % 1009,6 hPa 0,0 l/m 19,9 km/h (4 Bft) O-NO 71 0 min 0,000 mm 0,0 UV-I 22 W/m 3,5 C -4,9 C 27,4 km/h (4 Bft) 100,00 %
18.11.2016 08:18 3,6 C 99 % 1009,6 hPa 0,0 l/m 22,0 km/h (4 Bft) O-NO 71 0 min 0,000 mm 0,0 UV-I 22 W/m 3,5 C -5,8 C 33,8 km/h (5 Bft) 100,00 %
18.11.2016 08:20 3,6 C 99 % 1009,6 hPa 0,0 l/m 18,8 km/h (3 Bft) O-NO 71 0 min 0,000 mm 0,0 UV-I 22 W/m 3,5 C -4,5 C 24,1 km/h (4 Bft) 94,29 %
18.11.2016 08:22 3,6 C 99 % 1009,5 hPa 0,0 l/m 15,3 km/h (3 Bft) O 87 0 min 0,000 mm 0,0 UV-I 26 W/m 3,5 C -2,8 C 22,5 km/h (4 Bft) 100,00 %
18.11.2016 08:24 3,7 C 99 % 1009,6 hPa 0,0 l/m 16,6 km/h (3 Bft) O 89 0 min 0,000 mm 0,0 UV-I 27 W/m 3,6 C -3,3 C 22,5 km/h (4 Bft) 100,00 %
18.11.2016 08:26 3,7 C 99 % 1009,6 hPa 0,0 l/m 15,4 km/h (3 Bft) O-NO 65 0 min 0,000 mm 0,0 UV-I 31 W/m 3,6 C -2,7 C 22,5 km/h (4 Bft) 100,00 %
18.11.2016 08:28 3,7 C 99 % 1009,5 hPa 0,0 l/m 18,2 km/h (3 Bft) O-NO 78 0 min 0,000 mm 0,0 UV-I 35 W/m 3,6 C -4,1 C 24,1 km/h (4 Bft) 100,00 %
18.11.2016 08:30 3,7 C 99 % 1009,5 hPa 0,0 l/m 15,5 km/h (3 Bft) O 79 0 min 0,000 mm 0,0 UV-I 40 W/m 3,6 C -2,8 C 22,5 km/h (4 Bft) 100,00 %
18.11.2016 08:32 3,7 C 99 % 1009,6 hPa 0,0 l/m 14,6 km/h (3 Bft) O-NO 67 0 min 0,000 mm 0,0 UV-I 38 W/m 3,6 C -2,3 C 24,1 km/h (4 Bft) 100,00 %
18.11.2016 08:34 3,7 C 99 % 1009,5 hPa 0,0 l/m 19,1 km/h (3 Bft) O-NO 63 0 min 0,000 mm 0,0 UV-I 36 W/m 3,6 C -4,5 C 24,1 km/h (4 Bft) 100,00 %
18.11.2016 08:36 3,7 C 99 % 1009,6 hPa 0,0 l/m 16,3 km/h (3 Bft) O-NO 70 0 min 0,000 mm 0,0 UV-I 36 W/m 3,6 C -3,2 C 24,1 km/h (4 Bft) 100,00 %
18.11.2016 08:38 3,7 C 99 % 1009,6 hPa 0,0 l/m 17,4 km/h (3 Bft) O-NO 73 0 min 0,000 mm 0,0 UV-I 36 W/m 3,6 C -3,7 C 22,5 km/h (4 Bft) 98,18 %
18.11.2016 08:40 3,7 C 99 % 1009,5 hPa 0,0 l/m 16,7 km/h (3 Bft) O-NO 74 0 min 0,000 mm 0,0 UV-I 41 W/m 3,6 C -3,4 C 22,5 km/h (4 Bft) 100,00 %
18.11.2016 08:42 3,7 C 99 % 1009,4 hPa 0,0 l/m 18,2 km/h (3 Bft) O-NO 77 0 min 0,000 mm 0,0 UV-I 45 W/m 3,6 C -4,1 C 27,4 km/h (4 Bft) 100,00 %
18.11.2016 08:44 3,7 C 99 % 1009,4 hPa 0,0 l/m 18,3 km/h (3 Bft) O-NO 57 0 min 0,000 mm 0,0 UV-I 46 W/m 3,6 C -4,1 C 24,1 km/h (4 Bft) 100,00 %
18.11.2016 08:46 3,7 C 99 % 1009,4 hPa 0,0 l/m 18,2 km/h (3 Bft) O 82 0 min 0,000 mm 0,0 UV-I 44 W/m 3,6 C -4,1 C 25,7 km/h (4 Bft) 100,00 %
18.11.2016 08:48 3,7 C 99 % 1009,4 hPa 0,0 l/m 19,3 km/h (3 Bft) O 86 0 min 0,000 mm 0,0 UV-I 42 W/m 3,6 C -4,6 C 25,7 km/h (4 Bft) 98,00 %
18.11.2016 08:50 3,7 C 99 % 1009,3 hPa 0,0 l/m 19,1 km/h (3 Bft) O-NO 66 0 min 0,000 mm 0,0 UV-I 39 W/m 3,6 C -4,5 C 25,7 km/h (4 Bft) 100,00 %
18.11.2016 08:52 3,7 C 99 % 1009,3 hPa 0,0 l/m 15,3 km/h (3 Bft) O 84 0 min 0,000 mm 0,0 UV-I 45 W/m 3,6 C -2,7 C 22,5 km/h (4 Bft) 98,31 %
18.11.2016 08:54 3,7 C 99 % 1009,3 hPa 0,0 l/m 14,8 km/h (3 Bft) NO 49 0 min 0,000 mm 0,0 UV-I 46 W/m 3,6 C -2,4 C 19,3 km/h (3 Bft) 97,37 %
18.11.2016 08:56 3,7 C 99 % 1009,2 hPa 0,0 l/m 19,2 km/h (3 Bft) NO 56 0 min 0,000 mm 0,0 UV-I 45 W/m 3,6 C -4,5 C 25,7 km/h (4 Bft) 97,56 %
18.11.2016 08:58 3,7 C 99 % 1009,1 hPa 0,0 l/m 20,8 km/h (4 Bft) O-NO 60 0 min 0,000 mm 0,0 UV-I 44 W/m 3,6 C -5,2 C 27,4 km/h (4 Bft) 94,00 %
18.11.2016 09:00 3,7 C 99 % 1009,1 hPa 0,0 l/m 18,5 km/h (3 Bft) O-NO 67 0 min 0,025 mm 0,0 UV-I 43 W/m 3,6 C -4,2 C 27,4 km/h (4 Bft) 95,45 %
18.11.2016 09:03 3,7 C 99 % 1009,0 hPa 0,0 l/m 20,0 km/h (4 Bft) O-NO 59 0 min 0,000 mm 0,0 UV-I 51 W/m 3,6 C -4,9 C 25,7 km/h (4 Bft) 97,59 %
18.11.2016 09:04 3,7 C 99 % 1009,0 hPa 0,0 l/m 15,6 km/h (3 Bft) O-NO 71 0 min 0,000 mm 0,0 UV-I 53 W/m 3,6 C -2,8 C 19,3 km/h (3 Bft) 91,30 %
18.11.2016 09:06 3,7 C 99 % 1008,9 hPa 0,0 l/m 22,5 km/h (4 Bft) O-NO 76 0 min 0,000 mm 0,0 UV-I 50 W/m 3,6 C -5,8 C 30,6 km/h (5 Bft) 97,73 %
18.11.2016 09:08 3,6 C 99 % 1009,0 hPa 0,0 l/m 16,3 km/h (3 Bft) O-NO 68 0 min 0,000 mm 0,0 UV-I 59 W/m 3,5 C -3,3 C 27,4 km/h (4 Bft) 97,44 %
18.11.2016 09:10 3,7 C 99 % 1008,9 hPa 0,0 l/m 19,4 km/h (3 Bft) NO 47 0 min 0,000 mm 0,0 UV-I 62 W/m 3,6 C -4,6 C 27,4 km/h (4 Bft) 96,55 %
18.11.2016 09:12 3,7 C 99 % 1009,0 hPa 0,0 l/m 14,5 km/h (3 Bft) O-NO 71 0 min 0,000 mm 0,0 UV-I 61 W/m 3,6 C -2,2 C 19,3 km/h (3 Bft) 97,62 %
18.11.2016 09:14 3,7 C 99 % 1009,0 hPa 0,0 l/m 18,1 km/h (3 Bft) NO 53 0 min 0,000 mm 0,0 UV-I 57 W/m 3,6 C -4,0 C 22,5 km/h (4 Bft) 97,56 %
18.11.2016 09:16 3,7 C 99 % 1009,1 hPa 0,0 l/m 17,7 km/h (3 Bft) O-NO 65 0 min 0,000 mm 0,0 UV-I 59 W/m 3,6 C -3,8 C 24,1 km/h (4 Bft) 96,61 %
18.11.2016 09:18 3,7 C 99 % 1009,1 hPa 0,0 l/m 16,5 km/h (3 Bft) O-NO 73 0 min 0,000 mm 0,0 UV-I 58 W/m 3,6 C -3,3 C 24,1 km/h (4 Bft) 97,37 %
18.11.2016 09:20 3,6 C 99 % 1009,1 hPa 0,0 l/m 14,8 km/h (3 Bft) O-NO 68 0 min 0,000 mm 0,0 UV-I 58 W/m 3,5 C -2,5 C 20,9 km/h (4 Bft) 95,12 %
18.11.2016 09:23 3,6 C 99 % 1009,1 hPa 0,0 l/m 13,8 km/h (3 Bft) NO 49 0 min 0,000 mm 0,0 UV-I 69 W/m 3,5 C -2,0 C 20,9 km/h (4 Bft) 97,47 %
18.11.2016 09:24 3,6 C 99 % 1009,1 hPa 0,0 l/m 14,9 km/h (3 Bft) O 81 0 min 0,000 mm 0,0 UV-I 75 W/m 3,5 C -2,6 C 22,5 km/h (4 Bft) 92,59 %
18.11.2016 09:26 3,6 C 99 % 1009,0 hPa 0,0 l/m 18,0 km/h (3 Bft) NO 53 0 min 0,000 mm 0,0 UV-I 73 W/m 3,5 C -4,1 C 20,9 km/h (4 Bft) 97,56 %
18.11.2016 09:28 3,6 C 99 % 1009,0 hPa 0,0 l/m 18,2 km/h (3 Bft) NO 48 0 min 0,000 mm 0,0 UV-I 77 W/m 3,5 C -4,2 C 22,5 km/h (4 Bft) 100,00 %
18.11.2016 09:30 3,6 C 99 % 1009,0 hPa 0,0 l/m 18,2 km/h (3 Bft) O-NO 58 0 min 0,000 mm 0,0 UV-I 81 W/m 3,5 C -4,2 C 22,5 km/h (4 Bft) 98,11 %
18.11.2016 09:32 3,7 C 99 % 1009,1 hPa 0,0 l/m 13,9 km/h (3 Bft) O-NO 69 0 min 0,000 mm 0,0 UV-I 93 W/m 3,6 C -1,9 C 19,3 km/h (3 Bft) 97,87 %
18.11.2016 09:34 3,7 C 99 % 1009,1 hPa 0,0 l/m 11,7 km/h (2 Bft) O-NO 59 0 min 0,000 mm 0,0 UV-I 99 W/m 3,6 C -0,5 C 17,7 km/h (3 Bft) 100,00 %
18.11.2016 09:36 3,8 C 99 % 1009,1 hPa 0,0 l/m 14,2 km/h (3 Bft) NO 55 0 min 0,000 mm 0,0 UV-I 90 W/m 3,7 C -1,9 C 24,1 km/h (4 Bft) 100,00 %
18.11.2016 09:38 3,8 C 99 % 1009,0 hPa 0,0 l/m 19,8 km/h (3 Bft) O-NO 57 0 min 0,000 mm 0,0 UV-I 85 W/m 3,7 C -4,6 C 24,1 km/h (4 Bft) 97,87 %
18.11.2016 09:40 3,8 C 99 % 1008,8 hPa 0,0 l/m 15,7 km/h (3 Bft) O-NO 57 0 min 0,000 mm 0,0 UV-I 98 W/m 3,7 C -2,7 C 20,9 km/h (4 Bft) 100,00 %
18.11.2016 09:42 3,8 C 99 % 1008,6 hPa 0,0 l/m 15,8 km/h (3 Bft) O-NO 63 0 min 0,000 mm 0,0 UV-I 98 W/m 3,7 C -2,8 C 22,5 km/h (4 Bft) 100,00 %
18.11.2016 09:44 3,8 C 99 % 1008,6 hPa 0,0 l/m 14,6 km/h (3 Bft) O-NO 66 0 min 0,000 mm 0,0 UV-I 83 W/m 3,7 C -2,2 C 20,9 km/h (4 Bft) 100,00 %
18.11.2016 09:46 3,8 C 99 % 1008,6 hPa 0,0 l/m 18,9 km/h (3 Bft) N-NO 28 0 min 0,000 mm 0,0 UV-I 77 W/m 3,7 C -4,3 C 24,1 km/h (4 Bft) 100,00 %
18.11.2016 09:48 3,8 C 99 % 1008,6 hPa 0,0 l/m 18,1 km/h (3 Bft) O-NO 67 0 min 0,000 mm 0,0 UV-I 91 W/m 3,7 C -3,9 C 24,1 km/h (4 Bft) 100,00 %
18.11.2016 09:50 3,8 C 99 % 1008,6 hPa 0,0 l/m 16,8 km/h (3 Bft) O-NO 63 0 min 0,000 mm 0,0 UV-I 88 W/m 3,7 C -3,3 C 22,5 km/h (4 Bft) 98,00 %
18.11.2016 09:52 3,8 C 99 % 1008,6 hPa 0,0 l/m 18,2 km/h (3 Bft) NO 38 0 min 0,000 mm 0,0 UV-I 88 W/m 3,7 C -3,9 C 25,7 km/h (4 Bft) 100,00 %
18.11.2016 09:54 3,8 C 99 % 1008,6 hPa 0,0 l/m 14,6 km/h (3 Bft) O-NO 73 0 min 0,000 mm 0,0 UV-I 97 W/m 3,7 C -2,2 C 19,3 km/h (3 Bft) 100,00 %
18.11.2016 09:56 3,8 C 99 % 1008,7 hPa 0,0 l/m 17,0 km/h (3 Bft) O-NO 67 0 min 0,000 mm 0,0 UV-I 88 W/m 3,7 C -3,4 C 22,5 km/h (4 Bft) 97,73 %
18.11.2016 09:58 3,9 C 99 % 1008,7 hPa 0,0 l/m 15,3 km/h (3 Bft) O-NO 70 0 min 0,000 mm 0,0 UV-I 82 W/m 3,8 C -2,4 C 19,3 km/h (3 Bft) 100,00 %
18.11.2016 10:00 3,9 C 99 % 1008,7 hPa 0,0 l/m 14,6 km/h (3 Bft) NO 53 0 min 0,000 mm 0,0 UV-I 98 W/m 3,8 C -2,0 C 19,3 km/h (3 Bft) 100,00 %
18.11.2016 10:02 3,9 C 99 % 1008,7 hPa 0,0 l/m 11,5 km/h (2 Bft) O-NO 63 0 min 0,026 mm 0,0 UV-I 108 W/m 3,8 C -0,2 C 16,1 km/h (3 Bft) 100,00 %
18.11.2016 10:04 4,0 C 99 % 1008,7 hPa 0,0 l/m 11,8 km/h (2 Bft) NO 51 0 min 0,000 mm 0,0 UV-I 101 W/m 3,9 C -0,3 C 19,3 km/h (3 Bft) 100,00 %
18.11.2016 10:06 4,1 C 99 % 1008,6 hPa 0,0 l/m 13,8 km/h (3 Bft) NO 40 0 min 0,000 mm 0,0 UV-I 108 W/m 4,0 C -1,4 C 20,9 km/h (4 Bft) 100,00 %
18.11.2016 10:08 4,1 C 99 % 1008,7 hPa 0,0 l/m 15,1 km/h (3 Bft) O-NO 59 0 min 0,000 mm 0,0 UV-I 113 W/m 4,0 C -2,1 C 20,9 km/h (4 Bft) 100,00 %
18.11.2016 10:10 4,0 C 99 % 1008,6 hPa 0,0 l/m 16,5 km/h (3 Bft) O 82 0 min 0,000 mm 0,0 UV-I 94 W/m 3,9 C -2,9 C 22,5 km/h (4 Bft) 100,00 %
18.11.2016 10:12 4,0 C 99 % 1008,7 hPa 0,0 l/m 13,3 km/h (3 Bft) O-NO 59 0 min 0,000 mm 0,0 UV-I 87 W/m 3,9 C -1,2 C 19,3 km/h (3 Bft) 98,21 %
18.11.2016 10:14 4,0 C 99 % 1008,7 hPa 0,0 l/m 9,6 km/h (2 Bft) O-NO 69 0 min 0,000 mm 0,0 UV-I 83 W/m 3,9 C 1,3 C 14,5 km/h (3 Bft) 100,00 %
18.11.2016 10:16 4,1 C 99 % 1008,7 hPa 0,0 l/m 9,8 km/h (2 Bft) N 11 0 min 0,000 mm 0,0 UV-I 90 W/m 4,0 C 1,2 C 14,5 km/h (3 Bft) 100,00 %
18.11.2016 10:18 4,1 C 99 % 1008,7 hPa 0,0 l/m 9,9 km/h (2 Bft) NO 54 0 min 0,000 mm 0,0 UV-I 87 W/m 4,0 C 1,2 C 16,1 km/h (3 Bft) 100,00 %
18.11.2016 10:20 4,2 C 99 % 1008,7 hPa 0,0 l/m 12,3 km/h (3 Bft) NO 34 0 min 0,000 mm 0,0 UV-I 80 W/m 4,1 C -0,4 C 19,3 km/h (3 Bft) 98,00 %
18.11.2016 10:22 4,2 C 99 % 1008,7 hPa 0,0 l/m 10,4 km/h (2 Bft) NO 53 0 min 0,000 mm 0,0 UV-I 81 W/m 4,1 C 0,9 C 17,7 km/h (3 Bft) 100,00 %
18.11.2016 10:24 4,1 C 99 % 1008,7 hPa 0,0 l/m 11,7 km/h (2 Bft) NO 56 0 min 0,000 mm 0,0 UV-I 81 W/m 4,0 C -0,1 C 20,9 km/h (4 Bft) 100,00 %
18.11.2016 10:26 4,1 C 99 % 1008,6 hPa 0,0 l/m 14,6 km/h (3 Bft) O-NO 69 0 min 0,000 mm 0,0 UV-I 74 W/m 4,0 C -1,8 C 19,3 km/h (3 Bft) 100,00 %
18.11.2016 10:28 4,1 C 99 % 1008,6 hPa 0,0 l/m 13,9 km/h (3 Bft) O-NO 60 0 min 0,000 mm 0,0 UV-I 78 W/m 4,0 C -1,4 C 17,7 km/h (3 Bft) 100,00 %
18.11.2016 10:30 4,0 C 99 % 1008,6 hPa 0,0 l/m 13,1 km/h (3 Bft) O-NO 73 0 min 0,000 mm 0,0 UV-I 85 W/m 3,9 C -1,1 C 17,7 km/h (3 Bft) 100,00 %
18.11.2016 10:32 4,0 C 99 % 1008,5 hPa 0,0 l/m 13,7 km/h (3 Bft) O-NO 59 0 min 0,000 mm 0,0 UV-I 86 W/m 3,9 C -1,4 C 19,3 km/h (3 Bft) 100,00 %
18.11.2016 10:34 4,1 C 99 % 1008,5 hPa 0,0 l/m 11,4 km/h (2 Bft) O-NO 68 0 min 0,000 mm 0,0 UV-I 86 W/m 4,0 C 0,1 C 17,7 km/h (3 Bft) 100,00 %
18.11.2016 10:36 4,1 C 99 % 1008,5 hPa 0,0 l/m 14,9 km/h (3 Bft) O-NO 75 0 min 0,000 mm 0,0 UV-I 96 W/m 4,0 C -2,0 C 19,3 km/h (3 Bft) 100,00 %
18.11.2016 10:39 4,1 C 99 % 1008,4 hPa 0,0 l/m 11,4 km/h (2 Bft) O-NO 61 0 min 0,000 mm 0,0 UV-I 110 W/m 4,0 C 0,1 C 16,1 km/h (3 Bft) 100,00 %
18.11.2016 10:40 4,1 C 99 % 1008,4 hPa 0,0 l/m 9,9 km/h (2 Bft) NO 38 0 min 0,000 mm 0,0 UV-I 99 W/m 4,0 C 1,2 C 14,5 km/h (3 Bft) 100,00 %
18.11.2016 10:42 4,2 C 99 % 1008,3 hPa 0,0 l/m 10,6 km/h (2 Bft) N-NO 26 0 min 0,000 mm 0,0 UV-I 89 W/m 4,1 C 0,8 C 16,1 km/h (3 Bft) 100,00 %
18.11.2016 10:44 4,2 C 99 % 1008,3 hPa 0,0 l/m 17,8 km/h (3 Bft) NO 42 0 min 0,000 mm 0,0 UV-I 81 W/m 4,1 C -3,3 C 24,1 km/h (4 Bft) 97,06 %
18.11.2016 10:46 4,2 C 99 % 1008,3 hPa 0,0 l/m 12,5 km/h (3 Bft) NO 49 0 min 0,000 mm 0,0 UV-I 81 W/m 4,1 C -0,5 C 20,9 km/h (4 Bft) 100,00 %
18.11.2016 10:48 4,1 C 99 % 1008,3 hPa 0,0 l/m 14,2 km/h (3 Bft) NO 45 0 min 0,000 mm 0,0 UV-I 85 W/m 4,0 C -1,6 C 17,7 km/h (3 Bft) 100,00 %
18.11.2016 10:50 4,2 C 99 % 1008,3 hPa 0,0 l/m 12,2 km/h (2 Bft) O 82 0 min 0,000 mm 0,0 UV-I 88 W/m 4,1 C -0,3 C 19,3 km/h (3 Bft) 97,73 %
18.11.2016 10:52 4,2 C 99 % 1008,2 hPa 0,0 l/m 12,1 km/h (2 Bft) O-NO 57 0 min 0,000 mm 0,0 UV-I 85 W/m 4,1 C -0,2 C 17,7 km/h (3 Bft) 98,00 %
18.11.2016 10:54 4,2 C 99 % 1008,2 hPa 0,0 l/m 12,8 km/h (3 Bft) NO 50 0 min 0,000 mm 0,0 UV-I 91 W/m 4,1 C -0,7 C 19,3 km/h (3 Bft) 100,00 %
18.11.2016 10:56 4,2 C 99 % 1008,2 hPa 0,0 l/m 12,4 km/h (3 Bft) O-NO 78 0 min 0,000 mm 0,0 UV-I 81 W/m 4,1 C -0,4 C 17,7 km/h (3 Bft) 97,56 %
18.11.2016 10:58 4,2 C 99 % 1008,2 hPa 0,0 l/m 11,0 km/h (2 Bft) O-NO 61 0 min 0,000 mm 0,0 UV-I 92 W/m 4,1 C 0,5 C 17,7 km/h (3 Bft) 96,00 %
18.11.2016 11:00 4,2 C 99 % 1008,2 hPa 0,0 l/m 9,4 km/h (2 Bft) NO 36 0 min 0,000 mm 0,0 UV-I 100 W/m 4,1 C 1,6 C 17,7 km/h (3 Bft) 97,44 %
18.11.2016 11:02 4,2 C 99 % 1008,3 hPa 0,0 l/m 11,9 km/h (2 Bft) NO 55 0 min 0,025 mm 0,0 UV-I 95 W/m 4,1 C -0,1 C 16,1 km/h (3 Bft) 98,28 %
18.11.2016 11:04 4,2 C 99 % 1008,3 hPa 0,0 l/m 13,8 km/h (3 Bft) NO 42 0 min 0,000 mm 0,0 UV-I 91 W/m 4,1 C -1,2 C 19,3 km/h (3 Bft) 94,87 %
18.11.2016 11:06 4,2 C 99 % 1008,3 hPa 0,0 l/m 12,6 km/h (3 Bft) NO 52 0 min 0,000 mm 0,0 UV-I 89 W/m 4,1 C -0,5 C 19,3 km/h (3 Bft) 97,37 %
18.11.2016 11:08 4,2 C 99 % 1008,4 hPa 0,0 l/m 10,6 km/h (2 Bft) O-NO 58 0 min 0,000 mm 0,0 UV-I 111 W/m 4,1 C 0,8 C 16,1 km/h (3 Bft) 94,34 %
18.11.2016 11:10 4,2 C 99 % 1008,3 hPa 0,0 l/m 10,5 km/h (2 Bft) O 81 0 min 0,000 mm 0,0 UV-I 105 W/m 4,1 C 0,8 C 16,1 km/h (3 Bft) 96,43 %
18.11.2016 11:12 4,1 C 99 % 1008,3 hPa 0,0 l/m 11,2 km/h (2 Bft) O-NO 60 0 min 0,000 mm 0,0 UV-I 82 W/m 4,0 C 0,2 C 16,1 km/h (3 Bft) 94,74 %
18.11.2016 11:14 4,1 C 99 % 1008,3 hPa 0,0 l/m 13,0 km/h (3 Bft) NO 44 0 min 0,000 mm 0,0 UV-I 85 W/m 4,0 C -0,9 C 17,7 km/h (3 Bft) 98,21 %
18.11.2016 11:16 4,1 C 99 % 1008,2 hPa 0,0 l/m 12,1 km/h (2 Bft) NO 54 0 min 0,000 mm 0,0 UV-I 93 W/m 4,0 C -0,3 C 17,7 km/h (3 Bft) 91,43 %
18.11.2016 11:18 4,1 C 99 % 1008,2 hPa 0,0 l/m 12,1 km/h (2 Bft) N-NO 32 0 min 0,000 mm 0,0 UV-I 101 W/m 4,0 C -0,3 C 17,7 km/h (3 Bft) 98,11 %
18.11.2016 11:20 4,1 C 99 % 1008,2 hPa 0,0 l/m 11,1 km/h (2 Bft) NO 42 0 min 0,000 mm 0,0 UV-I 92 W/m 4,0 C 0,3 C 17,7 km/h (3 Bft) 98,11 %
18.11.2016 11:22 4,2 C 99 % 1008,1 hPa 0,0 l/m 10,1 km/h (2 Bft) N-NO 32 0 min 0,000 mm 0,0 UV-I 87 W/m 4,1 C 1,1 C 14,5 km/h (3 Bft) 95,45 %
18.11.2016 11:24 4,2 C 99 % 1008,1 hPa 0,0 l/m 11,6 km/h (2 Bft) NO 42 0 min 0,000 mm 0,0 UV-I 90 W/m 4,1 C 0,1 C 17,7 km/h (3 Bft) 100,00 %
18.11.2016 11:26 4,2 C 99 % 1008,1 hPa 0,0 l/m 13,8 km/h (3 Bft) NO 49 0 min 0,000 mm 0,0 UV-I 98 W/m 4,1 C -1,2 C 19,3 km/h (3 Bft) 94,34 %
18.11.2016 11:28 4,2 C 99 % 1008,0 hPa 0,0 l/m 13,8 km/h (3 Bft) NO 44 0 min 0,000 mm 0,0 UV-I 102 W/m 4,1 C -1,2 C 19,3 km/h (3 Bft) 98,00 %
18.11.2016 11:30 4,1 C 99 % 1008,0 hPa 0,0 l/m 11,5 km/h (2 Bft) NO 56 0 min 0,000 mm 0,0 UV-I 98 W/m 4,0 C 0,0 C 17,7 km/h (3 Bft) 97,14 %
18.11.2016 11:32 4,1 C 99 % 1007,9 hPa 0,0 l/m 10,8 km/h (2 Bft) O-NO 65 0 min 0,000 mm 0,0 UV-I 115 W/m 4,0 C 0,5 C 16,1 km/h (3 Bft) 98,04 %
18.11.2016 11:34 4,1 C 99 % 1007,9 hPa 0,0 l/m 10,8 km/h (2 Bft) O-NO 64 0 min 0,000 mm 0,0 UV-I 103 W/m 4,0 C 0,5 C 17,7 km/h (3 Bft) 100,00 %
18.11.2016 11:36 4,2 C 99 % 1007,9 hPa 0,0 l/m 10,5 km/h (2 Bft) O-NO 76 0 min 0,000 mm 0,0 UV-I 100 W/m 4,1 C 0,8 C 14,5 km/h (3 Bft) 97,62 %
18.11.2016 11:38 4,2 C 99 % 1007,8 hPa 0,0 l/m 11,4 km/h (2 Bft) O 79 0 min 0,000 mm 0,0 UV-I 108 W/m 4,1 C 0,2 C 16,1 km/h (3 Bft) 100,00 %
18.11.2016 11:40 4,2 C 99 % 1007,8 hPa 0,0 l/m 12,9 km/h (3 Bft) O 80 0 min 0,000 mm 0,0 UV-I 118 W/m 4,1 C -0,7 C 19,3 km/h (3 Bft) 100,00 %
18.11.2016 11:42 4,2 C 99 % 1007,9 hPa 0,0 l/m 11,0 km/h (2 Bft) O-NO 57 0 min 0,000 mm 0,0 UV-I 119 W/m 4,1 C 0,5 C 16,1 km/h (3 Bft) 100,00 %
18.11.2016 11:44 4,2 C 99 % 1007,8 hPa 0,0 l/m 13,0 km/h (3 Bft) O 87 0 min 0,000 mm 0,0 UV-I 107 W/m 4,1 C -0,8 C 17,7 km/h (3 Bft) 100,00 %
18.11.2016 11:46 4,2 C 99 % 1007,7 hPa 0,0 l/m 12,6 km/h (3 Bft) O-NO 63 0 min 0,000 mm 0,0 UV-I 114 W/m 4,1 C -0,5 C 17,7 km/h (3 Bft) 100,00 %
18.11.2016 11:48 4,2 C 99 % 1007,7 hPa 0,0 l/m 14,0 km/h (3 Bft) NO 54 0 min 0,000 mm 0,0 UV-I 122 W/m 4,1 C -1,4 C 17,7 km/h (3 Bft) 100,00 %
18.11.2016 11:50 4,2 C 99 % 1007,7 hPa 0,0 l/m 11,2 km/h (2 Bft) NO 42 0 min 0,000 mm 0,0 UV-I 115 W/m 4,1 C 0,4 C 17,7 km/h (3 Bft) 97,56 %
18.11.2016 11:52 4,2 C 99 % 1007,7 hPa 0,0 l/m 11,4 km/h (2 Bft) O-NO 69 0 min 0,000 mm 0,0 UV-I 107 W/m 4,1 C 0,2 C 14,5 km/h (3 Bft) 92,00 %
18.11.2016 11:54 4,2 C 99 % 1007,7 hPa 0,0 l/m 11,6 km/h (2 Bft) NO 56 0 min 0,000 mm 0,0 UV-I 98 W/m 4,1 C 0,1 C 17,7 km/h (3 Bft) 100,00 %
18.11.2016 11:56 4,2 C 99 % 1007,7 hPa 0,0 l/m 11,4 km/h (2 Bft) O-NO 59 0 min 0,000 mm 0,0 UV-I 94 W/m 4,1 C 0,2 C 16,1 km/h (3 Bft) 100,00 %
18.11.2016 11:58 4,2 C 99 % 1007,7 hPa 0,0 l/m 12,3 km/h (3 Bft) NO 36 0 min 0,000 mm 0,0 UV-I 98 W/m 4,1 C -0,4 C 16,1 km/h (3 Bft) 100,00 %
18.11.2016 12:00 4,2 C 99 % 1007,6 hPa 0,0 l/m 10,2 km/h (2 Bft) NO 46 0 min 0,000 mm 0,0 UV-I 96 W/m 4,1 C 1,0 C 16,1 km/h (3 Bft) 98,11 %
18.11.2016 12:02 4,3 C 99 % 1007,7 hPa 0,0 l/m 10,5 km/h (2 Bft) NO 44 0 min 0,051 mm 0,0 UV-I 98 W/m 4,2 C 0,9 C 16,1 km/h (3 Bft) 100,00 %
18.11.2016 12:04 4,3 C 99 % 1007,6 hPa 0,0 l/m 10,3 km/h (2 Bft) NO 37 0 min 0,000 mm 0,0 UV-I 103 W/m 4,2 C 1,1 C 14,5 km/h (3 Bft) 97,87 %
18.11.2016 12:06 4,3 C 99 % 1007,6 hPa 0,0 l/m 7,6 km/h (2 Bft) NO 37 0 min 0,000 mm 0,0 UV-I 97 W/m 4,2 C 3,2 C 14,5 km/h (3 Bft) 100,00 %
18.11.2016 12:08 4,4 C 99 % 1007,6 hPa 0,0 l/m 9,4 km/h (2 Bft) NO 47 0 min 0,000 mm 0,0 UV-I 95 W/m 4,3 C 1,9 C 14,5 km/h (3 Bft) 100,00 %
18.11.2016 12:10 4,4 C 99 % 1007,6 hPa 0,0 l/m 8,6 km/h (2 Bft) NO 42 0 min 0,000 mm 0,0 UV-I 92 W/m 4,3 C 2,5 C 14,5 km/h (3 Bft) 100,00 %
18.11.2016 12:12 4,4 C 99 % 1007,6 hPa 0,0 l/m 7,9 km/h (2 Bft) NO 40 0 min 0,000 mm 0,0 UV-I 90 W/m 4,3 C 3,1 C 14,5 km/h (3 Bft) 98,00 %
18.11.2016 12:14 4,5 C 99 % 1007,6 hPa 0,0 l/m 6,8 km/h (2 Bft) O-NO 61 0 min 0,000 mm 0,0 UV-I 97 W/m 4,4 C 4,2 C 9,7 km/h (2 Bft) 100,00 %
18.11.2016 12:16 4,4 C 99 % 1007,6 hPa 0,0 l/m 5,9 km/h (2 Bft) NO 48 0 min 0,000 mm 0,0 UV-I 97 W/m 4,3 C 4,4 C 14,5 km/h (3 Bft) 95,74 %
18.11.2016 12:18 4,4 C 99 % 1007,6 hPa 0,0 l/m 7,8 km/h (2 Bft) O-NO 74 0 min 0,000 mm 0,0 UV-I 92 W/m 4,3 C 3,1 C 12,9 km/h (3 Bft) 100,00 %
18.11.2016 12:20 4,4 C 99 % 1007,6 hPa 0,0 l/m 7,4 km/h (2 Bft) O-NO 71 0 min 0,000 mm 0,0 UV-I 91 W/m 4,3 C 3,5 C 12,9 km/h (3 Bft) 98,00 %
18.11.2016 12:22 4,4 C 99 % 1007,6 hPa 0,0 l/m 11,7 km/h (2 Bft) O-NO 64 0 min 0,000 mm 0,0 UV-I 97 W/m 4,3 C 0,3 C 16,1 km/h (3 Bft) 100,00 %
18.11.2016 12:24 4,3 C 99 % 1007,6 hPa 0,0 l/m 11,2 km/h (2 Bft) NO 51 0 min 0,000 mm 0,0 UV-I 99 W/m 4,2 C 0,5 C 16,1 km/h (3 Bft) 97,87 %
18.11.2016 12:26 4,3 C 99 % 1007,5 hPa 0,0 l/m 8,2 km/h (2 Bft) O-NO 71 0 min 0,000 mm 0,0 UV-I 98 W/m 4,2 C 2,7 C 12,9 km/h (3 Bft) 100,00 %
18.11.2016 12:28 4,3 C 99 % 1007,5 hPa 0,0 l/m 6,9 km/h (2 Bft) O-NO 64 0 min 0,000 mm 0,0 UV-I 97 W/m 4,2 C 3,9 C 11,3 km/h (2 Bft) 97,87 %
18.11.2016 12:30 4,4 C 99 % 1007,5 hPa 0,0 l/m 6,8 km/h (2 Bft) O-SO 102 0 min 0,000 mm 0,0 UV-I 105 W/m 4,3 C 4,1 C 12,9 km/h (3 Bft) 100,00 %
18.11.2016 12:32 4,4 C 99 % 1007,5 hPa 0,0 l/m 10,3 km/h (2 Bft) O-NO 71 0 min 0,000 mm 0,0 UV-I 101 W/m 4,3 C 1,2 C 16,1 km/h (3 Bft) 100,00 %
18.11.2016 12:34 4,5 C 99 % 1007,4 hPa 0,0 l/m 9,0 km/h (2 Bft) O-NO 76 0 min 0,000 mm 0,0 UV-I 98 W/m 4,4 C 2,3 C 16,1 km/h (3 Bft) 100,00 %
18.11.2016 12:36 4,6 C 99 % 1007,4 hPa 0,0 l/m 8,0 km/h (2 Bft) O-NO 78 0 min 0,000 mm 0,0 UV-I 103 W/m 4,5 C 3,2 C 12,9 km/h (3 Bft) 100,00 %
18.11.2016 12:38 4,6 C 99 % 1007,4 hPa 0,0 l/m 6,9 km/h (2 Bft) O-NO 68 0 min 0,000 mm 0,0 UV-I 99 W/m 4,5 C 4,2 C 11,3 km/h (2 Bft) 98,00 %
18.11.2016 12:40 4,6 C 99 % 1007,4 hPa 0,0 l/m 8,2 km/h (2 Bft) O 88 0 min 0,000 mm 0,0 UV-I 99 W/m 4,5 C 3,0 C 11,3 km/h (2 Bft) 100,00 %
18.11.2016 12:42 4,6 C 99 % 1007,4 hPa 0,0 l/m 6,2 km/h (2 Bft) O 86 0 min 0,000 mm 0,0 UV-I 101 W/m 4,5 C 4,6 C 11,3 km/h (2 Bft) 100,00 %
18.11.2016 12:44 4,6 C 99 % 1007,5 hPa 0,0 l/m 6,8 km/h (2 Bft) O 86 0 min 0,000 mm 0,0 UV-I 103 W/m 4,5 C 4,3 C 11,3 km/h (2 Bft) 96,23 %
18.11.2016 12:46 4,7 C 99 % 1007,5 hPa 0,0 l/m 3,6 km/h (1 Bft) O-NO 71 0 min 0,000 mm 0,0 UV-I 96 W/m 4,6 C 4,7 C 6,4 km/h (2 Bft) 100,00 %
18.11.2016 12:48 4,6 C 99 % 1007,5 hPa 0,0 l/m 2,3 km/h (1 Bft) O-SO 109 0 min 0,000 mm 0,0 UV-I 101 W/m 4,5 C 4,6 C 4,8 km/h (1 Bft) 100,00 %
18.11.2016 12:50 4,6 C 99 % 1007,5 hPa 0,0 l/m 3,1 km/h (1 Bft) O-SO 118 0 min 0,000 mm 0,0 UV-I 101 W/m 4,5 C 4,6 C 6,4 km/h (2 Bft) 100,00 %
18.11.2016 12:52 4,5 C 99 % 1007,5 hPa 0,0 l/m 1,0 km/h (0 Bft) O-SO 118 0 min 0,000 mm 0,0 UV-I 99 W/m 4,4 C 4,5 C 4,8 km/h (1 Bft) 100,00 %
18.11.2016 12:54 4,6 C 99 % 1007,5 hPa 0,0 l/m 1,9 km/h (1 Bft) O-SO 118 0 min 0,000 mm 0,0 UV-I 98 W/m 4,5 C 4,6 C 4,8 km/h (1 Bft) 100,00 %
18.11.2016 12:56 4,7 C 99 % 1007,5 hPa 0,0 l/m 2,1 km/h (1 Bft) O 101 0 min 0,000 mm 0,0 UV-I 95 W/m 4,6 C 4,7 C 3,2 km/h (1 Bft) 100,00 %
18.11.2016 12:58 4,7 C 99 % 1007,5 hPa 0,0 l/m 2,6 km/h (1 Bft) O 101 0 min 0,000 mm 0,0 UV-I 94 W/m 4,6 C 4,7 C 4,8 km/h (1 Bft) 100,00 %
18.11.2016 13:00 4,7 C 99 % 1007,5 hPa 0,0 l/m 1,2 km/h (1 Bft) O 101 0 min 0,000 mm 0,0 UV-I 84 W/m 4,6 C 4,7 C 3,2 km/h (1 Bft) 97,06 %
18.11.2016 13:02 4,8 C 99 % 1007,4 hPa 0,0 l/m 0,3 km/h (0 Bft) O 79 0 min 0,051 mm 0,0 UV-I 82 W/m 4,7 C 4,8 C 1,6 km/h (1 Bft) 97,92 %
18.11.2016 13:04 4,7 C 99 % 1007,4 hPa 0,0 l/m 0,5 km/h (0 Bft) O-NO 71 0 min 0,000 mm 0,0 UV-I 79 W/m 4,6 C 4,7 C 3,2 km/h (1 Bft) 97,73 %
18.11.2016 13:06 4,7 C 99 % 1007,4 hPa 0,0 l/m 1,6 km/h (1 Bft) O-NO 71 0 min 0,000 mm 0,0 UV-I 80 W/m 4,6 C 4,7 C 3,2 km/h (1 Bft) 98,00 %
18.11.2016 13:08 4,7 C 99 % 1007,4 hPa 0,0 l/m 4,5 km/h (1 Bft) NO 34 0 min 0,000 mm 0,0 UV-I 80 W/m 4,6 C 4,7 C 6,4 km/h (2 Bft) 96,00 %
18.11.2016 13:10 4,8 C 99 % 1007,3 hPa 0,0 l/m 3,1 km/h (1 Bft) N-NO 26 0 min 0,000 mm 0,0 UV-I 77 W/m 4,7 C 4,8 C 6,4 km/h (2 Bft) 97,87 %
18.11.2016 13:12 4,8 C 99 % 1007,3 hPa 0,0 l/m 2,5 km/h (1 Bft) N-NO 15 0 min 0,000 mm 0,0 UV-I 76 W/m 4,7 C 4,8 C 4,8 km/h (1 Bft) 98,04 %
18.11.2016 13:14 4,8 C 99 % 1007,2 hPa 0,0 l/m 2,0 km/h (1 Bft) N-NO 30 0 min 0,000 mm 0,0 UV-I 76 W/m 4,7 C 4,8 C 4,8 km/h (1 Bft) 97,37 %
18.11.2016 13:16 4,9 C 99 % 1007,2 hPa 0,0 l/m 5,3 km/h (1 Bft) NO 47 0 min 0,000 mm 0,0 UV-I 79 W/m 4,8 C 4,9 C 6,4 km/h (2 Bft) 98,11 %
18.11.2016 13:18 4,8 C 99 % 1007,2 hPa 0,0 l/m 5,0 km/h (1 Bft) N-NO 24 0 min 0,000 mm 0,0 UV-I 78 W/m 4,7 C 4,8 C 8,0 km/h (2 Bft) 95,74 %
18.11.2016 13:20 4,8 C 99 % 1007,1 hPa 0,0 l/m 5,1 km/h (1 Bft) N-NO 19 0 min 0,000 mm 0,0 UV-I 79 W/m 4,7 C 4,8 C 8,0 km/h (2 Bft) 97,14 %
18.11.2016 13:22 4,8 C 99 % 1007,0 hPa 0,0 l/m 3,5 km/h (1 Bft) NO 36 0 min 0,000 mm 0,0 UV-I 75 W/m 4,7 C 4,8 C 4,8 km/h (1 Bft) 94,44 %
18.11.2016 13:24 4,8 C 99 % 1007,1 hPa 0,0 l/m 5,0 km/h (1 Bft) N-NO 28 0 min 0,000 mm 0,0 UV-I 72 W/m 4,7 C 4,8 C 8,0 km/h (2 Bft) 94,74 %
18.11.2016 13:26 4,7 C 99 % 1007,0 hPa 0,0 l/m 6,7 km/h (2 Bft) N-NO 28 0 min 0,000 mm 0,0 UV-I 74 W/m 4,6 C 4,4 C 9,7 km/h (2 Bft) 96,77 %
18.11.2016 13:28 4,6 C 99 % 1007,1 hPa 0,0 l/m 2,1 km/h (1 Bft) N-NO 28 0 min 0,000 mm 0,0 UV-I 78 W/m 4,5 C 4,6 C 4,8 km/h (1 Bft) 98,00 %
18.11.2016 13:30 4,6 C 99 % 1007,2 hPa 0,0 l/m 0,2 km/h (0 Bft) N-NO 28 0 min 0,000 mm 0,0 UV-I 77 W/m 4,5 C 4,6 C 1,6 km/h (1 Bft) 97,37 %
18.11.2016 13:32 4,5 C 99 % 1007,3 hPa 0,0 l/m 1,2 km/h (1 Bft) N 9 0 min 0,000 mm 0,0 UV-I 72 W/m 4,4 C 4,5 C 4,8 km/h (1 Bft) 96,00 %
18.11.2016 13:34 4,6 C 99 % 1007,3 hPa 0,0 l/m 0,8 km/h (0 Bft) N 9 0 min 0,000 mm 0,0 UV-I 71 W/m 4,5 C 4,6 C 3,2 km/h (1 Bft) 100,00 %
18.11.2016 13:36 4,6 C 99 % 1007,3 hPa 0,0 l/m 0,0 km/h (0 Bft) N 9 0 min 0,000 mm 0,0 UV-I 71 W/m 4,5 C 4,6 C 1,6 km/h (1 Bft) 100,00 %
18.11.2016 13:38 4,6 C 99 % 1007,3 hPa 0,0 l/m 0,1 km/h (0 Bft) N 9 0 min 0,000 mm 0,0 UV-I 67 W/m 4,5 C 4,6 C 1,6 km/h (1 Bft) 100,00 %
18.11.2016 13:40 4,7 C 99 % 1007,2 hPa 0,0 l/m 0,6 km/h (0 Bft) N 9 0 min 0,000 mm 0,0 UV-I 67 W/m 4,6 C 4,7 C 3,2 km/h (1 Bft) 100,00 %
18.11.2016 13:42 4,7 C 99 % 1007,2 hPa 0,0 l/m 1,4 km/h (1 Bft) N 11 0 min 0,000 mm 0,0 UV-I 69 W/m 4,6 C 4,7 C 3,2 km/h (1 Bft) 95,74 %
18.11.2016 13:44 4,7 C 99 % 1007,1 hPa 0,0 l/m 1,2 km/h (1 Bft) N 11 0 min 0,000 mm 0,0 UV-I 70 W/m 4,6 C 4,7 C 3,2 km/h (1 Bft) 100,00 %
18.11.2016 13:46 4,7 C 99 % 1007,1 hPa 0,0 l/m 0,8 km/h (0 Bft) N 11 0 min 0,000 mm 0,0 UV-I 63 W/m 4,6 C 4,7 C 1,6 km/h (1 Bft) 98,21 %
18.11.2016 13:48 4,7 C 99 % 1007,1 hPa 0,0 l/m 0,3 km/h (0 Bft) N 11 0 min 0,000 mm 0,0 UV-I 66 W/m 4,6 C 4,7 C 1,6 km/h (1 Bft) 100,00 %
18.11.2016 13:50 4,7 C 99 % 1007,1 hPa 0,0 l/m 0,2 km/h (0 Bft) N 11 0 min 0,000 mm 0,0 UV-I 65 W/m 4,6 C 4,7 C 1,6 km/h (1 Bft) 100,00 %
18.11.2016 13:52 4,7 C 99 % 1007,1 hPa 0,0 l/m 2,0 km/h (1 Bft) O-NO 73 0 min 0,000 mm 0,0 UV-I 67 W/m 4,6 C 4,7 C 8,0 km/h (2 Bft) 100,00 %
18.11.2016 13:54 4,7 C 99 % 1007,1 hPa 0,0 l/m 4,5 km/h (1 Bft) O-NO 68 0 min 0,000 mm 0,0 UV-I 70 W/m 4,6 C 4,7 C 6,4 km/h (2 Bft) 100,00 %
18.11.2016 13:56 4,7 C 99 % 1007,1 hPa 0,0 l/m 0,9 km/h (0 Bft) O-NO 68 0 min 0,000 mm 0,0 UV-I 64 W/m 4,6 C 4,7 C 3,2 km/h (1 Bft) 100,00 %
18.11.2016 13:58 4,6 C 99 % 1007,2 hPa 0,0 l/m 0,6 km/h (0 Bft) NO 49 0 min 0,000 mm 0,0 UV-I 64 W/m 4,5 C 4,6 C 3,2 km/h (1 Bft) 100,00 %
18.11.2016 14:00 4,7 C 99 % 1007,1 hPa 0,0 l/m 2,8 km/h (1 Bft) NO 40 0 min 0,025 mm 0,0 UV-I 64 W/m 4,6 C 4,7 C 6,4 km/h (2 Bft) 97,56 %
18.11.2016 14:02 4,8 C 99 % 1007,1 hPa 0,0 l/m 5,4 km/h (1 Bft) NO 38 0 min 0,000 mm 0,0 UV-I 67 W/m 4,7 C 4,8 C 8,0 km/h (2 Bft) 98,00 %
18.11.2016 14:04 4,7 C 99 % 1007,1 hPa 0,0 l/m 5,0 km/h (1 Bft) NO 37 0 min 0,000 mm 0,0 UV-I 74 W/m 4,6 C 4,7 C 6,4 km/h (2 Bft) 100,00 %
18.11.2016 14:06 4,7 C 99 % 1007,1 hPa 0,0 l/m 1,3 km/h (1 Bft) NO 37 0 min 0,000 mm 0,0 UV-I 70 W/m 4,6 C 4,7 C 4,8 km/h (1 Bft) 100,00 %
18.11.2016 14:08 4,7 C 99 % 1007,2 hPa 0,0 l/m 1,4 km/h (1 Bft) NO 37 0 min 0,000 mm 0,0 UV-I 63 W/m 4,6 C 4,7 C 3,2 km/h (1 Bft) 100,00 %
18.11.2016 14:10 4,6 C 99 % 1007,2 hPa 0,0 l/m 2,9 km/h (1 Bft) NO 37 0 min 0,000 mm 0,0 UV-I 62 W/m 4,5 C 4,6 C 4,8 km/h (1 Bft) 97,37 %
18.11.2016 14:12 4,6 C 99 % 1007,2 hPa 0,0 l/m 3,8 km/h (1 Bft) NO 49 0 min 0,000 mm 0,0 UV-I 59 W/m 4,5 C 4,6 C 6,4 km/h (2 Bft) 100,00 %
18.11.2016 14:14 4,6 C 99 % 1007,2 hPa 0,0 l/m 5,4 km/h (1 Bft) O 79 0 min 0,000 mm 0,0 UV-I 61 W/m 4,5 C 4,6 C 6,4 km/h (2 Bft) 100,00 %
18.11.2016 14:16 4,6 C 99 % 1007,2 hPa 0,0 l/m 4,8 km/h (1 Bft) O-NO 76 0 min 0,000 mm 0,0 UV-I 58 W/m 4,5 C 4,6 C 11,3 km/h (2 Bft) 100,00 %
18.11.2016 14:18 4,6 C 99 % 1007,1 hPa 0,0 l/m 6,6 km/h (2 Bft) O-SO 116 0 min 0,000 mm 0,0 UV-I 64 W/m 4,5 C 4,4 C 11,3 km/h (2 Bft) 100,00 %
18.11.2016 14:20 4,6 C 99 % 1007,0 hPa 0,0 l/m 5,0 km/h (1 Bft) O-SO 111 0 min 0,000 mm 0,0 UV-I 71 W/m 4,5 C 4,6 C 6,4 km/h (2 Bft) 100,00 %
18.11.2016 14:22 4,6 C 99 % 1007,0 hPa 0,0 l/m 5,3 km/h (1 Bft) O-SO 113 0 min 0,000 mm 0,0 UV-I 72 W/m 4,5 C 4,6 C 9,7 km/h (2 Bft) 100,00 %
18.11.2016 14:24 4,6 C 99 % 1006,9 hPa 0,0 l/m 6,1 km/h (2 Bft) O 92 0 min 0,000 mm 0,0 UV-I 74 W/m 4,5 C 4,6 C 12,9 km/h (3 Bft) 100,00 %
18.11.2016 14:26 4,6 C 99 % 1006,9 hPa 0,0 l/m 5,1 km/h (1 Bft) SO 131 0 min 0,000 mm 0,0 UV-I 76 W/m 4,5 C 4,6 C 11,3 km/h (2 Bft) 100,00 %
18.11.2016 14:28 4,5 C 99 % 1006,8 hPa 0,0 l/m 4,3 km/h (1 Bft) O-SO 111 0 min 0,000 mm 0,0 UV-I 78 W/m 4,4 C 4,5 C 6,4 km/h (2 Bft) 98,00 %
18.11.2016 14:30 4,6 C 99 % 1006,8 hPa 0,0 l/m 3,4 km/h (1 Bft) O-SO 111 0 min 0,000 mm 0,0 UV-I 69 W/m 4,5 C 4,6 C 4,8 km/h (1 Bft) 100,00 %
18.11.2016 14:32 4,6 C 99 % 1006,7 hPa 0,0 l/m 3,1 km/h (1 Bft) O-SO 111 0 min 0,000 mm 0,0 UV-I 58 W/m 4,5 C 4,6 C 4,8 km/h (1 Bft) 97,87 %
18.11.2016 14:34 4,6 C 99 % 1006,7 hPa 0,0 l/m 2,4 km/h (1 Bft) O 86 0 min 0,000 mm 0,0 UV-I 53 W/m 4,5 C 4,6 C 4,8 km/h (1 Bft) 98,00 %
18.11.2016 14:36 4,6 C 99 % 1006,5 hPa 0,0 l/m 7,5 km/h (2 Bft) O-NO 60 0 min 0,000 mm 0,0 UV-I 55 W/m 4,5 C 3,6 C 12,9 km/h (3 Bft) 100,00 %
18.11.2016 14:38 4,6 C 99 % 1006,5 hPa 0,0 l/m 8,5 km/h (2 Bft) O-SO 103 0 min 0,000 mm 0,0 UV-I 52 W/m 4,5 C 2,8 C 12,9 km/h (3 Bft) 100,00 %
18.11.2016 14:40 4,6 C 99 % 1006,5 hPa 0,0 l/m 7,0 km/h (2 Bft) O 88 0 min 0,000 mm 0,0 UV-I 59 W/m 4,5 C 4,1 C 11,3 km/h (2 Bft) 100,00 %
18.11.2016 14:42 4,6 C 99 % 1006,5 hPa 0,0 l/m 4,2 km/h (1 Bft) O-SO 123 0 min 0,000 mm 0,0 UV-I 61 W/m 4,5 C 4,6 C 6,4 km/h (2 Bft) 100,00 %
18.11.2016 14:44 4,6 C 99 % 1006,6 hPa 0,0 l/m 5,3 km/h (1 Bft) O-SO 111 0 min 0,000 mm 0,0 UV-I 52 W/m 4,5 C 4,6 C 9,7 km/h (2 Bft) 100,00 %
18.11.2016 14:46 4,5 C 99 % 1006,5 hPa 0,0 l/m 3,9 km/h (1 Bft) O 98 0 min 0,000 mm 0,0 UV-I 41 W/m 4,4 C 4,5 C 6,4 km/h (2 Bft) 100,00 %
18.11.2016 14:48 4,6 C 99 % 1006,5 hPa 0,0 l/m 3,3 km/h (1 Bft) O-NO 74 0 min 0,000 mm 0,0 UV-I 36 W/m 4,5 C 4,6 C 6,4 km/h (2 Bft) 97,56 %
18.11.2016 14:50 4,6 C 99 % 1006,6 hPa 0,0 l/m 4,8 km/h (1 Bft) O-SO 103 0 min 0,000 mm 0,0 UV-I 33 W/m 4,5 C 4,6 C 8,0 km/h (2 Bft) 98,21 %
18.11.2016 14:52 4,6 C 99 % 1006,7 hPa 0,0 l/m 0,3 km/h (0 Bft) O-NO 68 0 min 0,000 mm 0,0 UV-I 43 W/m 4,5 C 4,6 C 3,2 km/h (1 Bft) 100,00 %
18.11.2016 14:54 4,6 C 99 % 1006,7 hPa 0,0 l/m 1,9 km/h (1 Bft) O-NO 68 0 min 0,000 mm 0,0 UV-I 39 W/m 4,5 C 4,6 C 3,2 km/h (1 Bft) 100,00 %
18.11.2016 14:56 4,6 C 99 % 1006,7 hPa 0,0 l/m 2,2 km/h (1 Bft) O-NO 68 0 min 0,000 mm 0,0 UV-I 40 W/m 4,5 C 4,6 C 4,8 km/h (1 Bft) 100,00 %
18.11.2016 14:58 4,6 C 99 % 1006,7 hPa 0,0 l/m 5,2 km/h (1 Bft) SO 124 0 min 0,000 mm 0,0 UV-I 39 W/m 4,5 C 4,6 C 11,3 km/h (2 Bft) 100,00 %
18.11.2016 15:00 4,6 C 99 % 1006,7 hPa 0,0 l/m 3,6 km/h (1 Bft) O 90 0 min 0,000 mm 0,0 UV-I 46 W/m 4,5 C 4,6 C 6,4 km/h (2 Bft) 100,00 %
18.11.2016 15:02 4,6 C 99 % 1006,8 hPa 0,0 l/m 3,6 km/h (1 Bft) O 90 0 min 0,026 mm 0,0 UV-I 38 W/m 4,5 C 4,6 C 4,8 km/h (1 Bft) 95,12 %
18.11.2016 15:04 4,6 C 99 % 1006,9 hPa 0,0 l/m 1,5 km/h (1 Bft) O 90 0 min 0,000 mm 0,0 UV-I 37 W/m 4,5 C 4,6 C 3,2 km/h (1 Bft) 98,28 %
18.11.2016 15:06 4,6 C 99 % 1006,9 hPa 0,0 l/m 0,6 km/h (0 Bft) O 90 0 min 0,000 mm 0,0 UV-I 36 W/m 4,5 C 4,6 C 3,2 km/h (1 Bft) 97,87 %
18.11.2016 15:08 4,6 C 99 % 1006,9 hPa 0,0 l/m 0,0 km/h (0 Bft) O 90 0 min 0,000 mm 0,0 UV-I 31 W/m 4,5 C 4,6 C 1,6 km/h (1 Bft) 97,37 %
18.11.2016 15:10 4,6 C 99 % 1006,9 hPa 0,0 l/m 1,2 km/h (1 Bft) O-SO 104 0 min 0,000 mm 0,0 UV-I 34 W/m 4,5 C 4,6 C 3,2 km/h (1 Bft) 96,23 %
18.11.2016 15:12 4,6 C 99 % 1007,0 hPa 0,0 l/m 3,9 km/h (1 Bft) S 170 0 min 0,000 mm 0,0 UV-I 39 W/m 4,5 C 4,6 C 6,4 km/h (2 Bft) 97,87 %
18.11.2016 15:14 4,6 C 99 % 1007,0 hPa 0,0 l/m 1,4 km/h (1 Bft) S 170 0 min 0,000 mm 0,0 UV-I 38 W/m 4,5 C 4,6 C 3,2 km/h (1 Bft) 97,73 %
18.11.2016 15:16 4,6 C 99 % 1006,9 hPa 0,0 l/m 0,3 km/h (0 Bft) SO 143 0 min 0,000 mm 0,0 UV-I 37 W/m 4,5 C 4,6 C 3,2 km/h (1 Bft) 98,11 %
18.11.2016 15:18 4,6 C 99 % 1006,7 hPa 0,0 l/m 6,7 km/h (2 Bft) O 81 0 min 0,000 mm 0,0 UV-I 39 W/m 4,5 C 4,3 C 9,7 km/h (2 Bft) 97,56 %
18.11.2016 15:20 4,6 C 99 % 1006,7 hPa 0,0 l/m 3,3 km/h (1 Bft) O-SO 105 0 min 0,000 mm 0,0 UV-I 29 W/m 4,5 C 4,6 C 4,8 km/h (1 Bft) 98,00 %
18.11.2016 15:22 4,6 C 99 % 1006,9 hPa 0,0 l/m 0,1 km/h (0 Bft) O-SO 105 0 min 0,000 mm 0,0 UV-I 27 W/m 4,5 C 4,6 C 1,6 km/h (1 Bft) 98,00 %
18.11.2016 15:24 4,6 C 99 % 1006,9 hPa 0,0 l/m 1,9 km/h (1 Bft) O-SO 105 0 min 0,000 mm 0,0 UV-I 29 W/m 4,5 C 4,6 C 4,8 km/h (1 Bft) 95,74 %
18.11.2016 15:26 4,6 C 99 % 1006,8 hPa 0,0 l/m 4,2 km/h (1 Bft) O 86 0 min 0,000 mm 0,0 UV-I 29 W/m 4,5 C 4,6 C 6,4 km/h (2 Bft) 97,37 %
18.11.2016 15:28 4,6 C 99 % 1006,8 hPa 0,0 l/m 5,6 km/h (1 Bft) NO 55 0 min 0,000 mm 0,0 UV-I 25 W/m 4,5 C 4,6 C 8,0 km/h (2 Bft) 96,23 %
18.11.2016 15:30 4,6 C 99 % 1006,8 hPa 0,0 l/m 2,1 km/h (1 Bft) NO 55 0 min 0,000 mm 0,0 UV-I 21 W/m 4,5 C 4,6 C 6,4 km/h (2 Bft) 97,56 %
18.11.2016 15:32 4,5 C 99 % 1006,8 hPa 0,0 l/m 2,7 km/h (1 Bft) NO 53 0 min 0,000 mm 0,0 UV-I 18 W/m 4,4 C 4,5 C 6,4 km/h (2 Bft) 98,00 %
18.11.2016 15:34 4,5 C 99 % 1006,8 hPa 0,0 l/m 3,4 km/h (1 Bft) O-NO 69 0 min 0,000 mm 0,0 UV-I 16 W/m 4,4 C 4,5 C 4,8 km/h (1 Bft) 97,87 %
18.11.2016 15:36 4,4 C 99 % 1006,8 hPa 0,0 l/m 1,7 km/h (1 Bft) O-NO 69 0 min 0,000 mm 0,0 UV-I 14 W/m 4,3 C 4,4 C 3,2 km/h (1 Bft) 98,00 %
18.11.2016 15:38 4,4 C 99 % 1006,8 hPa 0,0 l/m 4,5 km/h (1 Bft) O-NO 63 0 min 0,000 mm 0,0 UV-I 12 W/m 4,3 C 4,4 C 6,4 km/h (2 Bft) 97,87 %
18.11.2016 15:40 4,5 C 99 % 1006,8 hPa 0,0 l/m 5,0 km/h (1 Bft) NO 51 0 min 0,000 mm 0,0 UV-I 17 W/m 4,4 C 4,5 C 8,0 km/h (2 Bft) 100,00 %
18.11.2016 15:42 4,5 C 99 % 1006,9 hPa 0,0 l/m 1,6 km/h (1 Bft) NO 51 0 min 0,000 mm 0,0 UV-I 15 W/m 4,4 C 4,5 C 4,8 km/h (1 Bft) 100,00 %
18.11.2016 15:44 4,5 C 99 % 1007,0 hPa 0,0 l/m 0,1 km/h (0 Bft) NO 44 0 min 0,000 mm 0,0 UV-I 14 W/m 4,4 C 4,5 C 1,6 km/h (1 Bft) 100,00 %
18.11.2016 15:46 4,6 C 99 % 1007,0 hPa 0,0 l/m 0,4 km/h (0 Bft) NO 44 0 min 0,000 mm 0,0 UV-I 12 W/m 4,5 C 4,6 C 1,6 km/h (1 Bft) 98,11 %
18.11.2016 15:48 4,5 C 99 % 1007,0 hPa 0,0 l/m 2,0 km/h (1 Bft) NW 323 0 min 0,000 mm 0,0 UV-I 11 W/m 4,4 C 4,5 C 4,8 km/h (1 Bft) 100,00 %
18.11.2016 15:50 4,5 C 99 % 1007,1 hPa 0,0 l/m 1,0 km/h (0 Bft) NW 323 0 min 0,000 mm 0,0 UV-I 10 W/m 4,4 C 4,5 C 3,2 km/h (1 Bft) 100,00 %
18.11.2016 15:52 4,5 C 99 % 1007,2 hPa 0,0 l/m 0,8 km/h (0 Bft) NW 323 0 min 0,000 mm 0,0 UV-I 9 W/m 4,4 C 4,5 C 3,2 km/h (1 Bft) 97,87 %
18.11.2016 15:54 4,5 C 99 % 1007,1 hPa 0,0 l/m 0,8 km/h (0 Bft) N-NW 336 0 min 0,000 mm 0,0 UV-I 9 W/m 4,4 C 4,5 C 3,2 km/h (1 Bft) 100,00 %
18.11.2016 15:56 4,5 C 99 % 1007,1 hPa 0,0 l/m 2,8 km/h (1 Bft) N-NO 26 0 min 0,000 mm 0,0 UV-I 9 W/m 4,4 C 4,5 C 6,4 km/h (2 Bft) 98,00 %
18.11.2016 15:58 4,5 C 99 % 1007,3 hPa 0,0 l/m 2,1 km/h (1 Bft) N-NO 26 0 min 0,000 mm 0,0 UV-I 9 W/m 4,4 C 4,5 C 3,2 km/h (1 Bft) 100,00 %
18.11.2016 16:00 4,5 C 99 % 1007,3 hPa 0,0 l/m 0,0 km/h (0 Bft) N-NO 26 0 min 0,000 mm 0,0 UV-I 9 W/m 4,4 C 4,5 C 1,6 km/h (1 Bft) 100,00 %
18.11.2016 16:02 4,6 C 99 % 1007,4 hPa 0,0 l/m 0,3 km/h (0 Bft) N-NO 26 0 min 0,000 mm 0,0 UV-I 9 W/m 4,5 C 4,6 C 1,6 km/h (1 Bft) 98,00 %
18.11.2016 16:04 4,5 C 99 % 1007,5 hPa 0,0 l/m 0,9 km/h (0 Bft) N 11 0 min 0,000 mm 0,0 UV-I 8 W/m 4,4 C 4,5 C 3,2 km/h (1 Bft) 97,56 %
18.11.2016 16:06 4,5 C 99 % 1007,5 hPa 0,0 l/m 0,7 km/h (0 Bft) N 11 0 min 0,000 mm 0,0 UV-I 7 W/m 4,4 C 4,5 C 1,6 km/h (1 Bft) 97,87 %
18.11.2016 16:08 4,5 C 99 % 1007,5 hPa 0,0 l/m 1,0 km/h (0 Bft) N 11 0 min 0,000 mm 0,0 UV-I 7 W/m 4,4 C 4,5 C 3,2 km/h (1 Bft) 98,00 %
18.11.2016 16:10 4,6 C 99 % 1007,5 hPa 0,0 l/m 0,4 km/h (0 Bft) N 10 0 min 0,000 mm 0,0 UV-I 5 W/m 4,5 C 4,6 C 1,6 km/h (1 Bft) 98,00 %
18.11.2016 16:12 4,6 C 99 % 1007,4 hPa 0,0 l/m 0,2 km/h (0 Bft) N 10 0 min 0,000 mm 0,0 UV-I 5 W/m 4,5 C 4,6 C 1,6 km/h (1 Bft) 97,56 %
18.11.2016 16:14 4,6 C 99 % 1007,4 hPa 0,0 l/m 0,4 km/h (0 Bft) N 10 0 min 0,000 mm 0,0 UV-I 5 W/m 4,5 C 4,6 C 1,6 km/h (1 Bft) 100,00 %
18.11.2016 16:16 4,6 C 99 % 1007,3 hPa 0,0 l/m 1,2 km/h (1 Bft) N-NO 13 0 min 0,000 mm 0,0 UV-I 5 W/m 4,5 C 4,6 C 4,8 km/h (1 Bft) 100,00 %
18.11.2016 16:18 4,6 C 99 % 1007,2 hPa 0,0 l/m 2,7 km/h (1 Bft) N-NO 13 0 min 0,000 mm 0,0 UV-I 5 W/m 4,5 C 4,6 C 4,8 km/h (1 Bft) 100,00 %
18.11.2016 16:20 4,6 C 99 % 1007,3 hPa 0,0 l/m 0,2 km/h (0 Bft) N 10 0 min 0,000 mm 0,0 UV-I 5 W/m 4,5 C 4,6 C 1,6 km/h (1 Bft) 100,00 %
18.11.2016 16:22 4,6 C 99 % 1007,5 hPa 0,0 l/m 0,1 km/h (0 Bft) N 10 0 min 0,000 mm 0,0 UV-I 3 W/m 4,5 C 4,6 C 1,6 km/h (1 Bft) 100,00 %
18.11.2016 16:24 4,6 C 99 % 1007,5 hPa 0,0 l/m 0,3 km/h (0 Bft) N 10 0 min 0,000 mm 0,0 UV-I 0 W/m 4,5 C 4,6 C 1,6 km/h (1 Bft) 100,00 %
18.11.2016 16:26 4,6 C 99 % 1007,5 hPa 0,0 l/m 0,3 km/h (0 Bft) N 10 0 min 0,000 mm 0,0 UV-I 0 W/m 4,5 C 4,6 C 1,6 km/h (1 Bft) 100,00 %
18.11.2016 16:28 4,5 C 99 % 1007,4 hPa 0,0 l/m 0,0 km/h (0 Bft) N 10 0 min 0,000 mm 0,0 UV-I 0 W/m 4,4 C 4,5 C 0,0 km/h (0 Bft) 100,00 %
18.11.2016 16:30 4,6 C 99 % 1007,6 hPa 0,0 l/m 0,0 km/h (0 Bft) N 10 0 min 0,000 mm 0,0 UV-I 0 W/m 4,5 C 4,6 C 0,0 km/h (0 Bft) 100,00 %
18.11.2016 16:32 4,6 C 99 % 1007,7 hPa 0,0 l/m 0,6 km/h (0 Bft) N 10 0 min 0,000 mm 0,0 UV-I 0 W/m 4,5 C 4,6 C 3,2 km/h (1 Bft) 100,00 %
18.11.2016 16:34 4,6 C 99 % 1007,7 hPa 0,0 l/m 3,0 km/h (1 Bft) W 265 0 min 0,000 mm 0,0 UV-I 0 W/m 4,5 C 4,6 C 4,8 km/h (1 Bft) 100,00 %
18.11.2016 16:36 4,6 C 99 % 1007,8 hPa 0,0 l/m 2,9 km/h (1 Bft) W 265 0 min 0,000 mm 0,0 UV-I 0 W/m 4,5 C 4,6 C 4,8 km/h (1 Bft) 100,00 %
18.11.2016 16:38 4,6 C 99 % 1007,8 hPa 0,0 l/m 0,5 km/h (0 Bft) W 265 0 min 0,000 mm 0,0 UV-I 0 W/m 4,5 C 4,6 C 1,6 km/h (1 Bft) 98,00 %
18.11.2016 16:40 4,6 C 99 % 1007,7 hPa 0,0 l/m 0,9 km/h (0 Bft) S-SW 211 0 min 0,000 mm 0,0 UV-I 0 W/m 4,5 C 4,6 C 3,2 km/h (1 Bft) 100,00 %
18.11.2016 16:42 4,6 C 99 % 1007,8 hPa 0,0 l/m 0,3 km/h (0 Bft) S-SW 207 0 min 0,000 mm 0,0 UV-I 0 W/m 4,5 C 4,6 C 1,6 km/h (1 Bft) 100,00 %
18.11.2016 16:44 4,5 C 99 % 1007,8 hPa 0,0 l/m 0,2 km/h (0 Bft) S-SW 207 0 min 0,000 mm 0,0 UV-I 0 W/m 4,4 C 4,5 C 1,6 km/h (1 Bft) 97,87 %
18.11.2016 16:46 4,5 C 99 % 1007,9 hPa 0,0 l/m 1,0 km/h (0 Bft) S-SW 207 0 min 0,000 mm 0,0 UV-I 0 W/m 4,4 C 4,5 C 1,6 km/h (1 Bft) 100,00 %
18.11.2016 16:48 4,6 C 99 % 1007,9 hPa 0,0 l/m 0,1 km/h (0 Bft) S-SW 207 0 min 0,000 mm 0,0 UV-I 0 W/m 4,5 C 4,6 C 1,6 km/h (1 Bft) 100,00 %
18.11.2016 16:50 4,6 C 99 % 1007,9 hPa 0,0 l/m 1,0 km/h (0 Bft) S-SW 207 0 min 0,000 mm 0,0 UV-I 0 W/m 4,5 C 4,6 C 3,2 km/h (1 Bft) 100,00 %
18.11.2016 16:52 4,6 C 99 % 1008,0 hPa 0,0 l/m 4,0 km/h (1 Bft) NO 55 0 min 0,000 mm 0,0 UV-I 0 W/m 4,5 C 4,6 C 6,4 km/h (2 Bft) 100,00 %
18.11.2016 16:54 4,6 C 99 % 1007,9 hPa 0,0 l/m 4,9 km/h (1 Bft) NO 42 0 min 0,000 mm 0,0 UV-I 0 W/m 4,5 C 4,6 C 6,4 km/h (2 Bft) 97,56 %
18.11.2016 16:56 4,6 C 99 % 1007,9 hPa 0,0 l/m 2,3 km/h (1 Bft) NO 42 0 min 0,000 mm 0,0 UV-I 0 W/m 4,5 C 4,6 C 3,2 km/h (1 Bft) 97,87 %
18.11.2016 16:58 4,5 C 99 % 1007,9 hPa 0,0 l/m 3,3 km/h (1 Bft) NO 45 0 min 0,000 mm 0,0 UV-I 0 W/m 4,4 C 4,5 C 4,8 km/h (1 Bft) 98,00 %
18.11.2016 17:00 4,6 C 99 % 1007,8 hPa 0,0 l/m 2,6 km/h (1 Bft) NO 46 0 min 0,000 mm 0,0 UV-I 0 W/m 4,5 C 4,6 C 3,2 km/h (1 Bft) 97,62 %
18.11.2016 17:02 4,6 C 99 % 1007,9 hPa 0,0 l/m 4,0 km/h (1 Bft) O 82 0 min 0,000 mm 0,0 UV-I 0 W/m 4,5 C 4,6 C 4,8 km/h (1 Bft) 100,00 %
18.11.2016 17:04 4,6 C 99 % 1007,9 hPa 0,0 l/m 0,8 km/h (0 Bft) O 82 0 min 0,000 mm 0,0 UV-I 0 W/m 4,5 C 4,6 C 3,2 km/h (1 Bft) 100,00 %
18.11.2016 17:06 4,6 C 99 % 1008,2 hPa 0,0 l/m 1,2 km/h (1 Bft) O 82 0 min 0,000 mm 0,0 UV-I 0 W/m 4,5 C 4,6 C 3,2 km/h (1 Bft) 100,00 %
18.11.2016 17:08 4,6 C 99 % 1008,4 hPa 0,0 l/m 0,4 km/h (0 Bft) O 82 0 min 0,000 mm 0,0 UV-I 0 W/m 4,5 C 4,6 C 1,6 km/h (1 Bft) 100,00 %
18.11.2016 17:10 4,7 C 99 % 1008,4 hPa 0,0 l/m 1,9 km/h (1 Bft) SO 126 0 min 0,000 mm 0,0 UV-I 0 W/m 4,6 C 4,7 C 4,8 km/h (1 Bft) 98,00 %
18.11.2016 17:12 4,7 C 99 % 1008,5 hPa 0,0 l/m 3,4 km/h (1 Bft) SO 132 0 min 0,000 mm 0,0 UV-I 0 W/m 4,6 C 4,7 C 6,4 km/h (2 Bft) 96,00 %
18.11.2016 17:14 4,7 C 99 % 1008,6 hPa 0,0 l/m 3,8 km/h (1 Bft) SW 222 0 min 0,000 mm 0,0 UV-I 0 W/m 4,6 C 4,7 C 6,4 km/h (2 Bft) 92,68 %
18.11.2016 17:16 4,7 C 99 % 1008,6 hPa 0,0 l/m 3,4 km/h (1 Bft) SW 222 0 min 0,000 mm 0,0 UV-I 0 W/m 4,6 C 4,7 C 4,8 km/h (1 Bft) 98,00 %
18.11.2016 17:18 4,7 C 99 % 1008,6 hPa 0,0 l/m 4,3 km/h (1 Bft) SW 225 0 min 0,000 mm 0,0 UV-I 0 W/m 4,6 C 4,7 C 6,4 km/h (2 Bft) 96,00 %
18.11.2016 17:20 4,6 C 99 % 1008,6 hPa 0,0 l/m 3,3 km/h (1 Bft) SW 228 0 min 0,000 mm 0,0 UV-I 0 W/m 4,5 C 4,6 C 6,4 km/h (2 Bft) 97,37 %
18.11.2016 17:22 4,6 C 99 % 1008,6 hPa 0,0 l/m 4,8 km/h (1 Bft) SW 230 0 min 0,000 mm 0,0 UV-I 0 W/m 4,5 C 4,6 C 6,4 km/h (2 Bft) 98,11 %
18.11.2016 17:24 4,6 C 99 % 1008,7 hPa 0,0 l/m 4,0 km/h (1 Bft) SW 221 0 min 0,000 mm 0,0 UV-I 0 W/m 4,5 C 4,6 C 6,4 km/h (2 Bft) 95,74 %
18.11.2016 17:26 4,6 C 99 % 1008,7 hPa 0,0 l/m 3,4 km/h (1 Bft) S-SW 203 0 min 0,000 mm 0,0 UV-I 0 W/m 4,5 C 4,6 C 6,4 km/h (2 Bft) 94,23 %
18.11.2016 17:29 4,6 C 99 % 1008,8 hPa 0,0 l/m 2,6 km/h (1 Bft) S-SW 201 0 min 0,000 mm 0,0 UV-I 0 W/m 4,5 C 4,6 C 4,8 km/h (1 Bft) 97,30 %
18.11.2016 17:30 4,6 C 99 % 1008,8 hPa 0,0 l/m 2,3 km/h (1 Bft) S 178 0 min 0,000 mm 0,0 UV-I 0 W/m 4,5 C 4,6 C 3,2 km/h (1 Bft) 72,73 %
18.11.2016 17:32 4,6 C 99 % 1008,7 hPa 0,0 l/m 1,8 km/h (1 Bft) S 178 0 min 0,000 mm 0,0 UV-I 0 W/m 4,5 C 4,6 C 4,8 km/h (1 Bft) 98,11 %
18.11.2016 17:34 4,6 C 99 % 1008,8 hPa 0,0 l/m 2,4 km/h (1 Bft) S 180 0 min 0,000 mm 0,0 UV-I 0 W/m 4,5 C 4,6 C 6,4 km/h (2 Bft) 98,00 %
18.11.2016 17:36 4,5 C 99 % 1008,9 hPa 0,0 l/m 2,6 km/h (1 Bft) S 181 0 min 0,000 mm 0,0 UV-I 0 W/m 4,4 C 4,5 C 6,4 km/h (2 Bft) 97,22 %
18.11.2016 17:38 4,6 C 99 % 1009,0 hPa 0,0 l/m 2,6 km/h (1 Bft) S 181 0 min 0,000 mm 0,0 UV-I 0 W/m 4,5 C 4,6 C 4,8 km/h (1 Bft) 98,00 %
18.11.2016 17:40 4,6 C 99 % 1009,1 hPa 0,0 l/m 2,5 km/h (1 Bft) S 181 0 min 0,000 mm 0,0 UV-I 0 W/m 4,5 C 4,6 C 4,8 km/h (1 Bft) 98,11 %
18.11.2016 17:42 4,6 C 99 % 1009,1 hPa 0,0 l/m 2,9 km/h (1 Bft) S 181 0 min 0,000 mm 0,0 UV-I 0 W/m 4,5 C 4,6 C 4,8 km/h (1 Bft) 98,00 %
18.11.2016 17:44 4,6 C 99 % 1009,1 hPa 0,0 l/m 3,3 km/h (1 Bft) S 181 0 min 0,000 mm 0,0 UV-I 0 W/m 4,5 C 4,6 C 4,8 km/h (1 Bft) 100,00 %
18.11.2016 17:46 4,6 C 99 % 1009,2 hPa 0,0 l/m 3,7 km/h (1 Bft) S-SW 197 0 min 0,000 mm 0,0 UV-I 0 W/m 4,5 C 4,6 C 6,4 km/h (2 Bft) 100,00 %
18.11.2016 17:48 4,6 C 99 % 1009,3 hPa 0,0 l/m 4,5 km/h (1 Bft) S-SW 197 0 min 0,000 mm 0,0 UV-I 0 W/m 4,5 C 4,6 C 8,0 km/h (2 Bft) 100,00 %
18.11.2016 17:50 4,6 C 99 % 1009,3 hPa 0,0 l/m 0,7 km/h (0 Bft) S-SW 197 0 min 0,000 mm 0,0 UV-I 0 W/m 4,5 C 4,6 C 3,2 km/h (1 Bft) 100,00 %
18.11.2016 17:52 4,6 C 99 % 1009,3 hPa 0,0 l/m 2,6 km/h (1 Bft) S-SW 197 0 min 0,000 mm 0,0 UV-I 0 W/m 4,5 C 4,6 C 4,8 km/h (1 Bft) 97,56 %
18.11.2016 17:54 4,6 C 99 % 1009,2 hPa 0,0 l/m 2,9 km/h (1 Bft) S-SW 197 0 min 0,000 mm 0,0 UV-I 0 W/m 4,5 C 4,6 C 4,8 km/h (1 Bft) 98,11 %
18.11.2016 17:56 4,6 C 99 % 1009,2 hPa 0,0 l/m 2,6 km/h (1 Bft) S-SW 197 0 min 0,000 mm 0,0 UV-I 0 W/m 4,5 C 4,6 C 4,8 km/h (1 Bft) 97,56 %
18.11.2016 17:58 4,5 C 99 % 1009,2 hPa 0,0 l/m 5,4 km/h (1 Bft) S-SW 198 0 min 0,000 mm 0,0 UV-I 0 W/m 4,4 C 4,5 C 8,0 km/h (2 Bft) 98,11 %
18.11.2016 18:00 4,5 C 99 % 1009,1 hPa 0,0 l/m 2,9 km/h (1 Bft) S 171 0 min 0,000 mm 0,0 UV-I 0 W/m 4,4 C 4,5 C 6,4 km/h (2 Bft) 100,00 %
18.11.2016 18:02 4,4 C 99 % 1009,1 hPa 0,0 l/m 2,5 km/h (1 Bft) S 169 0 min 0,000 mm 0,0 UV-I 0 W/m 4,3 C 4,4 C 6,4 km/h (2 Bft) 96,23 %
18.11.2016 18:04 4,4 C 99 % 1009,1 hPa 0,0 l/m 1,4 km/h (1 Bft) S 169 0 min 0,000 mm 0,0 UV-I 0 W/m 4,3 C 4,4 C 3,2 km/h (1 Bft) 100,00 %
18.11.2016 18:06 4,4 C 99 % 1009,1 hPa 0,0 l/m 3,1 km/h (1 Bft) S 185 0 min 0,000 mm 0,0 UV-I 0 W/m 4,3 C 4,4 C 8,0 km/h (2 Bft) 100,00 %
18.11.2016 18:08 4,4 C 99 % 1009,2 hPa 0,0 l/m 3,4 km/h (1 Bft) S 179 0 min 0,000 mm 0,0 UV-I 0 W/m 4,3 C 4,4 C 6,4 km/h (2 Bft) 100,00 %
18.11.2016 18:10 4,4 C 99 % 1009,2 hPa 0,0 l/m 2,7 km/h (1 Bft) S 175 0 min 0,000 mm 0,0 UV-I 0 W/m 4,3 C 4,4 C 6,4 km/h (2 Bft) 100,00 %
18.11.2016 18:13 4,4 C 99 % 1009,3 hPa 0,0 l/m 3,0 km/h (1 Bft) S 186 0 min 0,000 mm 0,0 UV-I 0 W/m 4,3 C 4,4 C 6,4 km/h (2 Bft) 100,00 %
18.11.2016 18:14 4,4 C 99 % 1009,3 hPa 0,0 l/m 3,9 km/h (1 Bft) S 186 0 min 0,000 mm 0,0 UV-I 0 W/m 4,3 C 4,4 C 6,4 km/h (2 Bft) 100,00 %
18.11.2016 18:16 4,4 C 99 % 1009,5 hPa 0,0 l/m 1,7 km/h (1 Bft) S 185 0 min 0,000 mm 0,0 UV-I 0 W/m 4,3 C 4,4 C 4,8 km/h (1 Bft) 100,00 %
18.11.2016 18:18 4,4 C 99 % 1009,4 hPa 0,0 l/m 1,9 km/h (1 Bft) S-SO 167 0 min 0,000 mm 0,0 UV-I 0 W/m 4,3 C 4,4 C 6,4 km/h (2 Bft) 100,00 %
18.11.2016 18:20 4,4 C 99 % 1009,5 hPa 0,0 l/m 3,3 km/h (1 Bft) S-SO 163 0 min 0,000 mm 0,0 UV-I 0 W/m 4,3 C 4,4 C 8,0 km/h (2 Bft) 100,00 %
18.11.2016 18:22 4,4 C 99 % 1009,5 hPa 0,0 l/m 4,9 km/h (1 Bft) S-SW 192 0 min 0,000 mm 0,0 UV-I 0 W/m 4,3 C 4,4 C 8,0 km/h (2 Bft) 100,00 %
18.11.2016 18:24 4,4 C 99 % 1009,5 hPa 0,0 l/m 5,7 km/h (1 Bft) S-SW 206 0 min 0,000 mm 0,0 UV-I 0 W/m 4,3 C 4,4 C 8,0 km/h (2 Bft) 100,00 %
18.11.2016 18:26 4,4 C 99 % 1009,5 hPa 0,0 l/m 4,9 km/h (1 Bft) S-SO 165 0 min 0,000 mm 0,0 UV-I 0 W/m 4,3 C 4,4 C 8,0 km/h (2 Bft) 100,00 %
18.11.2016 18:28 4,4 C 99 % 1009,5 hPa 0,0 l/m 3,6 km/h (1 Bft) S-SO 161 0 min 0,000 mm 0,0 UV-I 0 W/m 4,3 C 4,4 C 9,7 km/h (2 Bft) 100,00 %
18.11.2016 18:30 4,4 C 99 % 1009,5 hPa 0,0 l/m 3,9 km/h (1 Bft) S-SO 165 0 min 0,000 mm 0,0 UV-I 0 W/m 4,3 C 4,4 C 9,7 km/h (2 Bft) 100,00 %
18.11.2016 18:32 4,4 C 99 % 1009,5 hPa 0,0 l/m 3,6 km/h (1 Bft) S-SW 204 0 min 0,000 mm 0,0 UV-I 0 W/m 4,3 C 4,4 C 6,4 km/h (2 Bft) 100,00 %
18.11.2016 18:34 4,4 C 99 % 1009,5 hPa 0,0 l/m 4,6 km/h (1 Bft) S-SW 198 0 min 0,000 mm 0,0 UV-I 0 W/m 4,3 C 4,4 C 8,0 km/h (2 Bft) 100,00 %
18.11.2016 18:36 4,4 C 99 % 1009,6 hPa 0,0 l/m 4,5 km/h (1 Bft) S 176 0 min 0,000 mm 0,0 UV-I 0 W/m 4,3 C 4,4 C 9,7 km/h (2 Bft) 100,00 %
18.11.2016 18:38 4,4 C 99 % 1009,7 hPa 0,0 l/m 3,1 km/h (1 Bft) S-SW 193 0 min 0,000 mm 0,0 UV-I 0 W/m 4,3 C 4,4 C 4,8 km/h (1 Bft) 100,00 %
18.11.2016 18:40 4,4 C 99 % 1009,7 hPa 0,0 l/m 8,1 km/h (2 Bft) S-SW 196 0 min 0,000 mm 0,0 UV-I 0 W/m 4,3 C 2,9 C 12,9 km/h (3 Bft) 100,00 %
18.11.2016 18:42 4,4 C 99 % 1009,7 hPa 0,0 l/m 8,0 km/h (2 Bft) S-SW 209 0 min 0,000 mm 0,0 UV-I 0 W/m 4,3 C 3,0 C 11,3 km/h (2 Bft) 97,37 %
18.11.2016 18:44 4,4 C 99 % 1009,7 hPa 0,0 l/m 5,2 km/h (1 Bft) S-SW 211 0 min 0,000 mm 0,0 UV-I 0 W/m 4,3 C 4,4 C 11,3 km/h (2 Bft) 100,00 %
18.11.2016 18:46 4,4 C 99 % 1009,7 hPa 0,0 l/m 6,5 km/h (2 Bft) SW 222 0 min 0,000 mm 0,0 UV-I 0 W/m 4,3 C 4,3 C 9,7 km/h (2 Bft) 100,00 %
18.11.2016 18:48 4,4 C 99 % 1009,7 hPa 0,0 l/m 7,0 km/h (2 Bft) S-SW 208 0 min 0,000 mm 0,0 UV-I 0 W/m 4,3 C 3,9 C 9,7 km/h (2 Bft) 100,00 %
18.11.2016 18:50 4,4 C 99 % 1009,7 hPa 0,0 l/m 8,0 km/h (2 Bft) S 178 0 min 0,000 mm 0,0 UV-I 0 W/m 4,3 C 3,0 C 11,3 km/h (2 Bft) 100,00 %
18.11.2016 18:52 4,3 C 99 % 1009,7 hPa 0,0 l/m 4,4 km/h (1 Bft) SW 217 0 min 0,000 mm 0,0 UV-I 0 W/m 4,2 C 4,3 C 9,7 km/h (2 Bft) 100,00 %
18.11.2016 18:54 4,3 C 99 % 1009,8 hPa 0,0 l/m 7,7 km/h (2 Bft) S-SW 198 0 min 0,000 mm 0,0 UV-I 0 W/m 4,2 C 3,1 C 14,5 km/h (3 Bft) 100,00 %
18.11.2016 18:56 4,3 C 99 % 1009,9 hPa 0,0 l/m 7,8 km/h (2 Bft) S-SW 208 0 min 0,000 mm 0,0 UV-I 0 W/m 4,2 C 3,0 C 12,9 km/h (3 Bft) 100,00 %
18.11.2016 18:58 4,3 C 99 % 1009,9 hPa 0,0 l/m 9,1 km/h (2 Bft) S 175 0 min 0,000 mm 0,0 UV-I 0 W/m 4,2 C 2,0 C 16,1 km/h (3 Bft) 96,61 %
18.11.2016 19:00 4,3 C 99 % 1009,9 hPa 0,0 l/m 8,2 km/h (2 Bft) S-SW 208 0 min 0,000 mm 0,0 UV-I 0 W/m 4,2 C 2,7 C 12,9 km/h (3 Bft) 100,00 %
18.11.2016 19:02 4,3 C 99 % 1009,9 hPa 0,0 l/m 6,3 km/h (2 Bft) SW 215 0 min 0,000 mm 0,0 UV-I 0 W/m 4,2 C 4,3 C 9,7 km/h (2 Bft) 100,00 %
18.11.2016 19:04 4,3 C 99 % 1010,0 hPa 0,0 l/m 4,8 km/h (1 Bft) S-SW 198 0 min 0,000 mm 0,0 UV-I 0 W/m 4,2 C 4,3 C 8,0 km/h (2 Bft) 98,11 %
18.11.2016 19:06 4,3 C 99 % 1010,0 hPa 0,0 l/m 5,4 km/h (1 Bft) S-SW 202 0 min 0,000 mm 0,0 UV-I 0 W/m 4,2 C 4,3 C 9,7 km/h (2 Bft) 100,00 %
18.11.2016 19:08 4,3 C 99 % 1010,1 hPa 0,0 l/m 3,0 km/h (1 Bft) S-SW 207 0 min 0,000 mm 0,0 UV-I 0 W/m 4,2 C 4,3 C 6,4 km/h (2 Bft) 100,00 %
18.11.2016 19:10 4,3 C 99 % 1010,2 hPa 0,0 l/m 5,0 km/h (1 Bft) S-SW 213 0 min 0,000 mm 0,0 UV-I 0 W/m 4,2 C 4,3 C 8,0 km/h (2 Bft) 100,00 %
18.11.2016 19:12 4,3 C 99 % 1010,1 hPa 0,0 l/m 2,8 km/h (1 Bft) S-SW 213 0 min 0,000 mm 0,0 UV-I 0 W/m 4,2 C 4,3 C 3,2 km/h (1 Bft) 95,12 %
18.11.2016 19:14 4,3 C 99 % 1010,1 hPa 0,0 l/m 4,0 km/h (1 Bft) W-SW 256 0 min 0,000 mm 0,0 UV-I 0 W/m 4,2 C 4,3 C 6,4 km/h (2 Bft) 96,00 %
18.11.2016 19:16 4,3 C 99 % 1010,1 hPa 0,0 l/m 3,4 km/h (1 Bft) W-SW 242 0 min 0,000 mm 0,0 UV-I 0 W/m 4,2 C 4,3 C 4,8 km/h (1 Bft) 96,00 %
18.11.2016 19:18 4,3 C 99 % 1010,1 hPa 0,0 l/m 1,4 km/h (1 Bft) W-SW 242 0 min 0,000 mm 0,0 UV-I 0 W/m 4,2 C 4,3 C 4,8 km/h (1 Bft) 97,37 %
18.11.2016 19:20 4,3 C 99 % 1010,1 hPa 0,0 l/m 2,4 km/h (1 Bft) W-SW 242 0 min 0,000 mm 0,0 UV-I 0 W/m 4,2 C 4,3 C 3,2 km/h (1 Bft) 98,11 %
18.11.2016 19:22 4,3 C 99 % 1010,2 hPa 0,0 l/m 2,3 km/h (1 Bft) W-SW 242 0 min 0,000 mm 0,0 UV-I 0 W/m 4,2 C 4,3 C 3,2 km/h (1 Bft) 96,23 %
18.11.2016 19:24 4,3 C 99 % 1010,2 hPa 0,0 l/m 0,6 km/h (0 Bft) W-SW 242 0 min 0,000 mm 0,0 UV-I 0 W/m 4,2 C 4,3 C 1,6 km/h (1 Bft) 97,73 %
18.11.2016 19:26 4,3 C 99 % 1010,2 hPa 0,0 l/m 0,5 km/h (0 Bft) W-SW 242 0 min 0,000 mm 0,0 UV-I 0 W/m 4,2 C 4,3 C 1,6 km/h (1 Bft) 97,37 %
18.11.2016 19:28 4,2 C 99 % 1010,2 hPa 0,0 l/m 0,1 km/h (0 Bft) W-SW 242 0 min 0,000 mm 0,0 UV-I 0 W/m 4,1 C 4,2 C 1,6 km/h (1 Bft) 96,23 %
18.11.2016 19:30 4,3 C 99 % 1010,2 hPa 0,0 l/m 0,3 km/h (0 Bft) W-SW 242 0 min 0,000 mm 0,0 UV-I 0 W/m 4,2 C 4,3 C 1,6 km/h (1 Bft) 97,73 %
18.11.2016 19:32 4,2 C 99 % 1010,2 hPa 0,0 l/m 0,6 km/h (0 Bft) W-SW 242 0 min 0,000 mm 0,0 UV-I 0 W/m 4,1 C 4,2 C 1,6 km/h (1 Bft) 98,00 %
18.11.2016 19:34 4,2 C 99 % 1010,2 hPa 0,0 l/m 0,6 km/h (0 Bft) W-SW 242 0 min 0,000 mm 0,0 UV-I 0 W/m 4,1 C 4,2 C 1,6 km/h (1 Bft) 95,74 %
18.11.2016 19:36 4,2 C 99 % 1010,3 hPa 0,0 l/m 0,6 km/h (0 Bft) W-SW 242 0 min 0,000 mm 0,0 UV-I 0 W/m 4,1 C 4,2 C 1,6 km/h (1 Bft) 98,00 %
18.11.2016 19:38 4,2 C 99 % 1010,4 hPa 0,0 l/m 0,1 km/h (0 Bft) W-SW 242 0 min 0,000 mm 0,0 UV-I 0 W/m 4,1 C 4,2 C 1,6 km/h (1 Bft) 97,44 %
18.11.2016 19:40 4,2 C 99 % 1010,4 hPa 0,0 l/m 0,0 km/h (0 Bft) W-SW 242 0 min 0,000 mm 0,0 UV-I 0 W/m 4,1 C 4,2 C 0,0 km/h (0 Bft) 98,11 %
18.11.2016 19:42 4,2 C 99 % 1010,4 hPa 0,0 l/m 0,2 km/h (0 Bft) W-SW 242 0 min 0,000 mm 0,0 UV-I 0 W/m 4,1 C 4,2 C 1,6 km/h (1 Bft) 98,00 %
18.11.2016 19:44 4,2 C 99 % 1010,3 hPa 0,0 l/m 0,8 km/h (0 Bft) W-SW 242 0 min 0,000 mm 0,0 UV-I 0 W/m 4,1 C 4,2 C 1,6 km/h (1 Bft) 94,74 %
18.11.2016 19:46 4,2 C 99 % 1010,4 hPa 0,0 l/m 0,4 km/h (0 Bft) W-SW 242 0 min 0,000 mm 0,0 UV-I 0 W/m 4,1 C 4,2 C 1,6 km/h (1 Bft) 97,87 %
18.11.2016 19:48 4,2 C 99 % 1010,5 hPa 0,0 l/m 0,2 km/h (0 Bft) W-SW 242 0 min 0,000 mm 0,0 UV-I 0 W/m 4,1 C 4,2 C 1,6 km/h (1 Bft) 97,87 %
18.11.2016 19:50 4,2 C 99 % 1010,5 hPa 0,0 l/m 0,3 km/h (0 Bft) W-SW 242 0 min 0,000 mm 0,0 UV-I 0 W/m 4,1 C 4,2 C 1,6 km/h (1 Bft) 98,00 %
18.11.2016 19:52 4,2 C 99 % 1010,5 hPa 0,0 l/m 0,1 km/h (0 Bft) W-SW 242 0 min 0,000 mm 0,0 UV-I 0 W/m 4,1 C 4,2 C 1,6 km/h (1 Bft) 97,14 %
18.11.2016 19:54 4,2 C 99 % 1010,6 hPa 0,0 l/m 0,0 km/h (0 Bft) W-SW 242 0 min 0,000 mm 0,0 UV-I 0 W/m 4,1 C 4,2 C 0,0 km/h (0 Bft) 96,77 %
18.11.2016 19:56 4,2 C 99 % 1010,5 hPa 0,0 l/m 0,1 km/h (0 Bft) W-SW 242 0 min 0,000 mm 0,0 UV-I 0 W/m 4,1 C 4,2 C 1,6 km/h (1 Bft) 97,87 %
18.11.2016 19:58 4,2 C 99 % 1010,5 hPa 0,0 l/m 0,6 km/h (0 Bft) W-SW 242 0 min 0,000 mm 0,0 UV-I 0 W/m 4,1 C 4,2 C 1,6 km/h (1 Bft) 97,14 %
18.11.2016 20:00 4,2 C 99 % 1010,5 hPa 0,0 l/m 2,7 km/h (1 Bft) SW 220 0 min 0,000 mm 0,0 UV-I 0 W/m 4,1 C 4,2 C 3,2 km/h (1 Bft) 100,00 %
18.11.2016 20:02 4,1 C 99 % 1010,5 hPa 0,0 l/m 2,3 km/h (1 Bft) SW 220 0 min 0,000 mm 0,0 UV-I 0 W/m 4,0 C 4,1 C 3,2 km/h (1 Bft) 100,00 %
18.11.2016 20:04 4,1 C 99 % 1010,5 hPa 0,0 l/m 2,7 km/h (1 Bft) S-SW 197 0 min 0,000 mm 0,0 UV-I 0 W/m 4,0 C 4,1 C 4,8 km/h (1 Bft) 97,87 %
18.11.2016 20:06 4,1 C 99 % 1010,6 hPa 0,0 l/m 0,6 km/h (0 Bft) S-SW 197 0 min 0,000 mm 0,0 UV-I 0 W/m 4,0 C 4,1 C 1,6 km/h (1 Bft) 100,00 %
18.11.2016 20:08 4,1 C 99 % 1010,7 hPa 0,0 l/m 0,6 km/h (0 Bft) S-SW 197 0 min 0,000 mm 0,0 UV-I 0 W/m 4,0 C 4,1 C 1,6 km/h (1 Bft) 100,00 %
18.11.2016 20:10 4,1 C 99 % 1010,7 hPa 0,0 l/m 0,0 km/h (0 Bft) S-SW 197 0 min 0,000 mm 0,0 UV-I 0 W/m 4,0 C 4,1 C 0,0 km/h (0 Bft) 100,00 %
18.11.2016 20:12 4,1 C 99 % 1010,6 hPa 0,0 l/m 0,5 km/h (0 Bft) S-SW 197 0 min 0,000 mm 0,0 UV-I 0 W/m 4,0 C 4,1 C 1,6 km/h (1 Bft) 100,00 %
18.11.2016 20:14 4,1 C 99 % 1010,7 hPa 0,0 l/m 1,1 km/h (1 Bft) S-SW 197 0 min 0,000 mm 0,0 UV-I 0 W/m 4,0 C 4,1 C 3,2 km/h (1 Bft) 100,00 %
18.11.2016 20:16 4,1 C 99 % 1010,7 hPa 0,0 l/m 0,2 km/h (0 Bft) S-SW 197 0 min 0,000 mm 0,0 UV-I 0 W/m 4,0 C 4,1 C 1,6 km/h (1 Bft) 100,00 %
18.11.2016 20:18 4,1 C 99 % 1010,7 hPa 0,0 l/m 0,8 km/h (0 Bft) S-SW 197 0 min 0,000 mm 0,0 UV-I 0 W/m 4,0 C 4,1 C 1,6 km/h (1 Bft) 100,00 %
18.11.2016 20:20 4,0 C 99 % 1010,7 hPa 0,0 l/m 0,2 km/h (0 Bft) S-SW 198 0 min 0,000 mm 0,0 UV-I 0 W/m 3,9 C 4,0 C 1,6 km/h (1 Bft) 100,00 %
18.11.2016 20:22 4,1 C 99 % 1010,7 hPa 0,0 l/m 0,6 km/h (0 Bft) S-SW 197 0 min 0,000 mm 0,0 UV-I 0 W/m 4,0 C 4,1 C 1,6 km/h (1 Bft) 100,00 %
18.11.2016 20:24 4,0 C 99 % 1010,7 hPa 0,0 l/m 0,4 km/h (0 Bft) S-SW 197 0 min 0,000 mm 0,0 UV-I 0 W/m 3,9 C 4,0 C 1,6 km/h (1 Bft) 100,00 %
18.11.2016 20:26 4,0 C 99 % 1010,7 hPa 0,0 l/m 0,6 km/h (0 Bft) S-SW 197 0 min 0,000 mm 0,0 UV-I 0 W/m 3,9 C 4,0 C 1,6 km/h (1 Bft) 100,00 %
18.11.2016 20:28 4,0 C 99 % 1010,7 hPa 0,0 l/m 1,3 km/h (1 Bft) S-SW 197 0 min 0,000 mm 0,0 UV-I 0 W/m 3,9 C 4,0 C 1,6 km/h (1 Bft) 100,00 %
18.11.2016 20:30 4,0 C 99 % 1010,7 hPa 0,0 l/m 1,1 km/h (1 Bft) S-SW 197 0 min 0,000 mm 0,0 UV-I 0 W/m 3,9 C 4,0 C 1,6 km/h (1 Bft) 100,00 %
18.11.2016 20:32 4,0 C 99 % 1010,8 hPa 0,0 l/m 0,4 km/h (0 Bft) S-SW 198 0 min 0,000 mm 0,0 UV-I 0 W/m 3,9 C 4,0 C 1,6 km/h (1 Bft) 100,00 %
18.11.2016 20:34 4,0 C 99 % 1010,8 hPa 0,0 l/m 1,4 km/h (1 Bft) S-SW 197 0 min 0,000 mm 0,0 UV-I 0 W/m 3,9 C 4,0 C 3,2 km/h (1 Bft) 97,87 %
18.11.2016 20:36 4,0 C 99 % 1010,9 hPa 0,0 l/m 1,4 km/h (1 Bft) S-SW 197 0 min 0,000 mm 0,0 UV-I 0 W/m 3,9 C 4,0 C 3,2 km/h (1 Bft) 100,00 %
18.11.2016 20:38 3,9 C 99 % 1010,9 hPa 0,0 l/m 1,2 km/h (1 Bft) S-SW 197 0 min 0,000 mm 0,0 UV-I 0 W/m 3,8 C 3,9 C 3,2 km/h (1 Bft) 100,00 %
18.11.2016 20:40 3,9 C 99 % 1010,9 hPa 0,0 l/m 3,0 km/h (1 Bft) S-SW 197 0 min 0,000 mm 0,0 UV-I 0 W/m 3,8 C 3,9 C 4,8 km/h (1 Bft) 100,00 %
18.11.2016 20:42 3,9 C 99 % 1010,9 hPa 0,0 l/m 1,5 km/h (1 Bft) S-SW 197 0 min 0,000 mm 0,0 UV-I 0 W/m 3,8 C 3,9 C 3,2 km/h (1 Bft) 100,00 %
18.11.2016 20:44 3,8 C 99 % 1011,0 hPa 0,0 l/m 0,0 km/h (0 Bft) S-SW 197 0 min 0,000 mm 0,0 UV-I 0 W/m 3,7 C 3,8 C 0,0 km/h (0 Bft) 100,00 %
18.11.2016 20:46 3,8 C 99 % 1011,0 hPa 0,0 l/m 1,3 km/h (1 Bft) S-SW 197 0 min 0,000 mm 0,0 UV-I 0 W/m 3,7 C 3,8 C 3,2 km/h (1 Bft) 97,87 %
18.11.2016 20:48 3,8 C 99 % 1011,1 hPa 0,0 l/m 2,6 km/h (1 Bft) S-SW 197 0 min 0,000 mm 0,0 UV-I 0 W/m 3,7 C 3,8 C 3,2 km/h (1 Bft) 100,00 %
18.11.2016 20:50 3,8 C 99 % 1011,1 hPa 0,0 l/m 1,7 km/h (1 Bft) S-SW 197 0 min 0,000 mm 0,0 UV-I 0 W/m 3,7 C 3,8 C 3,2 km/h (1 Bft) 97,56 %
18.11.2016 20:52 3,8 C 99 % 1011,2 hPa 0,0 l/m 3,1 km/h (1 Bft) S-SO 161 0 min 0,000 mm 0,0 UV-I 0 W/m 3,7 C 3,8 C 6,4 km/h (2 Bft) 100,00 %
18.11.2016 20:54 3,8 C 99 % 1011,2 hPa 0,0 l/m 3,9 km/h (1 Bft) SO 143 0 min 0,000 mm 0,0 UV-I 0 W/m 3,7 C 3,8 C 8,0 km/h (2 Bft) 100,00 %
18.11.2016 20:56 3,7 C 99 % 1011,2 hPa 0,0 l/m 1,9 km/h (1 Bft) SO 143 0 min 0,000 mm 0,0 UV-I 0 W/m 3,6 C 3,7 C 3,2 km/h (1 Bft) 100,00 %
18.11.2016 20:58 3,7 C 99 % 1011,3 hPa 0,0 l/m 0,3 km/h (0 Bft) SO 143 0 min 0,000 mm 0,0 UV-I 0 W/m 3,6 C 3,7 C 1,6 km/h (1 Bft) 100,00 %
18.11.2016 21:00 3,7 C 99 % 1011,4 hPa 0,0 l/m 0,0 km/h (0 Bft) SO 143 0 min 0,000 mm 0,0 UV-I 0 W/m 3,6 C 3,7 C 0,0 km/h (0 Bft) 100,00 %
18.11.2016 21:02 3,7 C 99 % 1011,4 hPa 0,0 l/m 0,0 km/h (0 Bft) SO 143 0 min 0,000 mm 0,0 UV-I 0 W/m 3,6 C 3,7 C 0,0 km/h (0 Bft) 100,00 %
18.11.2016 21:04 3,7 C 99 % 1011,4 hPa 0,0 l/m 0,0 km/h (0 Bft) SO 143 0 min 0,000 mm 0,0 UV-I 0 W/m 3,6 C 3,7 C 0,0 km/h (0 Bft) 100,00 %
18.11.2016 21:06 3,7 C 99 % 1011,5 hPa 0,0 l/m 0,0 km/h (0 Bft) SO 143 0 min 0,000 mm 0,0 UV-I 0 W/m 3,6 C 3,7 C 0,0 km/h (0 Bft) 100,00 %
18.11.2016 21:08 3,7 C 99 % 1011,6 hPa 0,0 l/m 0,2 km/h (0 Bft) SO 143 0 min 0,000 mm 0,0 UV-I 0 W/m 3,6 C 3,7 C 1,6 km/h (1 Bft) 100,00 %
18.11.2016 21:10 3,7 C 99 % 1011,7 hPa 0,0 l/m 1,3 km/h (1 Bft) SO 143 0 min 0,000 mm 0,0 UV-I 0 W/m 3,6 C 3,7 C 3,2 km/h (1 Bft) 100,00 %
18.11.2016 21:12 3,7 C 99 % 1011,8 hPa 0,0 l/m 0,7 km/h (0 Bft) SO 143 0 min 0,000 mm 0,0 UV-I 0 W/m 3,6 C 3,7 C 3,2 km/h (1 Bft) 100,00 %
18.11.2016 21:14 3,7 C 99 % 1011,9 hPa 0,0 l/m 0,1 km/h (0 Bft) SO 143 0 min 0,000 mm 0,0 UV-I 0 W/m 3,6 C 3,7 C 1,6 km/h (1 Bft) 100,00 %
18.11.2016 21:16 3,7 C 99 % 1011,9 hPa 0,0 l/m 0,1 km/h (0 Bft) SO 143 0 min 0,000 mm 0,0 UV-I 0 W/m 3,6 C 3,7 C 1,6 km/h (1 Bft) 94,74 %
18.11.2016 21:18 3,7 C 99 % 1012,0 hPa 0,0 l/m 0,0 km/h (0 Bft) SO 143 0 min 0,000 mm 0,0 UV-I 0 W/m 3,6 C 3,7 C 0,0 km/h (0 Bft) 96,00 %
18.11.2016 21:20 3,7 C 99 % 1011,9 hPa 0,0 l/m 0,5 km/h (0 Bft) SO 143 0 min 0,000 mm 0,0 UV-I 0 W/m 3,6 C 3,7 C 1,6 km/h (1 Bft) 95,74 %
18.11.2016 21:22 3,6 C 99 % 1012,0 hPa 0,0 l/m 0,0 km/h (0 Bft) SO 143 0 min 0,000 mm 0,0 UV-I 0 W/m 3,5 C 3,6 C 0,0 km/h (0 Bft) 97,56 %
18.11.2016 21:24 3,6 C 99 % 1012,0 hPa 0,0 l/m 0,0 km/h (0 Bft) SO 143 0 min 0,000 mm 0,0 UV-I 0 W/m 3,5 C 3,6 C 0,0 km/h (0 Bft) 98,00 %
18.11.2016 21:26 3,6 C 99 % 1012,1 hPa 0,0 l/m 0,0 km/h (0 Bft) SO 143 0 min 0,000 mm 0,0 UV-I 0 W/m 3,5 C 3,6 C 0,0 km/h (0 Bft) 98,00 %
18.11.2016 21:28 3,6 C 99 % 1012,1 hPa 0,0 l/m 0,0 km/h (0 Bft) SO 143 0 min 0,000 mm 0,0 UV-I 0 W/m 3,5 C 3,6 C 0,0 km/h (0 Bft) 96,00 %
18.11.2016 21:30 3,6 C 99 % 1012,2 hPa 0,0 l/m 0,0 km/h (0 Bft) SO 143 0 min 0,000 mm 0,0 UV-I 0 W/m 3,5 C 3,6 C 0,0 km/h (0 Bft) 95,74 %
18.11.2016 21:32 3,6 C 99 % 1012,3 hPa 0,0 l/m 1,5 km/h (1 Bft) W 267 0 min 0,000 mm 0,0 UV-I 0 W/m 3,5 C 3,6 C 4,8 km/h (1 Bft) 100,00 %
18.11.2016 21:34 3,6 C 99 % 1012,9 hPa 0,0 l/m 5,4 km/h (1 Bft) W 273 0 min 0,000 mm 0,0 UV-I 0 W/m 3,5 C 3,6 C 6,4 km/h (2 Bft) 96,36 %
18.11.2016 21:36 3,7 C 99 % 1013,0 hPa 0,0 l/m 4,3 km/h (1 Bft) NW 308 0 min 0,000 mm 0,0 UV-I 0 W/m 3,6 C 3,7 C 11,3 km/h (2 Bft) 98,00 %
18.11.2016 21:38 3,6 C 99 % 1012,8 hPa 0,0 l/m 5,0 km/h (1 Bft) W 273 0 min 0,000 mm 0,0 UV-I 0 W/m 3,5 C 3,6 C 12,9 km/h (3 Bft) 97,62 %
18.11.2016 21:40 3,6 C 99 % 1013,0 hPa 0,0 l/m 7,8 km/h (2 Bft) W 261 0 min 0,000 mm 0,0 UV-I 0 W/m 3,5 C 2,3 C 14,5 km/h (3 Bft) 97,73 %
18.11.2016 21:42 3,6 C 99 % 1012,8 hPa 0,0 l/m 4,6 km/h (1 Bft) W-NW 288 0 min 0,000 mm 0,0 UV-I 0 W/m 3,5 C 3,6 C 11,3 km/h (2 Bft) 98,11 %
18.11.2016 21:44 3,7 C 99 % 1012,9 hPa 0,0 l/m 4,6 km/h (1 Bft) NW 311 0 min 0,000 mm 0,0 UV-I 0 W/m 3,6 C 3,7 C 11,3 km/h (2 Bft) 97,37 %
18.11.2016 21:46 3,7 C 99 % 1012,8 hPa 0,0 l/m 0,9 km/h (0 Bft) NW 317 0 min 0,000 mm 0,0 UV-I 0 W/m 3,6 C 3,7 C 3,2 km/h (1 Bft) 98,11 %
18.11.2016 21:48 3,7 C 99 % 1012,9 hPa 0,0 l/m 2,2 km/h (1 Bft) W-NW 301 0 min 0,000 mm 0,0 UV-I 0 W/m 3,6 C 3,7 C 4,8 km/h (1 Bft) 97,56 %
18.11.2016 21:50 3,8 C 99 % 1012,8 hPa 0,0 l/m 0,4 km/h (0 Bft) W-NW 301 0 min 0,000 mm 0,0 UV-I 0 W/m 3,7 C 3,8 C 3,2 km/h (1 Bft) 96,23 %
18.11.2016 21:52 3,8 C 99 % 1012,8 hPa 0,0 l/m 0,2 km/h (0 Bft) W-NW 301 0 min 0,000 mm 0,0 UV-I 0 W/m 3,7 C 3,8 C 1,6 km/h (1 Bft) 100,00 %
18.11.2016 21:54 3,8 C 99 % 1013,0 hPa 0,0 l/m 0,3 km/h (0 Bft) W-NW 301 0 min 0,000 mm 0,0 UV-I 0 W/m 3,7 C 3,8 C 1,6 km/h (1 Bft) 98,00 %
18.11.2016 21:56 3,9 C 99 % 1012,9 hPa 0,0 l/m 0,3 km/h (0 Bft) W-NW 301 0 min 0,000 mm 0,0 UV-I 0 W/m 3,8 C 3,9 C 1,6 km/h (1 Bft) 100,00 %
18.11.2016 21:58 3,9 C 99 % 1012,9 hPa 0,0 l/m 1,5 km/h (1 Bft) W-NW 302 0 min 0,000 mm 0,0 UV-I 0 W/m 3,8 C 3,9 C 4,8 km/h (1 Bft) 100,00 %
18.11.2016 22:00 4,0 C 99 % 1012,9 hPa 0,0 l/m 0,9 km/h (0 Bft) W-NW 302 0 min 0,000 mm 0,0 UV-I 0 W/m 3,9 C 4,0 C 4,8 km/h (1 Bft) 100,00 %
18.11.2016 22:02 4,1 C 99 % 1012,9 hPa 0,0 l/m 0,0 km/h (0 Bft) W-NW 302 0 min 0,000 mm 0,0 UV-I 0 W/m 4,0 C 4,1 C 0,0 km/h (0 Bft) 97,37 %
18.11.2016 22:04 4,1 C 99 % 1012,9 hPa 0,0 l/m 1,6 km/h (1 Bft) W-NW 302 0 min 0,000 mm 0,0 UV-I 0 W/m 4,0 C 4,1 C 3,2 km/h (1 Bft) 100,00 %
18.11.2016 22:06 4,1 C 99 % 1013,0 hPa 0,0 l/m 2,4 km/h (1 Bft) W-NW 302 0 min 0,000 mm 0,0 UV-I 0 W/m 4,0 C 4,1 C 3,2 km/h (1 Bft) 98,00 %
18.11.2016 22:08 4,1 C 99 % 1013,0 hPa 0,0 l/m 1,6 km/h (1 Bft) W-NW 302 0 min 0,000 mm 0,0 UV-I 0 W/m 4,0 C 4,1 C 3,2 km/h (1 Bft) 98,00 %
18.11.2016 22:10 4,1 C 99 % 1013,1 hPa 0,0 l/m 2,5 km/h (1 Bft) W-NW 302 0 min 0,000 mm 0,0 UV-I 0 W/m 4,0 C 4,1 C 4,8 km/h (1 Bft) 100,00 %
18.11.2016 22:12 4,2 C 99 % 1013,1 hPa 0,0 l/m 1,9 km/h (1 Bft) W-NW 302 0 min 0,000 mm 0,0 UV-I 0 W/m 4,1 C 4,2 C 3,2 km/h (1 Bft) 97,44 %
18.11.2016 22:14 4,2 C 99 % 1013,2 hPa 0,0 l/m 1,3 km/h (1 Bft) W-NW 302 0 min 0,000 mm 0,0 UV-I 0 W/m 4,1 C 4,2 C 3,2 km/h (1 Bft) 98,00 %
18.11.2016 22:16 4,2 C 99 % 1013,3 hPa 0,0 l/m 2,5 km/h (1 Bft) W-NW 302 0 min 0,000 mm 0,0 UV-I 0 W/m 4,1 C 4,2 C 4,8 km/h (1 Bft) 100,00 %
18.11.2016 22:18 4,2 C 99 % 1013,3 hPa 0,0 l/m 2,9 km/h (1 Bft) W-NW 298 0 min 0,000 mm 0,0 UV-I 0 W/m 4,1 C 4,2 C 4,8 km/h (1 Bft) 100,00 %
18.11.2016 22:20 4,2 C 99 % 1013,3 hPa 0,0 l/m 3,0 km/h (1 Bft) W-NW 298 0 min 0,000 mm 0,0 UV-I 0 W/m 4,1 C 4,2 C 4,8 km/h (1 Bft) 100,00 %
18.11.2016 22:22 4,2 C 99 % 1013,4 hPa 0,0 l/m 4,1 km/h (1 Bft) W-SW 257 0 min 0,000 mm 0,0 UV-I 0 W/m 4,1 C 4,2 C 6,4 km/h (2 Bft) 100,00 %
18.11.2016 22:24 4,2 C 99 % 1013,5 hPa 0,0 l/m 4,6 km/h (1 Bft) W 263 0 min 0,000 mm 0,0 UV-I 0 W/m 4,1 C 4,2 C 6,4 km/h (2 Bft) 100,00 %
18.11.2016 22:26 4,3 C 99 % 1013,5 hPa 0,0 l/m 4,0 km/h (1 Bft) W 263 0 min 0,000 mm 0,0 UV-I 0 W/m 4,2 C 4,3 C 6,4 km/h (2 Bft) 100,00 %
18.11.2016 22:28 4,3 C 99 % 1013,4 hPa 0,0 l/m 2,6 km/h (1 Bft) W 263 0 min 0,000 mm 0,0 UV-I 0 W/m 4,2 C 4,3 C 4,8 km/h (1 Bft) 98,00 %
18.11.2016 22:30 4,3 C 99 % 1013,4 hPa 0,0 l/m 3,1 km/h (1 Bft) W 263 0 min 0,000 mm 0,0 UV-I 0 W/m 4,2 C 4,3 C 4,8 km/h (1 Bft) 100,00 %
18.11.2016 22:32 4,3 C 99 % 1013,4 hPa 0,0 l/m 2,6 km/h (1 Bft) W-SW 257 0 min 0,000 mm 0,0 UV-I 0 W/m 4,2 C 4,3 C 6,4 km/h (2 Bft) 100,00 %
18.11.2016 22:34 4,3 C 99 % 1013,6 hPa 0,0 l/m 4,0 km/h (1 Bft) W-SW 257 0 min 0,000 mm 0,0 UV-I 0 W/m 4,2 C 4,3 C 4,8 km/h (1 Bft) 100,00 %
18.11.2016 22:36 4,3 C 99 % 1013,6 hPa 0,0 l/m 4,6 km/h (1 Bft) SW 228 0 min 0,000 mm 0,0 UV-I 0 W/m 4,2 C 4,3 C 6,4 km/h (2 Bft) 100,00 %
18.11.2016 22:38 4,3 C 99 % 1013,5 hPa 0,0 l/m 3,7 km/h (1 Bft) SW 226 0 min 0,000 mm 0,0 UV-I 0 W/m 4,2 C 4,3 C 6,4 km/h (2 Bft) 98,00 %
18.11.2016 22:40 4,3 C 99 % 1013,5 hPa 0,0 l/m 3,3 km/h (1 Bft) SW 226 0 min 0,000 mm 0,0 UV-I 0 W/m 4,2 C 4,3 C 6,4 km/h (2 Bft) 97,56 %
18.11.2016 22:42 4,3 C 99 % 1013,6 hPa 0,0 l/m 5,6 km/h (1 Bft) SW 219 0 min 0,000 mm 0,0 UV-I 0 W/m 4,2 C 4,3 C 6,4 km/h (2 Bft) 98,11 %
18.11.2016 22:44 4,3 C 99 % 1013,6 hPa 0,0 l/m 6,6 km/h (2 Bft) S-SW 208 0 min 0,000 mm 0,0 UV-I 0 W/m 4,2 C 4,1 C 8,0 km/h (2 Bft) 100,00 %
18.11.2016 22:46 4,3 C 99 % 1013,6 hPa 0,0 l/m 4,2 km/h (1 Bft) S-SW 199 0 min 0,000 mm 0,0 UV-I 0 W/m 4,2 C 4,3 C 6,4 km/h (2 Bft) 97,87 %
18.11.2016 22:48 4,4 C 99 % 1013,7 hPa 0,0 l/m 2,6 km/h (1 Bft) S-SW 199 0 min 0,000 mm 0,0 UV-I 0 W/m 4,3 C 4,4 C 4,8 km/h (1 Bft) 100,00 %
18.11.2016 22:50 4,3 C 99 % 1013,7 hPa 0,0 l/m 2,0 km/h (1 Bft) S 190 0 min 0,000 mm 0,0 UV-I 0 W/m 4,2 C 4,3 C 4,8 km/h (1 Bft) 100,00 %
18.11.2016 22:52 4,3 C 99 % 1013,7 hPa 0,0 l/m 2,0 km/h (1 Bft) S 188 0 min 0,000 mm 0,0 UV-I 0 W/m 4,2 C 4,3 C 4,8 km/h (1 Bft) 97,87 %
18.11.2016 22:54 4,3 C 99 % 1013,7 hPa 0,0 l/m 2,9 km/h (1 Bft) S 178 0 min 0,000 mm 0,0 UV-I 0 W/m 4,2 C 4,3 C 6,4 km/h (2 Bft) 100,00 %
18.11.2016 22:56 4,3 C 99 % 1013,7 hPa 0,0 l/m 3,9 km/h (1 Bft) S-SO 167 0 min 0,000 mm 0,0 UV-I 0 W/m 4,2 C 4,3 C 8,0 km/h (2 Bft) 100,00 %
18.11.2016 22:58 4,3 C 99 % 1013,7 hPa 0,0 l/m 2,8 km/h (1 Bft) S-SO 166 0 min 0,000 mm 0,0 UV-I 0 W/m 4,2 C 4,3 C 6,4 km/h (2 Bft) 100,00 %
18.11.2016 23:00 4,3 C 99 % 1013,6 hPa 0,0 l/m 3,3 km/h (1 Bft) S-SO 153 0 min 0,000 mm 0,0 UV-I 0 W/m 4,2 C 4,3 C 6,4 km/h (2 Bft) 100,00 %
18.11.2016 23:02 4,3 C 99 % 1013,6 hPa 0,0 l/m 2,8 km/h (1 Bft) S 169 0 min 0,000 mm 0,0 UV-I 0 W/m 4,2 C 4,3 C 6,4 km/h (2 Bft) 100,00 %
18.11.2016 23:04 4,3 C 99 % 1013,5 hPa 0,0 l/m 3,3 km/h (1 Bft) S-SO 163 0 min 0,000 mm 0,0 UV-I 0 W/m 4,2 C 4,3 C 6,4 km/h (2 Bft) 100,00 %
18.11.2016 23:06 4,3 C 99 % 1013,4 hPa 0,0 l/m 4,7 km/h (1 Bft) S-SO 159 0 min 0,000 mm 0,0 UV-I 0 W/m 4,2 C 4,3 C 9,7 km/h (2 Bft) 100,00 %
18.11.2016 23:08 4,3 C 99 % 1013,5 hPa 0,0 l/m 3,5 km/h (1 Bft) S-SO 155 0 min 0,000 mm 0,0 UV-I 0 W/m 4,2 C 4,3 C 8,0 km/h (2 Bft) 100,00 %
18.11.2016 23:10 4,3 C 99 % 1013,5 hPa 0,0 l/m 5,2 km/h (1 Bft) S-SO 161 0 min 0,000 mm 0,0 UV-I 0 W/m 4,2 C 4,3 C 11,3 km/h (2 Bft) 100,00 %
18.11.2016 23:12 4,3 C 99 % 1013,4 hPa 0,0 l/m 3,2 km/h (1 Bft) S-SO 157 0 min 0,000 mm 0,0 UV-I 0 W/m 4,2 C 4,3 C 8,0 km/h (2 Bft) 100,00 %
18.11.2016 23:14 4,3 C 99 % 1013,3 hPa 0,0 l/m 3,3 km/h (1 Bft) S-SO 161 0 min 0,000 mm 0,0 UV-I 0 W/m 4,2 C 4,3 C 6,4 km/h (2 Bft) 100,00 %
18.11.2016 23:16 4,2 C 99 % 1013,2 hPa 0,0 l/m 2,5 km/h (1 Bft) S-SO 148 0 min 0,000 mm 0,0 UV-I 0 W/m 4,1 C 4,2 C 4,8 km/h (1 Bft) 100,00 %
18.11.2016 23:18 4,2 C 99 % 1013,3 hPa 0,0 l/m 1,5 km/h (1 Bft) S-SO 161 0 min 0,000 mm 0,0 UV-I 0 W/m 4,1 C 4,2 C 3,2 km/h (1 Bft) 100,00 %
18.11.2016 23:20 4,2 C 99 % 1013,4 hPa 0,0 l/m 3,1 km/h (1 Bft) S 177 0 min 0,000 mm 0,0 UV-I 0 W/m 4,1 C 4,2 C 6,4 km/h (2 Bft) 97,37 %
18.11.2016 23:22 4,2 C 99 % 1013,3 hPa 0,0 l/m 3,7 km/h (1 Bft) S 171 0 min 0,000 mm 0,0 UV-I 0 W/m 4,1 C 4,2 C 6,4 km/h (2 Bft) 95,12 %
18.11.2016 23:24 4,2 C 99 % 1013,2 hPa 0,0 l/m 3,4 km/h (1 Bft) S 183 0 min 0,000 mm 0,0 UV-I 0 W/m 4,1 C 4,2 C 4,8 km/h (1 Bft) 96,43 %
18.11.2016 23:26 4,3 C 99 % 1013,3 hPa 0,0 l/m 3,9 km/h (1 Bft) SW 217 0 min 0,000 mm 0,0 UV-I 0 W/m 4,2 C 4,3 C 6,4 km/h (2 Bft) 98,11 %
18.11.2016 23:28 4,3 C 99 % 1013,4 hPa 0,0 l/m 5,6 km/h (1 Bft) S-SW 208 0 min 0,000 mm 0,0 UV-I 0 W/m 4,2 C 4,3 C 8,0 km/h (2 Bft) 97,37 %
18.11.2016 23:30 4,3 C 99 % 1013,5 hPa 0,0 l/m 6,5 km/h (2 Bft) S-SW 208 0 min 0,000 mm 0,0 UV-I 0 W/m 4,2 C 4,2 C 9,7 km/h (2 Bft) 94,34 %
18.11.2016 23:32 4,3 C 99 % 1013,5 hPa 0,0 l/m 6,4 km/h (2 Bft) S-SW 198 0 min 0,000 mm 0,0 UV-I 0 W/m 4,2 C 4,3 C 9,7 km/h (2 Bft) 100,00 %
18.11.2016 23:34 4,3 C 99 % 1013,5 hPa 0,0 l/m 3,9 km/h (1 Bft) S-SW 202 0 min 0,000 mm 0,0 UV-I 0 W/m 4,2 C 4,3 C 8,0 km/h (2 Bft) 95,12 %
18.11.2016 23:36 4,3 C 99 % 1013,5 hPa 0,0 l/m 3,1 km/h (1 Bft) S-SW 201 0 min 0,000 mm 0,0 UV-I 0 W/m 4,2 C 4,3 C 6,4 km/h (2 Bft) 96,00 %
18.11.2016 23:38 4,3 C 99 % 1013,5 hPa 0,0 l/m 1,5 km/h (1 Bft) S-SW 200 0 min 0,000 mm 0,0 UV-I 0 W/m 4,2 C 4,3 C 4,8 km/h (1 Bft) 97,87 %
18.11.2016 23:40 4,3 C 99 % 1013,4 hPa 0,0 l/m 1,3 km/h (1 Bft) S-SW 201 0 min 0,000 mm 0,0 UV-I 0 W/m 4,2 C 4,3 C 3,2 km/h (1 Bft) 94,64 %
18.11.2016 23:42 4,4 C 99 % 1013,4 hPa 0,0 l/m 1,8 km/h (1 Bft) S-SW 200 0 min 0,000 mm 0,0 UV-I 0 W/m 4,3 C 4,4 C 4,8 km/h (1 Bft) 96,00 %
18.11.2016 23:44 4,4 C 99 % 1013,5 hPa 0,0 l/m 3,5 km/h (1 Bft) S-SW 200 0 min 0,000 mm 0,0 UV-I 0 W/m 4,3 C 4,4 C 4,8 km/h (1 Bft) 97,96 %
18.11.2016 23:46 4,5 C 99 % 1013,6 hPa 0,0 l/m 1,8 km/h (1 Bft) S-SW 200 0 min 0,000 mm 0,0 UV-I 0 W/m 4,4 C 4,5 C 4,8 km/h (1 Bft) 97,37 %
18.11.2016 23:48 4,6 C 99 % 1013,6 hPa 0,0 l/m 3,4 km/h (1 Bft) S-SW 200 0 min 0,000 mm 0,0 UV-I 0 W/m 4,5 C 4,6 C 4,8 km/h (1 Bft) 97,73 %
18.11.2016 23:50 4,6 C 99 % 1013,7 hPa 0,0 l/m 3,3 km/h (1 Bft) S-SW 200 0 min 0,000 mm 0,0 UV-I 0 W/m 4,5 C 4,6 C 4,8 km/h (1 Bft) 94,34 %
18.11.2016 23:54 4,8 C 99 % 1013,7 hPa 0,0 l/m 2,4 km/h (1 Bft) S-SW 200 0 min 0,000 mm 0,0 UV-I 0 W/m 4,7 C 4,8 C 3,2 km/h (1 Bft) 100,00 %
18.11.2016 23:56 4,8 C 99 % 1013,6 hPa 0,0 l/m 1,8 km/h (1 Bft) S-SW 200 0 min 0,000 mm 0,0 UV-I 0 W/m 4,7 C 4,8 C 3,2 km/h (1 Bft) 100,00 %
18.11.2016 23:58 4,8 C 99 % 1013,6 hPa 0,0 l/m 2,2 km/h (1 Bft) S-SW 213 0 min 0,000 mm 0,0 UV-I 0 W/m 4,7 C 4,8 C 4,8 km/h (1 Bft) 98,57 %
_ Min-Zeit 06:14 00:00 14:36 - 00:12 - - - - - - 06:16 09:06 00:12 17:30
Minimum _ 1,9 C 98 % 1006,5 hPa - 0,0 km/h (0 Bft) - - - - - - 1,8 C -5,8 C 0,0 km/h (0 Bft) 72,73 %
_ Max-Zeit 13:16 02:10 22:48 03:42 09:06 - - 00:00 12:02 00:00 11:48 13:16 13:16 08:18 00:00
Maximum _ 4,9 C 99 % 1013,7 hPa 0,2 l/m 22,5 km/h
O-NO (4 Bft)
- - 0 min 0,051 mm 0,0 UV-I 122 W/m 4,8 C 4,9 C 33,8 km/h
O-NO (5 Bft)
100,00 %
Durchschnitt _ 3,8 C 99 % 1009,7 hPa #0,2 l/m 4,8 km/h (1 Bft) O-NO - #0 min. #0,229 mm 0,0 UV-I 61 W/m 3,6 C 2,6 C 7,8 km/h (2 Bft) 98,65 %